[[{"header":{"parameterUnit":"m.s-1","parameterCategory":1,"la1":31.0,"la2":29.5877,"lo1":-88.7671,"lo2":-86.6584,"dy":0.0162,"dx":0.0185,"nx":115,"ny":88,"refTime":"2024-06-24T18:00:00:Z","depth":0,"parameterNumber":2,"parameterNumberName":"U-component_of_WINDS"},"data":[0.0,0.0,0.0,0.0,0.0,0.0,0.0,0.0,0.0,0.0,0.0,0.0,0.0,0.0,0.0,0.0,0.0,0.0,0.0,0.0,0.0,0.0,0.0,0.0,0.0,0.0,0.0,0.0,0.0,0.0,0.0,0.0,0.0,0.0,0.0,0.0,0.0,0.0,0.0,0.0,0.0,0.0,0.0,0.0,0.0,0.0,0.0,0.0,0.0,0.0,0.0,0.0,0.0,0.0,0.0,0.0,0.0,0.0,0.0,0.0,0.0,0.0,0.0,0.0,0.0,0.0,0.0,0.0,0.0,0.0,0.0,0.0,0.0,0.0,0.0,0.0,0.0,0.0,0.0,0.0,0.0,0.0,0.0,0.0,0.0,0.0,0.0,0.0,0.0,0.0,0.0,0.0,0.0,0.0,0.0,0.0,0.0,0.0,0.0,0.0,0.0,0.0,0.0,0.0,0.0,0.0,0.0,0.0,0.0,0.0,0.0,0.0,0.0,0.0,0.0,0.0,0.0,0.0,0.0,0.0,0.0,0.0,0.0,0.0,0.0,0.0,0.0,0.0,0.0,0.0,0.0,0.0,0.0,0.0,0.0,0.0,0.0,0.0,0.0,0.0,0.0,0.0,0.0,0.0,0.0,0.0,0.0,0.0,0.0,0.0,0.0,0.0,0.0,0.0,0.0,0.0,0.0,0.0,0.0,0.0,0.0,0.0,0.0,0.0,0.0,0.0,0.0,0.0,0.0,0.0,0.0,0.0,0.0,0.0,0.0,0.0,0.0,0.0,0.0,0.0,0.0,0.0,0.0,0.0,0.0,0.0,0.0,0.0,0.0,0.0,0.0,0.0,0.0,0.0,0.0,0.0,0.0,0.0,0.0,0.0,0.0,0.0,0.0,0.0,0.0,0.0,0.0,0.0,0.0,0.0,0.0,0.0,0.0,0.0,0.0,0.0,0.0,0.0,0.0,0.0,0.0,0.0,0.0,0.0,0.0,0.0,0.0,0.0,0.0,0.0,0.0,0.0,0.0,0.0,0.0,0.0,0.0,0.0,0.0,0.0,0.0,0.0,0.0,0.0,0.0,0.0,0.0,0.0,0.0,0.0,0.0,0.0,0.0,0.0,0.0,0.0,0.0,0.0,0.0,0.0,0.0,0.0,0.0,0.0,0.0,0.0,0.0,0.0,0.0,0.0,0.0,0.0,0.0,0.0,0.0,0.0,0.0,0.0,0.0,0.0,0.0,0.0,0.0,0.0,0.0,0.0,0.0,0.0,0.0,0.0,0.0,0.0,0.0,0.0,0.0,0.0,0.0,0.0,0.0,0.0,0.0,0.0,0.0,0.0,0.0,0.0,0.0,0.0,0.0,0.0,0.0,0.0,0.0,0.0,0.0,0.0,0.0,0.0,0.0,0.0,0.0,0.0,0.0,0.0,0.0,0.0,0.0,0.0,0.0,0.0,0.0,0.0,0.0,0.0,0.0,0.0,0.0,0.0,0.0,0.0,0.0,0.0,0.0,0.0,0.0,0.0,0.0,0.0,0.0,0.0,0.0,0.0,0.0,0.0,0.0,0.0,0.0,0.0,0.0,0.0,0.0,0.0,0.0,0.0,0.0,0.0,0.0,0.0,0.0,0.0,0.0,0.0,0.0,0.0,0.0,0.0,0.0,0.0,0.0,0.0,0.0,0.0,0.0,0.0,0.0,0.0,0.0,0.0,0.0,0.0,0.0,0.0,0.0,0.0,0.0,0.0,0.0,0.0,0.0,0.0,0.0,0.0,0.0,0.0,0.0,0.0,0.0,0.0,0.0,0.0,0.0,0.0,0.0,0.0,0.0,0.0,0.0,0.0,0.0,0.0,0.0,0.0,0.0,0.0,0.0,0.0,0.0,0.0,0.0,0.0,0.0,0.0,0.0,0.0,0.0,0.0,0.0,0.0,0.0,0.0,0.0,0.0,0.0,0.0,0.0,0.0,0.0,0.0,0.0,0.0,0.0,0.0,0.0,0.0,0.0,0.0,0.0,0.0,0.0,0.0,0.0,0.0,0.0,0.0,0.0,0.0,0.0,0.0,0.0,0.0,0.0,0.0,0.0,0.0,0.0,0.0,0.0,0.0,0.0,0.0,0.0,0.0,0.0,0.0,0.0,0.0,0.0,0.0,0.0,0.0,0.0,0.0,0.0,0.0,0.0,0.0,0.0,0.0,0.0,0.0,0.0,0.0,0.0,0.0,0.0,0.0,0.0,0.0,0.0,0.0,0.0,0.0,0.0,0.0,0.0,0.0,0.0,0.0,0.0,0.0,0.0,0.0,0.0,0.0,0.0,0.0,0.0,0.0,0.0,0.0,0.0,0.0,0.0,0.0,0.0,0.0,0.0,0.0,0.0,0.0,0.0,0.0,0.0,0.0,0.0,0.0,0.0,0.0,0.0,0.0,0.0,0.0,0.0,0.0,0.0,0.0,0.0,0.0,0.0,0.0,0.0,0.0,0.0,0.0,0.0,0.0,0.0,0.0,0.0,0.0,0.0,0.0,0.0,0.0,0.0,0.0,0.0,0.0,0.0,0.0,0.0,0.0,0.0,0.0,0.0,0.0,0.0,0.0,0.0,0.0,0.0,0.0,0.0,0.0,0.0,0.0,0.0,0.0,0.0,0.0,0.0,0.0,0.0,0.0,0.0,0.0,0.0,0.0,0.0,0.0,0.0,0.0,0.0,0.0,0.0,0.0,0.0,0.0,0.0,0.0,0.0,0.0,0.0,0.0,0.0,0.0,0.0,0.0,0.0,0.0,0.0,0.0,0.0,0.0,0.0,0.0,0.0,0.0,0.0,0.0,0.0,0.0,0.0,0.0,0.0,0.0,0.0,0.0,0.0,0.0,0.0,0.0,0.0,0.0,0.0,0.0,0.0,0.0,0.0,0.0,0.0,0.0,0.0,0.0,0.0,0.0,0.0,0.0,0.0,0.0,0.0,0.0,0.0,0.0,0.0,0.0,0.0,0.0,0.0,0.0,0.0,0.0,0.0,0.0,0.0,0.0,0.0,0.0,0.0,0.0,0.0,0.0,0.0,0.0,0.0,0.0,0.0,0.0,0.0,0.0,0.0,0.0,0.0,0.0,0.0,0.0,0.0,0.0,0.0,0.0,0.0,0.0,0.0,0.0,0.0,0.0,0.0,0.0,0.0,0.0,0.0,0.0,0.0,0.0,0.0,0.0,0.0,0.0,0.0,0.0,0.0,0.0,0.0,0.0,0.0,0.0,0.0,0.0,0.0,0.0,0.0,0.0,0.0,0.0,0.0,0.0,0.0,0.0,0.0,0.0,0.0,0.0,0.0,0.0,0.0,0.0,0.0,0.0,0.0,0.0,0.0,0.0,0.0,0.0,0.0,0.0,0.0,0.0,0.0,0.0,0.0,0.0,0.0,0.0,0.0,0.0,0.0,0.0,0.0,0.0,0.0,0.0,0.0,0.0,0.0,0.0,0.0,0.0,0.0,0.0,0.0,0.0,0.0,0.0,0.0,0.0,0.0,0.0,0.0,0.0,0.0,0.0,0.0,0.0,0.0,0.0,0.0,0.0,0.0,0.0,0.0,0.0,0.0,0.0,0.0,0.0,0.0,0.0,0.0,0.0,0.0,0.0,0.0,0.0,0.0,0.0,0.0,0.0,0.0,0.0,0.0,0.0,0.0,0.0,0.0,0.0,0.0,0.0,0.0,0.0,0.0,0.0,0.0,0.0,0.0,0.0,0.0,0.0,0.0,0.0,0.0,0.0,0.0,0.0,0.0,0.0,0.0,0.0,0.0,0.0,0.0,0.0,0.0,0.0,0.0,0.0,0.0,0.0,0.0,0.0,0.0,0.0,0.0,0.0,0.0,0.0,0.0,0.0,0.0,0.0,0.0,0.0,0.0,0.0,0.0,0.0,0.0,0.0,0.0,0.0,0.0,0.0,0.0,0.0,0.0,0.0,0.0,0.0,0.0,0.0,0.0,0.0,0.0,0.0,0.0,0.0,0.0,0.0,0.0,0.0,0.0,0.0,0.0,0.0,0.0,0.0,0.0,0.0,0.0,0.0,0.0,0.0,0.0,0.0,0.0,0.0,0.0,0.0,0.0,0.0,0.0,0.0,0.0,0.0,0.0,0.0,0.0,0.0,0.0,0.0,0.0,0.0,0.0,0.0,0.0,0.0,0.0,0.0,0.0,0.0,0.0,0.0,0.0,0.0,0.0,0.0,0.0,0.0,0.0,0.0,0.0,0.0,0.0,0.0,0.0,0.0,-0.8976,0.0,0.0,0.0,0.0,0.0,0.0,0.0,0.0,0.0,0.0,0.0,0.0,0.0,0.0,0.0,0.0,0.0,0.0,0.0,0.0,0.0,0.0,0.0,0.0,0.0,0.0,0.0,0.0,0.0,0.0,0.0,0.0,0.0,0.0,0.0,0.0,0.0,0.0,0.0,0.0,0.0,0.0,0.0,0.0,0.0,0.0,0.0,0.0,0.0,0.0,0.0,0.0,0.0,0.0,0.0,0.0,0.0,0.0,0.0,0.0,0.0,0.0,0.0,0.0,0.0,0.0,0.0,0.0,0.0,0.0,0.0,0.0,0.0,0.0,0.0,0.0,0.0,0.0,0.0,0.0,0.0,0.0,0.0,0.0,0.0,0.0,0.0,0.0,0.0,0.0,0.0,0.0,0.0,0.0,0.0,0.0,0.0,0.0,0.0,0.0,0.0,0.0,0.0,0.0,0.0,0.0,0.0,0.0,0.0,0.0,-0.8365,-0.8523,-0.8843,-0.892,-0.8766,0.0,0.0,0.0,0.0,0.0,0.0,0.0,0.0,0.0,0.0,0.0,0.0,0.0,0.0,0.0,0.0,0.0,0.0,0.0,0.0,0.0,0.0,0.0,0.0,0.0,0.0,0.0,0.0,0.0,0.0,0.0,0.0,0.0,0.0,0.0,0.0,0.0,0.0,0.0,0.0,0.0,0.0,0.0,0.0,0.0,0.0,0.0,0.0,0.0,0.0,0.0,0.0,0.0,0.0,0.0,0.0,0.0,0.0,0.0,0.0,0.0,0.0,0.0,0.0,0.0,0.0,0.0,0.0,0.0,0.0,0.0,0.0,0.0,0.0,0.0,0.0,0.0,0.0,0.0,0.0,0.0,0.0,0.0,0.0,0.0,0.0,0.0,0.0,0.0,0.0,0.0,0.0,0.0,0.0,0.0,0.0,0.0,0.0,0.0,0.0,0.0,0.0,0.0,0.0,0.0,0.0,0.0,0.0,0.0,0.0,0.0,0.0,-0.9149,-0.9264,-0.8873,0.0,0.0,0.0,0.0,0.0,0.0,0.0,0.0,0.0,0.0,0.0,0.0,0.0,0.0,0.0,0.0,0.0,0.0,0.0,0.0,0.0,0.0,0.0,0.0,0.0,0.0,0.0,0.0,0.0,0.0,0.0,0.0,0.0,0.0,0.0,0.0,0.0,0.0,0.0,0.0,0.0,0.0,0.0,0.0,0.0,0.0,0.0,0.0,0.0,0.0,0.0,0.0,0.0,0.0,0.0,0.0,0.0,0.0,0.0,0.0,0.0,0.0,0.0,0.0,0.0,0.0,0.0,0.0,0.0,0.0,0.0,0.0,0.0,0.0,0.0,0.0,0.0,0.0,0.0,0.0,0.0,0.0,0.0,0.0,0.0,0.0,0.0,0.0,0.0,0.0,0.0,0.0,0.0,0.0,0.0,0.0,0.0,0.0,0.0,0.0,0.0,0.0,0.0,0.0,0.0,0.0,0.0,0.0,0.0,0.0,-0.8299,-0.9442,-0.9545,0.0,-0.9941,0.0,0.0,0.0,0.0,0.0,0.0,0.0,0.0,0.0,0.0,0.0,0.0,0.0,0.0,0.0,0.0,0.0,0.0,0.0,0.0,0.0,0.0,0.0,0.0,0.0,0.0,0.0,0.0,0.0,0.0,0.0,0.0,0.0,0.0,0.0,0.0,0.0,0.0,0.0,0.0,0.0,0.0,0.0,0.0,0.0,0.0,0.0,0.0,0.0,0.0,0.0,0.0,0.0,0.0,0.0,0.0,0.0,0.0,0.0,0.0,0.0,0.0,0.0,0.0,0.0,0.0,0.0,0.0,0.0,0.0,0.0,0.0,0.0,0.0,0.0,0.0,0.0,0.0,0.0,0.0,0.0,0.0,0.0,0.0,0.0,0.0,0.0,0.0,0.0,0.0,0.0,0.0,0.0,0.0,0.0,0.0,0.0,0.0,0.0,0.0,0.0,0.0,0.0,0.0,0.0,0.0,0.0,0.0,0.0,0.0,0.0,-0.9231,-0.9661,-0.9858,0.0,0.0,0.0,0.0,0.0,0.0,0.0,0.0,0.0,0.0,0.0,0.0,0.0,0.0,0.0,0.0,0.0,0.0,0.0,0.0,0.0,0.0,0.0,0.0,0.0,0.0,0.0,0.0,0.0,0.0,0.0,0.0,0.0,0.0,0.0,0.0,0.0,0.0,0.0,0.0,0.0,0.0,0.0,0.0,0.0,0.0,0.0,0.0,0.0,0.0,0.0,0.0,0.0,0.0,0.0,0.0,0.0,0.0,0.0,0.0,0.0,0.0,0.0,0.0,0.0,0.0,0.0,0.0,0.0,0.0,0.0,0.0,0.0,0.0,0.0,0.0,0.0,0.0,0.0,0.0,0.0,0.0,0.0,0.0,0.0,0.0,0.0,0.0,0.0,0.0,0.0,0.0,0.0,0.0,0.0,0.0,0.0,0.0,0.0,0.0,0.0,0.0,0.0,0.0,0.0,0.0,0.0,0.0,0.0,0.0,-0.8685,0.0,-0.9361,-1.0039,-1.0015,-0.9223,0.0,0.0,0.0,0.0,0.0,0.0,0.0,0.0,0.0,0.0,0.0,0.0,0.0,0.0,0.0,0.0,0.0,0.0,0.0,0.0,0.0,0.0,0.0,0.0,0.0,0.0,0.0,0.0,0.0,0.0,0.0,0.0,0.0,0.0,0.0,0.0,0.0,0.0,0.0,0.0,0.0,0.0,0.0,0.0,0.0,0.0,0.0,0.0,0.0,0.0,0.0,0.0,0.0,0.0,0.0,0.0,0.0,0.0,0.0,0.0,0.0,0.0,0.0,0.0,0.0,0.0,0.0,0.0,0.0,0.0,0.0,0.0,0.0,0.0,0.0,0.0,0.0,0.0,0.0,0.0,0.0,0.0,0.0,0.0,0.0,0.0,0.0,0.0,0.0,0.0,0.0,0.0,0.0,0.0,0.0,0.0,0.0,0.0,0.0,0.0,0.0,0.0,0.0,0.0,0.0,0.0,0.0,0.0,0.0,-0.9021,-0.9004,-1.0214,-1.0824,-1.0312,0.0,0.0,0.0,0.0,0.0,0.0,0.0,0.0,0.0,0.0,0.0,0.0,0.0,0.0,0.0,0.0,0.0,0.0,0.0,0.0,0.0,0.0,0.0,0.0,0.0,0.0,0.0,0.0,0.0,0.0,0.0,0.0,0.0,0.0,0.0,0.0,0.0,0.0,0.0,0.0,0.0,0.0,0.0,0.0,0.0,0.0,0.0,0.0,0.0,0.0,0.0,0.0,0.0,0.0,0.0,0.0,0.0,0.0,0.0,0.0,0.0,0.0,0.0,0.0,0.0,0.0,0.0,0.0,0.0,0.0,0.0,0.0,0.0,0.0,0.0,0.0,0.0,0.0,0.0,0.0,0.0,0.0,0.0,0.0,0.0,0.0,0.0,0.0,0.0,0.0,0.0,0.0,0.0,0.0,0.0,0.0,0.0,0.0,0.0,0.0,0.0,0.0,0.0,0.0,0.0,0.0,0.0,0.0,0.0,-0.8587,-0.873,-0.9521,0.0,-1.0231,-0.9431,0.0,0.0,0.0,0.0,0.0,0.0,0.0,0.0,0.0,0.0,0.0,0.0,0.0,0.0,0.0,0.0,0.0,0.0,0.0,0.0,0.0,0.0,0.0,0.0,0.0,0.0,0.0,0.0,0.0,0.0,0.0,0.0,0.0,0.0,0.0,0.0,0.0,0.0,0.0,0.0,0.0,0.0,0.0,0.0,0.0,0.0,0.0,0.0,0.0,0.0,0.0,0.0,0.0,0.0,0.0,0.0,0.0,0.0,0.0,0.0,0.0,0.0,0.0,0.0,0.0,0.0,0.0,0.0,0.0,0.0,0.0,0.0,0.0,0.0,0.0,0.0,0.0,0.0,0.0,0.0,0.0,0.0,0.0,0.0,0.0,0.0,0.0,0.0,0.0,0.0,0.0,0.0,0.0,0.0,0.0,0.0,0.0,0.0,0.0,0.0,0.0,0.0,0.0,0.0,0.0,0.0,0.0,0.0,0.0,-0.8308,0.0,-1.0283,0.0,-0.9993,-0.8989,0.0,0.0,0.0,0.0,0.0,0.0,0.0,0.0,0.0,0.0,0.0,0.0,0.0,0.0,0.0,0.0,0.0,0.0,0.0,0.0,0.0,0.0,0.0,0.0,0.0,0.0,0.0,0.0,0.0,0.0,0.0,0.0,0.0,0.0,0.0,0.0,0.0,0.0,0.0,0.0,0.0,0.0,0.0,0.0,0.0,0.0,0.0,0.0,0.0,0.0,0.0,0.0,0.0,0.0,0.0,0.0,0.0,0.0,0.0,0.0,0.0,0.0,0.0,0.0,0.0,0.0,0.0,0.0,0.0,0.0,0.0,0.0,0.0,0.0,0.0,0.0,0.0,0.0,0.0,0.0,0.0,0.0,0.0,0.0,0.0,0.0,0.0,0.0,0.0,0.0,0.0,0.0,0.0,0.0,0.0,0.0,0.0,0.0,0.0,0.0,0.0,0.0,0.0,0.0,0.0,0.0,0.0,0.0,-0.7944,-0.9542,-1.0841,-1.1126,-1.0371,-1.0273,-0.906,0.0,0.0,0.0,0.0,0.0,0.0,0.0,0.0,0.0,0.0,0.0,0.0,0.0,0.0,0.0,0.0,0.0,0.0,0.0,0.0,0.0,0.0,0.0,0.0,0.0,0.0,0.0,0.0,0.0,0.0,0.0,0.0,0.0,0.0,0.0,0.0,0.0,0.0,0.0,0.0,0.0,0.0,0.0,0.0,0.0,0.0,0.0,0.0,0.0,0.0,0.0,0.0,0.0,0.0,0.0,0.0,0.0,0.0,0.0,0.0,0.0,0.0,0.0,0.0,0.0,0.0,0.0,0.0,0.0,0.0,0.0,0.0,0.0,0.0,0.0,0.0,0.0,0.0,0.0,0.0,0.0,0.0,0.0,0.0,0.0,0.0,0.0,0.0,0.0,0.0,0.0,0.0,0.0,0.0,0.0,0.0,0.0,0.0,0.0,0.0,0.0,0.0,0.0,0.0,0.0,0.0,0.0,0.0,0.0,-0.9201,-1.0185,-1.1007,-1.1511,-0.9893,-0.9021,0.0,0.0,0.0,0.0,0.0,0.0,0.0,0.0,0.0,0.0,0.0,0.0,0.0,0.0,0.0,0.0,0.0,0.0,0.0,0.0,0.0,0.0,0.0,0.0,0.0,0.0,0.0,0.0,0.0,0.0,0.0,0.0,0.0,0.0,0.0,0.0,0.0,0.0,0.0,0.0,0.0,0.0,0.0,0.0,0.0,0.0,0.0,0.0,0.0,0.0,0.0,0.0,0.0,0.0,0.0,0.0,0.0,0.0,0.0,0.0,0.0,0.0,0.0,0.0,0.0,0.0,0.0,0.0,0.0,0.0,0.0,0.0,0.0,0.0,0.0,0.0,0.0,0.0,0.0,0.0,0.0,0.0,0.0,0.0,0.0,0.0,0.0,0.0,0.0,0.0,0.0,0.0,0.0,0.0,0.0,0.0,0.0,0.0,0.0,0.0,0.0,0.0,0.0,0.0,0.0,0.0,0.0,0.0,0.0,-1.0896,-1.1436,-1.1953,-1.2437,-1.0742,-0.9745,-0.9559,0.0,0.0,0.0,0.0,0.0,0.0,0.0,0.0,0.0,0.0,0.0,0.0,0.0,0.0,0.0,0.0,0.0,0.0,0.0,0.0,0.0,0.0,0.0,0.0,0.0,0.0,0.0,0.0,0.0,0.0,0.0,0.0,0.0,0.0,0.0,0.0,0.0,0.0,0.0,0.0,0.0,0.0,0.0,0.0,0.0,0.0,0.0,0.0,0.0,0.0,0.0,0.0,0.0,0.0,0.0,0.0,0.0,0.0,0.0,0.0,0.0,0.0,0.0,0.0,0.0,0.0,0.0,0.0,0.0,0.0,0.0,0.0,0.0,0.0,0.0,0.0,0.0,0.0,0.0,0.0,0.0,0.0,0.0,0.0,0.0,0.0,0.0,0.0,0.0,0.0,0.0,0.0,0.0,0.0,0.0,0.0,0.0,0.0,0.0,0.0,0.0,0.0,0.0,0.0,0.0,0.0,0.0,0.0,-1.415,-1.4311,-1.4023,-1.3193,-1.2627,-1.1151,0.0,0.0,0.0,0.0,0.0,0.0,0.0,0.0,0.0,0.0,0.0,0.0,0.0,0.0,0.0,0.0,0.0,0.0,0.0,0.0,0.0,0.0,0.0,0.0,0.0,0.0,0.0,0.0,0.0,0.0,0.0,0.0,0.0,0.0,0.0,0.0,0.0,0.0,0.0,0.0,0.0,0.0,0.0,0.0,0.0,0.0,0.0,0.0,0.0,0.0,0.0,0.0,0.0,0.0,0.0,0.0,0.0,0.0,0.0,0.0,0.0,0.0,0.0,0.0,0.0,0.0,0.0,0.0,0.0,0.0,0.0,0.0,0.0,0.0,0.0,0.0,0.0,0.0,0.0,0.0,0.0,0.0,0.0,0.0,0.0,0.0,0.0,0.0,0.0,0.0,0.0,0.0,0.0,0.0,0.0,0.0,0.0,0.0,0.0,0.0,0.0,0.0,0.0,0.0,0.0,0.0,0.0,0.0,0.0,-1.5219,-1.7037,-1.7383,-1.6221,-1.4513,-1.2796,0.0,0.0,0.0,0.0,0.0,0.0,0.0,0.0,0.0,0.0,0.0,0.0,0.0,0.0,0.0,0.0,0.0,0.0,0.0,0.0,0.0,0.0,0.0,0.0,0.0,0.0,0.0,0.0,0.0,0.0,0.0,0.0,0.0,0.0,0.0,0.0,0.0,0.0,0.0,0.0,0.0,0.0,0.0,0.0,0.0,0.0,0.0,0.0,0.0,0.0,0.0,0.0,0.0,0.0,0.0,0.0,0.0,0.0,0.0,0.0,0.0,0.0,0.0,0.0,0.0,0.0,0.0,0.0,0.0,0.0,0.0,0.0,0.0,0.0,0.0,0.0,0.0,0.0,0.0,0.0,0.0,0.0,0.0,0.0,0.0,0.0,0.0,0.0,0.0,0.0,0.0,0.0,0.0,0.0,0.0,0.0,0.0,0.0,0.0,0.0,0.0,0.0,0.0,0.0,0.0,0.0,0.0,0.0,-1.4252,-1.6864,-1.9211,-2.0067,-1.9323,-1.6826,-1.4322,0.0,0.0,0.0,0.0,0.0,0.0,0.0,0.0,0.0,0.0,0.0,0.0,0.0,0.0,0.0,0.0,0.0,0.0,0.0,0.0,0.0,0.0,0.0,0.0,0.0,0.0,0.0,0.0,0.0,0.0,0.0,0.0,0.0,0.0,0.0,0.0,0.0,0.0,0.0,0.0,0.0,0.0,0.0,0.0,0.0,0.0,0.0,0.0,0.0,0.0,0.0,0.0,0.0,0.0,0.0,0.0,0.0,0.0,0.0,0.0,0.0,0.0,0.0,0.0,0.0,0.0,0.0,0.0,0.0,0.0,0.0,0.0,0.0,0.0,0.0,0.0,0.0,0.0,0.0,0.0,0.0,0.0,0.0,0.0,0.0,0.0,0.0,0.0,0.0,0.0,0.0,0.0,0.0,0.0,0.0,0.0,0.0,0.0,0.0,0.0,0.0,0.0,0.0,0.0,0.0,0.0,0.0,0.0,-1.5707,-1.8505,-2.083,-2.1973,-2.1848,-1.9043,-1.5694,0.0,0.0,0.0,0.0,0.0,0.0,0.0,0.0,0.0,0.0,0.0,0.0,0.0,0.0,0.0,0.0,0.0,0.0,0.0,0.0,0.0,0.0,0.0,0.0,0.0,0.0,0.0,0.0,0.0,0.0,0.0,0.0,0.0,0.0,0.0,0.0,0.0,0.0,0.0,0.0,0.0,0.0,0.0,0.0,0.0,0.0,0.0,0.0,0.0,0.0,0.0,0.0,0.0,0.0,0.0,0.0,0.0,0.0,0.0,0.0,0.0,0.0,0.0,0.0,0.0,0.0,0.0,0.0,0.0,0.0,0.0,0.0,0.0,0.0,0.0,0.0,0.0,0.0,0.0,0.0,0.0,0.0,0.0,0.0,0.0,0.0,0.0,0.0,0.0,0.0,0.0,0.0,0.0,0.0,0.0,0.0,0.0,0.0,0.0,0.0,0.0,0.0,0.0,0.0,0.0,0.0,0.0,0.0,-1.6248,-1.8321,-2.1296,-2.2559,-2.1894,-1.96,-1.6878,0.0,0.0,0.0,0.0,0.0,0.0,0.0,0.0,0.0,0.0,0.0,0.0,0.0,0.0,0.0,0.0,0.0,0.0,0.0,0.0,0.0,0.0,0.0,0.0,0.0,0.0,0.0,0.0,0.0,0.0,0.0,0.0,0.0,0.0,0.0,0.0,0.0,0.0,0.0,0.0,0.0,0.0,0.0,0.0,0.0,0.0,0.0,0.0,-1.1031,0.0,0.0,0.0,0.0,0.0,0.0,0.0,0.0,0.0,0.0,0.0,0.0,0.0,0.0,0.0,0.0,0.0,0.0,0.0,0.0,0.0,0.0,0.0,0.0,0.0,0.0,0.0,0.0,0.0,0.0,0.0,0.0,0.0,0.0,0.0,0.0,0.0,0.0,0.0,0.0,0.0,0.0,0.0,0.0,0.0,0.0,0.0,0.0,0.0,0.0,0.0,0.0,0.0,0.0,0.0,0.0,0.0,0.0,0.0,-1.7356,-1.963,-2.191,-2.2789,-2.2148,-2.0264,-1.7798,0.0,0.0,0.0,0.0,0.0,0.0,0.0,0.0,0.0,0.0,0.0,0.0,0.0,0.0,0.0,0.0,0.0,0.0,0.0,0.0,0.0,0.0,0.0,0.0,0.0,0.0,0.0,0.0,0.0,0.0,0.0,0.0,0.0,0.0,0.0,0.0,0.0,0.0,0.0,0.0,0.0,0.0,0.0,0.0,0.0,0.0,0.0,0.0,0.0,0.0,0.0,0.0,0.0,0.0,0.0,0.0,0.0,0.0,0.0,0.0,0.0,0.0,0.0,0.0,0.0,0.0,0.0,0.0,0.0,0.0,0.0,0.0,0.0,0.0,0.0,0.0,0.0,0.0,0.0,0.0,0.0,0.0,0.0,0.0,0.0,0.0,0.0,0.0,0.0,0.0,0.0,0.0,0.0,0.0,0.0,0.0,0.0,0.0,0.0,0.0,0.0,0.0,0.0,0.0,0.0,0.0,0.0,-1.5551,-1.8308,-2.1179,-2.2477,-2.2896,-2.25,-2.0781,-1.8473,-1.548,0.0,0.0,0.0,0.0,0.0,0.0,0.0,0.0,0.0,0.0,0.0,0.0,0.0,0.0,0.0,0.0,0.0,0.0,0.0,0.0,0.0,0.0,0.0,0.0,0.0,0.0,0.0,0.0,0.0,0.0,0.0,0.0,0.0,0.0,0.0,0.0,0.0,0.0,-0.7238,-0.9048,0.0,0.0,0.0,0.0,0.0,0.0,0.0,0.0,-1.1412,0.0,0.0,0.0,0.0,0.0,0.0,0.0,0.0,0.0,0.0,0.0,0.0,0.0,0.0,0.0,0.0,0.0,0.0,0.0,0.0,0.0,0.0,0.0,0.0,0.0,0.0,0.0,0.0,0.0,0.0,0.0,0.0,0.0,0.0,0.0,0.0,0.0,0.0,0.0,0.0,0.0,0.0,0.0,0.0,0.0,0.0,0.0,0.0,0.0,0.0,0.0,0.0,0.0,0.0,0.0,0.0,-1.39,-1.5571,-1.8139,-2.1668,-2.2666,-2.2896,-2.249,-2.082,-1.8607,-1.5875,0.0,0.0,0.0,0.0,0.0,0.0,0.0,0.0,0.0,0.0,0.0,0.0,0.0,0.0,0.0,0.0,0.0,0.0,0.0,0.0,0.0,0.0,0.0,0.0,0.0,0.0,0.0,0.0,0.0,0.0,0.0,0.0,0.0,0.0,0.0,0.0,0.0,0.0,0.0,-1.0462,-1.1827,0.0,0.0,0.0,0.0,0.0,0.0,0.0,0.0,-1.1658,0.0,0.0,0.0,0.0,0.0,0.0,0.0,0.0,0.0,0.0,0.0,0.0,0.0,0.0,0.0,0.0,0.0,0.0,0.0,0.0,0.0,0.0,0.0,0.0,0.0,0.0,0.0,0.0,0.0,0.0,0.0,0.0,0.0,0.0,0.0,0.0,0.0,0.0,0.0,0.0,0.0,0.0,0.0,0.0,0.0,0.0,0.0,0.0,0.0,0.0,0.0,0.0,0.0,0.0,0.0,-1.4903,-1.6908,-1.9352,-2.2379,-2.2886,-2.2789,-2.2168,-2.0245,-1.7913,0.0,0.0,0.0,0.0,0.0,0.0,0.0,0.0,0.0,0.0,0.0,0.0,0.0,0.0,0.0,0.0,0.0,0.0,0.0,0.0,0.0,0.0,0.0,0.0,0.0,0.0,0.0,0.0,0.0,0.0,0.0,0.0,0.0,0.0,0.0,0.0,0.0,0.0,0.0,0.0,-1.1045,-1.2163,-1.2814,0.0,0.0,0.0,0.0,0.0,0.0,-1.2415,-1.2395,0.0,0.0,0.0,0.0,0.0,0.0,0.0,0.0,0.0,0.0,0.0,0.0,0.0,0.0,0.0,0.0,0.0,0.0,0.0,0.0,0.0,0.0,0.0,0.0,0.0,0.0,0.0,0.0,0.0,0.0,0.0,0.0,0.0,0.0,0.0,0.0,0.0,0.0,0.0,0.0,0.0,0.0,0.0,0.0,0.0,0.0,0.0,0.0,0.0,0.0,0.0,0.0,0.0,0.0,0.0,-1.5824,-1.8068,-2.0449,-2.2955,-2.3013,-2.2646,-2.1885,-1.9728,-1.719,0.0,0.0,0.0,0.0,0.0,0.0,0.0,0.0,0.0,0.0,0.0,0.0,0.0,0.0,0.0,0.0,0.0,0.0,0.0,0.0,0.0,0.0,0.0,0.0,0.0,0.0,0.0,0.0,0.0,0.0,0.0,0.0,0.0,0.0,0.0,0.0,0.0,0.0,0.0,0.0,0.0,-1.2653,-1.3831,-1.3273,0.0,0.0,0.0,0.0,-1.1973,-1.2771,0.0,0.0,0.0,0.0,0.0,0.0,0.0,0.0,0.0,0.0,0.0,0.0,0.0,0.0,0.0,0.0,0.0,0.0,0.0,0.0,0.0,0.0,0.0,0.0,0.0,0.0,0.0,0.0,0.0,0.0,0.0,0.0,0.0,0.0,0.0,0.0,0.0,0.0,0.0,0.0,0.0,0.0,0.0,0.0,0.0,0.0,0.0,0.0,0.0,0.0,0.0,0.0,0.0,0.0,0.0,0.0,-1.5787,-1.7745,-2.0118,-2.2896,-2.274,-2.2353,-2.1875,-1.9738,-1.7091,0.0,0.0,0.0,0.0,0.0,0.0,0.0,0.0,0.0,0.0,0.0,0.0,0.0,0.0,0.0,0.0,0.0,0.0,0.0,0.0,0.0,0.0,0.0,0.0,0.0,0.0,0.0,0.0,0.0,0.0,0.0,0.0,0.0,0.0,0.0,0.0,0.0,0.0,0.0,0.0,0.0,-1.383,-1.3685,-1.3149,-1.2706,0.0,0.0,0.0,-1.2297,-1.2783,0.0,0.0,0.0,0.0,0.0,0.0,0.0,0.0,0.0,0.0,0.0,0.0,0.0,0.0,0.0,0.0,0.0,0.0,0.0,0.0,0.0,0.0,0.0,0.0,0.0,0.0,0.0,0.0,0.0,0.0,0.0,0.0,0.0,0.0,0.0,0.0,0.0,0.0,0.0,0.0,0.0,0.0,0.0,0.0,0.0,0.0,0.0,0.0,0.0,0.0,0.0,0.0,0.0,0.0,0.0,-1.2952,-1.5971,-1.8459,-2.0723,-2.2643,-2.2607,-2.2314,-2.1894,-1.9036,-1.6491,0.0,0.0,0.0,0.0,0.0,0.0,0.0,0.0,0.0,0.0,0.0,0.0,0.0,0.0,0.0,0.0,0.0,0.0,0.0,0.0,0.0,0.0,0.0,0.0,0.0,0.0,0.0,0.0,0.0,0.0,0.0,0.0,0.0,0.0,0.0,0.0,0.0,0.0,0.0,0.0,0.0,0.0,-1.3436,-1.3935,0.0,0.0,0.0,-1.2979,-1.227,0.0,0.0,0.0,0.0,0.0,0.0,0.0,0.0,0.0,0.0,0.0,0.0,0.0,0.0,0.0,0.0,0.0,0.0,0.0,0.0,0.0,0.0,0.0,0.0,0.0,0.0,0.0,0.0,0.0,0.0,0.0,0.0,0.0,0.0,0.0,0.0,0.0,0.0,0.0,0.0,0.0,0.0,0.0,0.0,0.0,0.0,0.0,0.0,0.0,0.0,0.0,0.0,0.0,0.0,0.0,0.0,0.0,-1.6095,-1.8961,-2.1035,-2.2295,-2.2246,-2.2041,-2.168,-1.8682,0.0,0.0,0.0,0.0,0.0,0.0,0.0,0.0,0.0,0.0,0.0,0.0,0.0,0.0,0.0,0.0,0.0,0.0,0.0,0.0,0.0,0.0,0.0,0.0,0.0,0.0,0.0,-0.5683,0.0,0.0,0.0,0.0,0.0,0.0,0.0,0.0,0.0,0.0,0.0,0.0,0.0,0.0,-1.4234,-1.3688,-1.4786,-1.512,0.0,0.0,-1.3461,-1.2459,-1.3612,-1.3797,0.0,0.0,0.0,0.0,0.0,0.0,0.0,0.0,0.0,0.0,0.0,0.0,0.0,0.0,0.0,0.0,0.0,0.0,0.0,0.0,0.0,0.0,0.0,0.0,0.0,0.0,0.0,0.0,0.0,0.0,0.0,0.0,0.0,0.0,0.0,0.0,0.0,0.0,0.0,0.0,0.0,0.0,0.0,0.0,0.0,0.0,0.0,0.0,0.0,0.0,0.0,0.0,0.0,0.0,0.0,-1.6095,-1.8633,-2.0605,-2.1865,-2.1523,-2.1268,-2.121,-1.9065,-1.686,0.0,0.0,0.0,0.0,0.0,0.0,0.0,0.0,0.0,0.0,0.0,0.0,0.0,0.0,0.0,0.0,0.0,0.0,0.0,0.0,0.0,0.0,0.0,0.0,0.0,0.0,0.0,0.0,0.0,0.0,0.0,0.0,0.0,0.0,0.0,0.0,0.0,0.0,0.0,0.0,0.0,-1.5434,-1.4773,-1.5532,-1.586,0.0,0.0,-1.2594,-1.305,-1.3682,-1.3432,-1.1357,0.0,0.0,0.0,0.0,0.0,0.0,0.0,0.0,0.0,0.0,0.0,0.0,0.0,0.0,0.0,0.0,0.0,0.0,0.0,0.0,0.0,0.0,0.0,0.0,0.0,0.0,0.0,0.0,0.0,0.0,0.0,0.0,0.0,0.0,0.0,0.0,0.0,0.0,0.0,0.0,0.0,0.0,0.0,0.0,0.0,0.0,0.0,0.0,0.0,0.0,0.0,0.0,0.0,-1.3794,-1.6085,-1.8903,-2.083,-2.1826,-2.1719,-2.1631,-2.1641,-1.9277,-1.7216,0.0,0.0,0.0,0.0,0.0,0.0,0.0,0.0,0.0,0.0,0.0,0.0,0.0,0.0,0.0,0.0,0.0,0.0,0.0,0.0,0.0,0.0,0.0,0.0,0.0,0.0,0.0,0.0,-0.8994,-0.9372,-0.8839,0.0,0.0,0.0,0.0,0.0,0.0,0.0,0.0,0.0,0.0,-1.6208,-1.5247,-1.6205,0.0,0.0,-1.413,-1.3687,-1.3741,-1.3781,-1.3293,-1.1777,-1.1176,0.0,0.0,0.0,0.0,0.0,0.0,0.0,0.0,0.0,0.0,0.0,0.0,0.0,0.0,0.0,0.0,0.0,0.0,0.0,0.0,0.0,0.0,0.0,0.0,0.0,0.0,0.0,0.0,0.0,0.0,0.0,0.0,0.0,0.0,0.0,0.0,0.0,0.0,0.0,0.0,0.0,0.0,0.0,0.0,0.0,0.0,0.0,0.0,0.0,0.0,0.0,0.0,-1.3907,-1.626,-1.9147,-2.0996,-2.1865,-2.1758,-2.1689,-2.1631,-1.9551,-1.7783,0.0,0.0,0.0,0.0,0.0,0.0,0.0,0.0,0.0,0.0,0.0,0.0,0.0,0.0,0.0,0.0,0.0,0.0,0.0,0.0,0.0,0.0,0.0,0.0,0.0,0.0,0.0,0.0,-0.9756,-0.9705,-0.8748,0.0,0.0,0.0,0.0,0.0,0.0,0.0,0.0,0.0,0.0,-1.6684,-1.5738,-1.647,-1.6669,-1.5323,-1.4557,-1.4326,-1.4908,-1.42,-1.3346,-1.2565,0.0,0.0,0.0,0.0,0.0,0.0,0.0,0.0,0.0,0.0,0.0,0.0,0.0,0.0,0.0,0.0,0.0,0.0,0.0,0.0,0.0,0.0,0.0,0.0,0.0,0.0,0.0,0.0,0.0,0.0,-0.7715,0.0,0.0,0.0,0.0,0.0,0.0,0.0,0.0,0.0,0.0,0.0,0.0,0.0,0.0,0.0,0.0,0.0,0.0,0.0,0.0,0.0,0.0,0.0,-1.6677,-1.9277,-2.1045,-2.1846,-2.1475,-2.1249,-2.12,-1.9961,-1.8652,-1.7376,0.0,0.0,0.0,0.0,0.0,0.0,0.0,0.0,0.0,0.0,0.0,0.0,0.0,0.0,0.0,0.0,0.0,0.0,0.0,0.0,0.0,0.0,0.0,0.0,0.0,0.0,-0.8477,-0.9153,-0.9168,0.0,0.0,0.0,0.0,0.0,0.0,0.0,0.0,0.0,0.0,-1.599,-1.6901,-1.6385,-1.6337,-1.6523,-1.6557,-1.4705,-1.4137,-1.6561,-1.5097,-1.3606,0.0,0.0,0.0,0.0,0.0,0.0,0.0,0.0,0.0,0.0,0.0,0.0,0.0,0.0,0.0,0.0,0.0,0.0,0.0,0.0,0.0,0.0,0.0,0.0,0.0,0.0,0.0,-1.1475,-1.0928,0.0,0.0,0.0,0.0,0.0,0.0,0.0,0.0,0.0,0.0,0.0,-1.6902,-1.7334,0.0,0.0,0.0,0.0,0.0,0.0,0.0,0.0,0.0,0.0,0.0,0.0,-1.4354,-1.7126,-1.9707,-2.1435,-2.2266,-2.2168,-2.1953,-2.167,-2.0674,-1.903,-1.6604,0.0,0.0,0.0,0.0,0.0,0.0,0.0,0.0,0.0,0.0,0.0,0.0,0.0,0.0,0.0,0.0,0.0,0.0,0.0,0.0,0.0,0.0,0.0,0.0,0.0,-0.9203,0.0,0.0,0.0,0.0,0.0,0.0,0.0,0.0,0.0,0.0,0.0,-1.3715,-1.5688,-1.7692,-1.8653,-1.7797,-1.8561,-1.8831,0.0,0.0,0.0,0.0,0.0,0.0,0.0,0.0,0.0,0.0,0.0,0.0,0.0,0.0,-1.3621,-1.1812,-1.1343,-1.1309,-1.1403,0.0,0.0,0.0,0.0,0.0,0.0,0.0,0.0,0.0,0.0,0.0,0.0,0.0,0.0,-1.4365,0.0,-1.316,0.0,0.0,0.0,0.0,0.0,0.0,0.0,0.0,-1.7345,-1.9075,-1.9775,-2.0205,-2.0176,0.0,-1.888,-1.6863,0.0,0.0,0.0,0.0,0.0,0.0,0.0,0.0,-1.506,-1.7789,-2.0323,-2.198,-2.2685,-2.2545,-2.2314,-2.1885,-2.0879,-1.9382,-1.7288,-1.5684,-1.4326,0.0,0.0,0.0,0.0,0.0,0.0,0.0,0.0,0.0,0.0,0.0,0.0,0.0,0.0,0.0,0.0,0.0,0.0,0.0,0.0,0.0,0.0,0.0,-1.0012,0.0,0.0,0.0,0.0,0.0,0.0,0.0,0.0,0.0,-1.3338,-1.4625,-1.614,-1.7648,-1.8918,-1.9277,-1.8124,0.0,0.0,0.0,0.0,0.0,0.0,0.0,-1.4902,-1.5439,-1.4573,-1.4021,-1.4596,-1.5251,-1.5538,-1.5095,0.0,0.0,-1.3581,-1.3153,-1.3106,-1.3206,-1.3387,-1.3487,-1.338,-1.3754,-1.4048,0.0,0.0,0.0,0.0,0.0,0.0,0.0,0.0,-1.7754,-1.7783,0.0,-1.5928,0.0,0.0,0.0,0.0,0.0,0.0,0.0,0.0,-2.0978,-2.2324,-2.2021,-2.2393,-2.2373,-2.2034,-2.1914,-2.1016,-1.9258,-1.6005,0.0,0.0,0.0,0.0,0.0,0.0,-1.5941,-1.865,-2.1161,-2.2715,-2.3062,-2.2744,-2.2334,-2.1885,-2.0644,-1.9756,-1.9277,-1.8057,-1.6662,-1.495,-1.2837,0.0,0.0,0.0,0.0,0.0,0.0,0.0,0.0,0.0,0.0,0.0,0.0,0.0,0.0,0.0,0.0,0.0,0.0,0.0,0.0,-1.04,0.0,0.0,0.0,0.0,0.0,0.0,0.0,0.0,0.0,0.0,-1.6066,-1.7674,-1.9176,-1.9832,0.0,0.0,0.0,0.0,-1.8048,-1.8455,-1.8379,-1.8941,-2.0655,-1.8591,-1.702,-1.7925,0.0,0.0,-1.5965,-1.6126,-1.6079,-1.5276,-1.5839,-1.6219,-1.5905,-1.5124,-1.4689,-1.4968,-1.4646,-1.4322,-1.4556,-1.4917,-1.5156,-2.2539,0.0,0.0,0.0,0.0,-2.0019,-2.0732,-2.2109,-2.173,-2.1437,-2.1123,-1.9627,0.0,0.0,0.0,0.0,0.0,0.0,-1.9307,-2.0012,-2.2019,-2.3379,-2.4206,-2.4277,-2.4323,-2.4186,-2.3535,-2.2998,-2.2441,-2.0889,-1.7773,-1.3286,0.0,0.0,0.0,0.0,-1.7621,-1.9962,-2.166,-2.2715,-2.3091,-2.2974,-2.2617,-2.1904,-2.1221,-2.0498,-1.9756,-1.9092,-1.8096,-1.6711,-1.4891,0.0,0.0,0.0,0.0,0.0,0.0,0.0,0.0,0.0,0.0,0.0,0.0,0.0,0.0,0.0,0.0,0.0,0.0,0.0,-1.0429,-1.0891,-1.1274,0.0,0.0,0.0,0.0,0.0,0.0,0.0,0.0,0.0,-1.9226,-1.9383,-1.9493,0.0,0.0,-2.051,-1.8802,-2.0251,-2.1113,-2.0002,0.0,0.0,0.0,-1.7091,-1.6308,-1.7026,-1.7273,-1.7201,-1.6884,-1.7194,-1.7388,-1.6951,-1.7034,-1.7181,-1.7068,-1.654,-1.6132,-1.6186,-1.6226,-1.6342,-1.6442,-1.6677,-1.6864,-2.6494,-2.4059,-2.2666,-2.25,-2.3105,-2.2871,-2.3633,-2.5029,-2.4434,-2.4316,-2.4443,-2.2812,-2.166,-2.08,-1.8881,0.0,0.0,0.0,-2.1723,-2.2793,-2.3561,-2.4414,-2.5303,-2.5332,-2.5342,-2.5303,-2.4629,-2.4297,-2.4277,-2.3437,-2.1031,-1.7206,0.0,0.0,-1.5475,-1.7234,-1.9042,-2.0781,-2.2109,-2.2847,-2.3091,-2.2935,-2.2568,-2.1914,-2.1465,-2.0859,-2.0205,-1.9766,-1.9023,-1.791,-1.6396,-1.4648,0.0,0.0,0.0,0.0,0.0,0.0,0.0,0.0,0.0,0.0,0.0,-0.8029,0.0,0.0,0.0,0.0,-1.0195,-1.124,-1.2344,-1.2685,0.0,0.0,0.0,0.0,0.0,0.0,0.0,-1.8675,-2.0922,-2.2375,-2.2078,-2.1811,-2.1038,-1.9374,-2.0095,-2.0303,-1.9082,0.0,-2.2039,-2.1358,-2.1726,-2.1652,-2.0263,-1.8788,-1.7751,-1.7288,-1.7515,-1.7702,-1.7555,-1.7816,-1.7929,-1.7675,-1.7589,-1.7589,-1.7589,-1.7288,-1.7054,-1.7061,-1.7188,-1.7367,-1.7373,-1.7514,-1.7589,-2.958,-2.9352,-2.6143,-2.5059,-2.5468,-2.5439,-2.6055,-2.708,-2.6289,-2.6602,-2.7581,-2.5537,-2.458,-2.4404,-2.2467,0.0,0.0,-2.3354,-2.4202,-2.5723,-2.5332,-2.5342,-2.5684,-2.5684,-2.5684,-2.5674,-2.5312,-2.5165,-2.5125,-2.4326,-2.331,-2.208,-2.0226,-1.8863,-1.7998,-1.919,-2.0351,-2.1405,-2.2526,-2.3091,-2.3091,-2.2764,-2.2344,-2.1894,-2.1424,-2.0966,-2.0566,-2.0088,-1.9446,-1.8617,-1.7418,-1.5976,-1.426,0.0,0.0,0.0,0.0,0.0,0.0,0.0,0.0,0.0,0.0,0.0,0.0,0.0,0.0,0.0,-1.3013,0.0,-1.494,-1.5332,0.0,0.0,0.0,-1.7448,-1.7132,-2.0052,-2.1916,-2.1562,0.0,0.0,0.0,0.0,-2.307,-1.983,-1.9386,-1.9342,-1.903,-2.0451,-2.1676,-2.2476,-2.3551,-2.4243,-2.3485,-2.1859,-1.9891,-1.8215,-1.7955,-1.7916,-1.7896,-1.7969,-1.7822,-1.7635,-1.7589,-1.7589,-1.7589,-1.7562,-1.7589,-1.7555,-1.7569,-1.7575,-1.7569,-1.7575,-1.7589,-2.958,-2.9492,-2.8682,-2.8408,-2.853,-2.8144,-2.8184,-2.8408,-2.792,-2.7861,-2.8057,-2.6914,-2.6045,-2.5362,-2.5244,-2.5332,-2.5615,-2.5615,-2.584,-2.6201,-2.5781,-2.5586,-2.5684,-2.5684,-2.5684,-2.5684,-2.5625,-2.5586,-2.5566,-2.5333,-2.4785,-2.3793,-2.3318,-2.2167,-2.0438,-2.1318,-2.2252,-2.3174,-2.3154,-2.3101,-2.3101,-2.2994,-2.2594,-2.1914,-2.1424,-2.083,-2.0098,-1.9658,-1.9189,-1.8607,-1.7734,-1.6592,-1.5166,-1.2964,0.0,0.0,0.0,0.0,0.0,0.0,0.0,0.0,0.0,-1.1066,-0.8581,0.0,-1.2729,0.0,-1.5127,-1.6543,-1.6748,-1.6949,0.0,0.0,-1.924,-1.9723,-2.1368,-2.264,-2.3281,-2.32,-2.4224,-2.4515,-2.3489,-2.3336,-2.2797,-2.131,-2.2289,-2.2742,-2.1895,-2.3083,-2.3801,-2.3142,-2.3487,-2.3492,-2.2464,-2.1008,-1.9457,-1.7979,-1.7702,-1.7695,-1.7695,-1.7689,-1.7662,-1.7595,-1.7589,-1.7589,-1.7602,-1.7589,-1.7595,-1.7589,-1.7589,-1.7589,-1.7589,-1.7589,-1.7589,-3.0213,-3.0156,-3.0156,-2.9998,-2.9551,-2.9316,-2.9209,-2.9189,-2.8955,-2.8857,-2.8818,-2.8164,-2.749,-2.6894,-2.7129,-2.7236,-2.7226,-2.7041,-2.6855,-2.665,-2.6221,-2.5928,-2.5684,-2.5684,-2.5684,-2.5684,-2.5684,-2.5684,-2.5684,-2.5684,-2.544,-2.4962,-2.4953,-2.4307,-2.2998,-2.2842,-2.3037,-2.3496,-2.3218,-2.3188,-2.3418,-2.3188,-2.2594,-2.1641,-2.1327,-2.0596,-1.9394,-1.9121,-1.8623,-1.7789,-1.7311,-1.6582,-1.542,-1.3734,-1.2457,0.0,0.0,0.0,0.0,0.0,0.0,0.0,0.0,0.0,0.0,0.0,-1.4844,0.0,-1.7519,0.0,-1.9082,-1.9505,-2.0397,-2.1885,-2.1864,-2.2337,-2.3842,-2.456,-2.4941,-2.4951,-2.5361,-2.547,-2.4876,-2.4646,-2.4436,-2.4101,-2.4956,-2.4929,-2.3519,-2.3929,-2.4359,-2.4223,-2.3901,-2.2976,-2.1092,-2.0135,-1.9175,-1.8068,-1.7789,-1.7829,-1.7963,-1.7989,-1.7983,-1.7983,-1.7983,-1.7989,-1.7989,-1.7983,-1.7989,-1.7983,-1.7983,-1.7889,-1.7642,-1.7589,-1.7589,-3.0898,-3.0898,-3.0898,-3.0449,-2.9746,-2.9792,-2.9646,-2.9381,-2.9268,-2.9362,-2.944,-2.9121,-2.8769,-2.8379,-2.8369,-2.835,-2.8262,-2.7904,-2.7432,-2.7002,-2.6582,-2.6162,-2.5693,-2.5684,-2.5684,-2.5684,-2.5684,-2.5684,-2.5684,-2.5684,-2.5654,-2.5615,-2.5606,-2.542,-2.4951,-2.3867,-2.3227,-2.3188,-2.3227,-2.3437,-2.3691,-2.3281,-2.2409,-2.1181,-2.1005,-2.0186,-1.8617,-1.8471,-1.7935,-1.6863,-1.6775,-1.6434,-1.5654,-1.4502,-1.3809,0.0,-1.2705,0.0,0.0,0.0,0.0,0.0,0.0,0.0,0.0,-1.6599,-1.7574,-1.8359,-2.0018,-2.1143,-2.1523,-2.2334,-2.3135,-2.3867,-2.4326,-2.4736,-2.5184,-2.584,-2.6309,-2.6299,-2.6357,-2.6533,-2.6746,-2.665,-2.6611,-2.6722,-2.6793,-2.6189,-2.4618,-2.4271,-2.4746,-2.5742,-2.4876,-2.3474,-2.1,-2.0149,-1.9627,-1.8468,-1.8049,-1.8196,-1.8417,-1.8464,-1.8477,-1.8477,-1.845,-1.8464,-1.849,-1.8477,-1.8477,-1.845,-1.8444,-1.829,-1.7876,-1.7756,-1.7695,-3.0898,-3.0898,-3.0898,-3.0791,-3.0635,-3.0635,-2.9639,-2.8061,-2.7656,-2.7891,-2.8564,-2.918,-2.9199,-2.8809,-2.8809,-2.8613,-2.8271,-2.7861,-2.7432,-2.7002,-2.6592,-2.6152,-2.5703,-2.5684,-2.5684,-2.5684,-2.5684,-2.5684,-2.5684,-2.5684,-2.5557,-2.5243,-2.5195,-2.4971,-2.456,0.0,0.0,0.0,-2.3958,-2.3887,-2.3227,-2.2799,-2.2021,-2.0772,-2.0019,0.0,-1.8149,-1.7803,-1.751,-1.7275,-1.7256,0.0,0.0,0.0,0.0,0.0,0.0,0.0,0.0,0.0,0.0,0.0,-1.8213,-1.7627,-1.6629,-1.8841,-2.0411,-2.0615,-2.2187,-2.3213,-2.331,-2.4072,-2.4695,-2.4861,-2.5225,-2.5469,-2.5567,-2.5771,-2.581,-2.581,-2.6172,-2.6416,-2.6543,-2.6719,-2.6924,-2.7041,-2.7012,-2.6841,-2.6432,-2.6273,-2.6435,-2.6666,-2.6285,-2.5214,-2.2542,-2.1981,-2.0971,-1.9146,-1.841,-1.8437,-1.8504,-1.8517,-1.8504,-1.8517,-1.8497,-1.851,-1.851,-1.8497,-1.8531,-1.8497,-1.8504,-1.8457,-1.8343,-1.8317,-1.8317,-3.1804,0.0,-3.0898,-3.0644,0.0,-3.0234,-2.9375,-2.8018,-2.8662,-2.9043,-2.9258,-2.9687,-2.9639,-2.9209,-2.8799,-2.8496,-2.8262,-2.7627,-2.7119,-2.6689,-2.6484,-2.6162,-2.5684,-2.5684,-2.5684,-2.5684,-2.5684,-2.5684,-2.5684,-2.5684,-2.5577,-2.5391,-2.54,-2.5293,-2.5078,-2.5021,-2.4853,-2.4424,-2.4424,-2.4307,-2.4082,-2.3467,-2.2627,-2.1553,0.0,0.0,0.0,0.0,0.0,0.0,0.0,0.0,0.0,0.0,0.0,-1.7607,-1.7637,-1.7822,-1.8296,-1.8691,-1.9414,-2.0478,-2.1152,-2.0967,-1.965,-2.1377,-2.2676,-2.3096,-2.3935,-2.4512,-2.4746,-2.5146,-2.54,-2.541,-2.5557,-2.5684,-2.5684,-2.5684,-2.5771,-2.6035,-2.625,-2.6533,-2.6973,-2.7187,-2.7422,-2.7607,-2.7646,-2.7627,-2.7598,-2.7275,-2.6798,-2.6153,-2.5999,-2.5237,-2.3271,-2.21,-2.1488,-2.0053,-1.9194,-1.8827,-1.8905,-1.8918,-1.8925,-1.8925,-1.8925,-1.8925,-1.8925,-1.8925,-1.8925,-1.8925,-1.8925,-1.8925,-1.8911,-1.8698,-1.8497,-3.237,-3.0898,-3.0898,-3.0469,-2.9805,-2.9861,-2.9404,-2.8838,0.0,0.0,0.0,-3.0244,-3.0078,-2.9639,-2.8935,-2.8584,-2.8467,-2.7705,-2.7119,-2.6719,-2.6562,-2.6269,-2.581,-2.5732,-2.5684,-2.5684,-2.5684,-2.5684,-2.5684,-2.5684,-2.5684,-2.5684,-2.5684,-2.5684,-2.5684,-2.5684,-2.5557,-2.5185,-2.4756,-2.4668,-2.4922,-2.4189,-2.334,-2.2422,-2.16,-2.0615,-1.9453,-1.9053,-1.8545,-1.7881,-1.7944,-1.814,-1.8437,-1.8535,-1.9007,-2.0011,-2.0215,-2.0478,-2.1026,-2.1367,-2.1785,-2.2402,-2.3418,-2.3721,-2.3008,-2.3613,-2.4336,-2.5127,-2.5233,-2.5332,-2.5654,-2.5684,-2.5684,-2.5684,-2.5684,-2.5684,-2.5693,-2.5771,-2.6006,-2.6328,-2.6533,-2.6916,-2.7581,-2.7767,-2.7943,-2.8193,-2.8223,-2.8301,-2.8213,-2.7705,-2.6995,-2.6134,-2.6057,-2.5283,-2.3696,-2.2379,-2.1377,-2.12,-1.9935,-1.9149,-1.9292,-1.9424,-1.9424,-1.9377,-1.9424,-1.9403,-1.941,-1.9383,-1.9424,-1.9424,-1.9424,-1.9424,-1.9383,-1.9048,-1.8691,-3.1171,-3.0898,-3.0898,-3.082,-3.0703,-3.0703,-3.0635,-3.0488,-2.999,-2.9717,-2.9763,-3.0469,-3.0537,-3.0107,-2.998,-2.9726,-2.9365,-2.8877,-2.8428,0.0,-2.7275,-2.6709,-2.6279,-2.5908,-2.5684,-2.5684,-2.5684,-2.5684,-2.5684,-2.5684,-2.5684,-2.5684,-2.5684,-2.5684,-2.5684,-2.5684,-2.5654,-2.5635,-2.5205,-2.4824,-2.4512,-2.4033,-2.3203,-2.2031,-2.1483,-2.0761,-1.9863,-1.9785,-1.9687,-1.957,-1.9922,-2.0184,-2.0253,-2.0557,-2.082,-2.1015,-2.1396,-2.1943,-2.2662,-2.2799,-2.3379,-2.4538,-2.4842,-2.4881,-2.4727,-2.4861,-2.5098,-2.5586,-2.5625,-2.5615,-2.5684,-2.5684,-2.5684,-2.5684,-2.5684,-2.5684,-2.5723,-2.6084,-2.6338,-2.6445,-2.7102,-2.7523,-2.7728,-2.8022,-2.8193,-2.8271,-2.8301,-2.8301,-2.8271,-2.8203,-2.8062,-2.7893,-2.783,-2.7214,-2.5631,-2.4319,-2.2871,-2.173,-2.028,-1.9343,-1.941,-1.9424,-1.9424,-1.9424,-1.9424,-1.9424,-1.9424,-1.9424,-1.9424,-1.9424,-1.9424,-1.9424,-1.9424,-1.9316,-1.9199,-3.2868,-3.1025,-3.0898,-3.0898,-3.0898,-3.0898,-3.0898,-3.0859,-3.0459,-3.0293,-3.0332,-3.0713,-3.0771,-3.0537,-3.0078,-2.9756,-2.9597,-2.8887,-2.8359,-2.7939,-2.7549,-2.7139,-2.6709,-2.6289,-2.6084,-2.6074,-2.5791,-2.5684,-2.5684,-2.5684,-2.5684,-2.5684,-2.5684,-2.5684,-2.5684,-2.5684,-2.5684,-2.5684,-2.5537,-2.5332,-2.5127,-2.4707,-2.4245,-2.3658,-2.2754,-2.2048,-2.1689,-2.123,-2.0986,-2.0986,-2.1182,-2.1427,-2.1611,-2.1816,-2.2129,-2.2588,-2.2812,-2.3193,-2.3744,-2.4053,-2.4443,-2.5067,-2.5293,-2.543,-2.543,-2.543,-2.5518,-2.5664,-2.5684,-2.5684,-2.5684,-2.5684,-2.5684,-2.5684,-2.5888,-2.6084,-2.6133,-2.6475,-2.6807,-2.706,-2.7474,-2.7744,-2.7978,-2.8174,-2.8291,-2.8301,-2.8301,-2.8301,-2.8301,-2.8301,-2.8301,-2.8291,-2.8291,-2.7663,-2.6327,-2.482,-2.3319,-2.187,-2.0371,-1.9533,-1.9424,-1.9424,-1.9424,-1.9424,-1.9424,-1.9424,-1.9424,-1.9424,-1.9424,-1.9424,-1.9424,-1.9424,-1.9424,-1.9424,-1.9424,-3.3786,-3.0957,-3.0898,-3.0898,-3.0898,-3.0898,-3.0898,-3.0898,-3.0889,-3.0898,-3.0898,-3.0898,-3.0898,-3.082,-3.0166,-2.9873,-2.9766,-2.9072,-2.8506,-2.8158,-2.7943,-2.7578,-2.7148,-2.6728,-2.6484,-2.6367,-2.6045,-2.583,-2.5693,-2.5684,-2.5684,-2.5684,-2.5684,-2.5684,-2.5684,-2.5684,-2.5684,-2.5684,-2.5684,-2.5684,-2.5674,-2.54,-2.5176,-2.5047,-2.4102,-2.3535,-2.3418,-2.2812,-2.2451,-2.2461,-2.2451,-2.2607,-2.291,-2.2939,-2.3242,-2.3848,-2.3926,-2.4121,-2.4541,-2.4971,-2.5215,-2.5225,-2.5537,-2.5684,-2.5684,-2.5684,-2.5684,-2.5684,-2.5684,-2.5684,-2.5684,-2.5684,-2.5684,-2.5703,-2.6133,-2.6348,-2.6426,-2.6846,-2.7275,-2.7669,-2.7796,-2.7949,-2.8203,-2.8301,-2.8301,-2.8301,-2.8301,-2.8301,-2.8301,-2.8301,-2.8301,-2.8301,-2.8301,-2.7726,-2.6327,-2.482,-2.3319,-2.1805,-2.0364,-1.9591,-1.9424,-1.9424,-1.9424,-1.9424,-1.9424,-1.9424,-1.9424,-1.9424,-1.9424,-1.9424,-1.9424,-1.9424,-1.9424,-1.9424,-1.9424,-3.1307,-3.0957,-3.0898,-3.0898,-3.0898,-3.0898,-3.0898,-3.0898,-3.0898,-3.0898,-3.0898,-3.0898,-3.0898,-3.0879,-3.0781,-3.0723,-3.0693,-3.0244,-2.9766,-2.9297,-2.8594,-2.8008,-2.7669,-2.7168,-2.6758,-2.6455,-2.6348,-2.6103,-2.5742,-2.5693,-2.5684,-2.5684,-2.5684,-2.5684,-2.5684,-2.5684,-2.5684,-2.5684,-2.5684,-2.5684,-2.5684,-2.5645,-2.5478,-2.5116,-2.4998,-2.4697,-2.4297,-2.4228,-2.418,-2.4189,-2.4131,-2.418,-2.4209,-2.4228,-2.4268,-2.4355,-2.4365,-2.4551,-2.5028,-2.542,-2.5606,-2.5635,-2.5645,-2.5684,-2.5684,-2.5684,-2.5684,-2.5684,-2.5684,-2.5684,-2.5684,-2.5684,-2.5703,-2.5762,-2.6172,-2.6387,-2.6533,-2.7161,-2.7627,-2.7708,-2.7988,-2.8252,-2.8281,-2.8301,-2.8301,-2.8301,-2.8301,-2.8301,-2.8301,-2.8301,-2.8301,-2.8301,-2.8301,-2.7672,-2.6327,-2.482,-2.3431,-2.1926,-2.0422,-1.9649,-1.954,-1.9424,-1.9424,-1.9424,-1.9424,-1.9424,-1.9424,-1.9424,-1.9424,-1.9424,-1.9424,-1.9424,-1.9424,-1.9424,-1.9424,-3.1941,-3.0957,-3.0898,-3.0898,-3.0898,-3.0898,-3.0898,-3.0898,-3.0898,-3.0898,-3.0898,-3.0898,-3.0898,-3.0898,-3.0898,-3.0898,-3.0879,-3.0684,-3.0361,-2.9941,-2.956,-2.9062,-2.8408,-2.7978,-2.7549,-2.7109,-2.6641,-2.6299,-2.6113,-2.582,-2.5684,-2.5684,-2.5684,-2.5684,-2.5684,-2.5684,-2.5684,-2.5684,-2.5684,-2.5684,-2.5684,-2.5684,-2.5606,-2.5459,-2.5215,-2.5037,-2.4795,-2.456,-2.4424,-2.4424,-2.4424,-2.4424,-2.4424,-2.4424,-2.4531,-2.4785,-2.5049,-2.5273,-2.5459,-2.5586,-2.5684,-2.5684,-2.5684,-2.5684,-2.5684,-2.5684,-2.5684,-2.5684,-2.5684,-2.5684,-2.5684,-2.5684,-2.5781,-2.6103,-2.6504,-2.6846,-2.719,-2.7666,-2.8037,-2.8047,-2.8184,-2.8301,-2.8301,-2.8301,-2.8301,-2.8301,-2.8301,-2.8301,-2.8301,-2.8301,-2.8301,-2.8301,-2.8301,-2.7672,-2.6372,-2.5654,-2.4147,-2.2258,-2.1145,-2.0594,-1.9707,-1.9424,-1.9424,-1.9424,-1.9424,-1.9424,-1.9424,-1.9424,-1.9424,-1.9424,-1.9424,-1.9424,-1.9424,-1.9424,-1.9707,-3.3083,-3.1736,-3.1161,-3.0898,-3.0898,-3.0898,-3.0898,-3.0898,-3.0898,-3.0898,-3.0898,-3.0898,-3.0898,-3.0898,-3.0898,-3.0898,-3.0898,-3.0898,-3.0644,-3.0225,-3.0078,-2.9619,-2.8926,-2.8486,-2.8066,-2.7627,-2.7051,-2.6631,-2.6377,-2.5947,-2.5684,-2.5684,-2.5684,-2.5684,-2.5684,-2.5684,-2.5684,-2.5684,-2.5684,-2.5684,-2.5684,-2.5684,-2.5684,-2.5654,-2.542,-2.5244,-2.5234,-2.4951,-2.4729,-2.4785,-2.4775,-2.4785,-2.4775,-2.4775,-2.4922,-2.5225,-2.5547,-2.5684,-2.5684,-2.5684,-2.5684,-2.5684,-2.5684,-2.5684,-2.5684,-2.5684,-2.5684,-2.5684,-2.5684,-2.5684,-2.5684,-2.5684,-2.5928,-2.6348,-2.6768,-2.7187,-2.765,-2.8037,-2.8281,-2.8301,-2.8281,-2.8301,-2.8301,-2.8301,-2.8301,-2.8301,-2.8301,-2.8301,-2.8301,-2.8301,-2.8301,-2.8301,-2.8301,-2.7672,-2.6427,-2.5982,-2.4765,-2.3311,-2.2194,-2.187,-2.0709,-2.0486,-2.004,-2.0429,-1.9873,-1.943,-1.9424,-1.9424,-1.9591,-1.9533,-1.97,-2.0033,-2.0199,-2.0256,-2.1045,-3.3865,-3.3445,-3.1668,-3.0898,-3.0898,-3.0898,-3.0957,-3.1103,-3.0957,-3.0898,-3.1035,-3.0898,-3.0898,-3.0898,-3.0898,-3.0898,-3.0898,-3.0898,-3.0664,-3.0225,-2.9834,-2.9375,-2.8916,-2.8486,-2.8086,-2.7744,-2.763,-2.717,-2.6406,-2.5967,-2.5684,-2.5684,-2.5684,-2.5684,-2.5684,-2.5684,-2.5684,-2.5684,-2.5684,-2.5684,-2.5684,-2.5684,-2.5684,-2.5674,-2.5654,-2.5625,-2.5635,-2.5625,-2.5606,-2.5615,-2.5567,-2.5586,-2.5596,-2.5586,-2.5596,-2.5635,-2.5664,-2.5684,-2.5684,-2.5684,-2.5684,-2.5684,-2.5684,-2.5684,-2.5684,-2.5684,-2.5684,-2.5684,-2.5684,-2.5684,-2.5693,-2.5742,-2.5927,-2.6396,-2.6787,-2.7217,-2.7699,-2.8066,-2.8271,-2.8301,-2.8301,-2.8301,-2.8301,-2.8301,-2.8301,-2.8301,-2.8301,-2.8301,-2.8301,-2.8301,-2.8301,-2.8301,-2.8184,-2.7789,-2.649,-2.6436,-2.5654,-2.4314,-2.3702,-2.3543,-2.3151,-2.2653,-2.1983,-2.1316,-2.0651,-2.0148,-1.9649,-1.9591,-1.9873,-2.0206,-2.1038,-2.1365,-2.1479,-2.271,-2.3375,-3.3458,-3.1941,-3.1229,-3.0898,-3.0898,-3.0898,-3.1648,-3.2643,-3.1453,-3.1658,-3.2438,-3.1512,-3.0898,-3.0898,-3.0898,-3.0898,-3.0898,-3.0898,-3.0801,-3.0596,-3.0185,-2.9746,-2.9326,-2.8896,-2.8476,-2.8086,-2.7836,-2.7278,-2.6465,-2.6221,-2.6006,-2.5723,-2.5684,-2.5684,-2.5684,-2.5684,-2.5684,-2.5684,-2.5684,-2.5684,-2.5684,-2.5684,-2.5684,-2.5684,-2.5684,-2.5684,-2.5684,-2.5684,-2.5684,-2.5684,-2.5684,-2.5684,-2.5684,-2.5684,-2.5684,-2.5684,-2.5684,-2.5684,-2.5684,-2.5684,-2.5684,-2.5684,-2.5684,-2.5684,-2.5684,-2.5684,-2.5684,-2.5684,-2.5684,-2.5684,-2.5752,-2.5986,-2.6328,-2.6748,-2.7168,-2.7578,-2.7969,-2.8213,-2.8301,-2.8301,-2.8301,-2.8301,-2.8301,-2.8301,-2.8301,-2.8301,-2.8301,-2.8301,-2.8301,-2.8301,-2.8301,-2.8301,-2.8291,-2.8121,-2.7726,-2.7565,-2.706,-2.5936,-2.5215,-2.4599,-2.41,-2.371,-2.3039,-2.2983,-2.2153,-2.182,-2.1658,-2.1658,-2.1658,-2.1934,-2.271,-2.2927,-2.2991,-2.3989,-2.4599,-3.48,-3.2117,-3.1872,-3.1444,-3.1015,-3.159,-3.2643,-3.3796,-3.3151,-3.3277,-3.3581,-3.2438,-3.1522,-3.0967,-3.0898,-3.0898,-3.0898,-3.0898,-3.0898,-3.084,-3.0273,-2.9844,-2.9512,-2.8984,-2.8564,-2.8262,-2.7871,-2.7395,-2.6826,-2.6514,-2.623,-2.5967,-2.5781,-2.5684,-2.5684,-2.5684,-2.5684,-2.5684,-2.5684,-2.5684,-2.5684,-2.5684,-2.5684,-2.5684,-2.5684,-2.5684,-2.5684,-2.5684,-2.5684,-2.5684,-2.5684,-2.5684,-2.5684,-2.5684,-2.5684,-2.5684,-2.5684,-2.5684,-2.5684,-2.5684,-2.5684,-2.5684,-2.5684,-2.5684,-2.5684,-2.5684,-2.5684,-2.5684,-2.5693,-2.5723,-2.6006,-2.6338,-2.6699,-2.7012,-2.7402,-2.7885,-2.8223,-2.8291,-2.8301,-2.8301,-2.8301,-2.8301,-2.8301,-2.8301,-2.8301,-2.8301,-2.8301,-2.8301,-2.8301,-2.8301,-2.8301,-2.8301,-2.8301,-2.8291,-2.8067,-2.8014,-2.8014,-2.706,-2.6608,-2.5936,-2.5325,-2.4875,-2.4544,-2.4433,-2.4267,-2.3933,-2.3822,-2.3877,-2.3877,-2.3989,-2.4267,-2.4544,-2.4765,-2.5105,-2.5772,-3.7964,-3.418,-3.3933,-3.2936,-3.1804,-3.3219,-3.3954,-3.46,-3.5905,-3.5542,-3.4374,-3.3865,-3.2574,-3.1229,-3.0898,-3.0898,-3.0898,-3.0898,-3.0898,-3.082,-3.0049,-2.9648,-2.9577,-2.8789,-2.8389,-2.8281,-2.7881,-2.7676,-2.7581,-2.6875,-2.6475,-2.6309,-2.5967,-2.5742,-2.5684,-2.5684,-2.5684,-2.5684,-2.5684,-2.5684,-2.5684,-2.5684,-2.5684,-2.5732,-2.5781,-2.5868,-2.582,-2.5732,-2.5684,-2.5684,-2.5684,-2.5684,-2.5684,-2.5684,-2.5684,-2.5684,-2.5684,-2.5684,-2.5684,-2.5684,-2.5684,-2.5684,-2.5684,-2.5684,-2.5684,-2.5684,-2.5684,-2.5684,-2.5703,-2.584,-2.6309,-2.6709,-2.6992,-2.707,-2.748,-2.79,-2.8184,-2.8301,-2.8301,-2.8301,-2.8301,-2.8301,-2.8301,-2.8301,-2.8301,-2.8301,-2.8301,-2.8301,-2.8301,-2.8301,-2.8301,-2.8301,-2.8301,-2.8301,-2.8301,-2.8291,-2.8291,-2.813,-2.796,-2.7565,-2.7114,-2.6672,-2.6164,-2.5991,-2.5544,-2.527,-2.527,-2.5215,-2.4994,-2.5105,-2.5544,-2.6045,-2.6273,-2.6608,-2.7232,-3.7631,-3.6064,-3.5985,-3.5621,-3.5111,-3.569,-3.6735,-3.7907,-3.736,-3.6507,-3.5769,-3.4521,-3.28,-3.1239,-3.0898,-3.0898,-3.0898,-3.0898,-3.0898,-3.0791,-3.0264,-2.9824,-2.9502,-2.8984,-2.8564,-2.832,-2.8164,-2.7992,-2.7666,-2.7434,-2.7002,-2.6465,-2.6269,-2.6025,-2.5713,-2.5684,-2.5684,-2.5684,-2.5684,-2.5684,-2.5684,-2.5684,-2.5684,-2.5781,-2.6524,-2.6982,-2.6982,-2.6149,-2.5732,-2.5781,-2.5684,-2.5684,-2.5684,-2.5684,-2.5684,-2.5684,-2.5684,-2.5684,-2.5684,-2.5684,-2.5684,-2.5684,-2.5684,-2.5684,-2.5684,-2.5684,-2.5684,-2.5684,-2.5693,-2.5869,-2.6348,-2.6758,-2.7119,-2.7432,-2.7842,-2.8115,-2.8252,-2.8301,-2.8301,-2.8301,-2.8301,-2.8301,-2.8301,-2.8301,-2.8301,-2.8301,-2.8301,-2.8301,-2.8301,-2.8301,-2.8301,-2.8301,-2.8301,-2.8301,-2.8301,-2.8301,-2.8301,-2.8301,-2.8301,-2.8301,-2.8067,-2.7906,-2.7565,-2.7222,-2.6771,-2.6608,-2.6608,-2.6554,-2.6282,-2.6563,-2.7168,-2.7447,-2.7618,-2.7897,-2.8184,-3.944,-3.8067,-3.8044,-3.7577,-3.7042,-3.7657,-3.8741,-3.9864,-3.9439,-3.8329,-3.6882,-3.561,-3.3445,-3.1317,-3.0898,-3.0898,-3.0898,-3.0898,-3.0898,-3.082,-3.041,-2.9971,-2.9521,-2.8945,-2.8564,-2.834,-2.8291,-2.8154,-2.7953,-2.7767,-2.7444,-2.6924,-2.6553,-2.6269,-2.5927,-2.5762,-2.5684,-2.5684,-2.5684,-2.5927,-2.6207,-2.5975,-2.6149,-2.6982,-2.74,-2.7814,-2.8132,-2.7484,-2.7067,-2.7013,-2.68,-2.6436,-2.6075,-2.6123,-2.6399,-2.6743,-2.6398,-2.6173,-2.6523,-2.6122,-2.5684,-2.5684,-2.5684,-2.5684,-2.5684,-2.5684,-2.5684,-2.5684,-2.5684,-2.5977,-2.6533,-2.6836,-2.7256,-2.7851,-2.8115,-2.8291,-2.8301,-2.8301,-2.8301,-2.8301,-2.8301,-2.8301,-2.8301,-2.8301,-2.8301,-2.8301,-2.8301,-2.8301,-2.8301,-2.8301,-2.8301,-2.8301,-2.8301,-2.8301,-2.8301,-2.8301,-2.8301,-2.8301,-2.8301,-2.8301,-2.8184,-2.8184,-2.796,-2.796,-2.7618,-2.7511,-2.7511,-2.7736,-2.7682,-2.8237,-2.8301,-2.8184,-2.8014,-2.8067,-2.8301,-4.2815,-4.0302,-4.0173,-3.913,-3.7885,-3.9439,-4.0242,-4.0552,-4.1922,-4.054,-3.7725,-3.6803,-3.4668,-3.1726,-3.1093,-3.0898,-3.0898,-3.0898,-3.0898,-3.0791,-3.0469,-3.0059,-2.9521,-2.875,-2.835,-2.8301,-2.8301,-2.8281,-2.8203,-2.792,-2.7738,-2.7562,-2.6894,-2.6516,-2.6527,-2.6104,-2.6073,-2.6245,-2.6149,-2.6706,-2.7579,-2.6706,-2.6972,-2.905,-2.856,-2.8639,-2.9438,-2.9668,-2.9555,-2.929,-2.8528,-2.7772,-2.6854,-2.6878,-2.7703,-2.857,-2.7381,-2.7408,-2.7744,-2.6992,-2.5966,-2.585,-2.5732,-2.5684,-2.5684,-2.5684,-2.5684,-2.5684,-2.5684,-2.6025,-2.6758,-2.7002,-2.7393,-2.8105,-2.8271,-2.8301,-2.8301,-2.8301,-2.8301,-2.8301,-2.8301,-2.8301,-2.8301,-2.8301,-2.8301,-2.8301,-2.8301,-2.8301,-2.8301,-2.8301,-2.8301,-2.8301,-2.8301,-2.8301,-2.8301,-2.8301,-2.8301,-2.8301,-2.8301,-2.8301,-2.8301,-2.8301,-2.8301,-2.8301,-2.8301,-2.8301,-2.8301,-2.8301,-2.8301,-2.8301,-2.8301,-2.8301,-2.8301,-2.8301,-2.8301,-4.3649,-4.227,-4.2233,-4.191,-4.1482,-4.2059,-4.2165,-4.2246,-4.2718,-4.1506,-3.9222,-3.7554,-3.5553,-3.3141,-3.1522,-3.0898,-3.0898,-3.0898,-3.0898,-3.0879,-3.0781,-3.0254,-2.9521,-2.8711,-2.8301,-2.8301,-2.8301,-2.8301,-2.8281,-2.8261,-2.8065,-2.7718,-2.7671,-2.7552,-2.7643,-2.7623,-2.7893,-2.8351,-2.8391,-2.8484,-2.8773,-2.8588,-2.8727,-2.9303,-3.0319,-3.0905,-3.15,-3.2292,-3.1513,-2.9555,-2.9644,-2.9057,-2.7976,-2.8231,-2.8688,-2.8946,-2.8682,-2.8439,-2.8593,-2.8112,-2.7272,-2.628,-2.5937,-2.5684,-2.5684,-2.5684,-2.5684,-2.5684,-2.5693,-2.6044,-2.6807,-2.7041,-2.7451,-2.8105,-2.8301,-2.8301,-2.8301,-2.8301,-2.8301,-2.8301,-2.8301,-2.8301,-2.8301,-2.8301,-2.8301,-2.8301,-2.8301,-2.8301,-2.8301,-2.8301,-2.8301,-2.8301,-2.8301,-2.8301,-2.8301,-2.8301,-2.8301,-2.8301,-2.8301,-2.8301,-2.8301,-2.8301,-2.8301,-2.8301,-2.8301,-2.8301,-2.8301,-2.8301,-2.8301,-2.8301,-2.8301,-2.8301,-2.8301,-2.8301,-2.8301,-4.3765,-4.2986,-4.2986,-4.2986,-4.2986,-4.2986,-4.2986,-4.2986,-4.2974,-4.1842,-4.0013,-3.8809,-3.6598,-3.3933,-3.2653,-3.1658,-3.1025,-3.0898,-3.0898,-3.085,-3.0664,-3.0185,-2.9482,-2.8711,-2.8301,-2.8301,-2.8291,-2.8644,-2.9049,-2.9154,-2.9255,-2.9642,-2.9485,-2.9418,-2.9327,-2.9122,-2.9114,-2.9312,-2.9396,-2.959,-3.009,-2.9636,-3.0342,-3.0889,-3.1991,-3.233,-3.3104,-3.3866,-3.313,-3.1413,-3.1065,-3.0776,-2.9818,-2.9518,-2.9812,-3.0253,-2.9753,-2.9476,-2.9837,-2.9249,-2.8237,-2.7298,-2.6546,-2.5937,-2.5742,-2.5684,-2.5684,-2.5684,-2.5898,-2.6338,-2.6894,-2.7314,-2.7754,-2.8193,-2.8301,-2.8301,-2.8301,-2.8301,-2.8301,-2.8301,-2.8301,-2.8301,-2.8301,-2.8301,-2.8301,-2.8301,-2.8301,-2.8301,-2.8301,-2.8301,-2.8301,-2.8301,-2.8301,-2.8301,-2.8301,-2.8301,-2.8301,-2.8301,-2.8301,-2.8301,-2.8301,-2.8301,-2.8301,-2.8301,-2.8301,-2.8301,-2.8301,-2.8301,-2.8301,-2.8301,-2.8301,-2.8301,-2.8301,-2.8301,-2.8301,-4.3476,-4.2986,-4.2986,-4.2986,-4.2986,-4.2986,-4.2986,-4.2986,-4.2986,-4.2072,-4.0644,-4.0093,-3.7748,-3.4238,-3.3796,-3.2731,-3.0957,-3.0898,-3.0898,-3.0762,-3.0469,-3.0,-2.9587,-2.8809,-2.8398,-2.8364,-2.8398,-2.9154,-2.9995,-3.0359,-3.123,-3.1739,-3.1834,-3.1768,-3.1439,-3.0923,-3.0348,-3.0377,-3.0306,-3.0654,-3.1181,-3.0849,-3.1445,-3.2938,-3.3022,-3.3512,-3.4425,-3.4773,-3.4193,-3.3214,-3.3074,-3.2594,-3.1924,-3.1034,-3.1149,-3.1794,-3.1144,-3.0947,-3.1268,-3.0203,-2.9116,-2.8439,-2.7162,-2.624,-2.5928,-2.5762,-2.5723,-2.5889,-2.6172,-2.6572,-2.7119,-2.7793,-2.8154,-2.8301,-2.8301,-2.8301,-2.8301,-2.8301,-2.8301,-2.8301,-2.8301,-2.8301,-2.8301,-2.8301,-2.8301,-2.8301,-2.8301,-2.8301,-2.8301,-2.8301,-2.8301,-2.8301,-2.8301,-2.8301,-2.8301,-2.8301,-2.8301,-2.8301,-2.8301,-2.8301,-2.8301,-2.8301,-2.8301,-2.8301,-2.8301,-2.8301,-2.8301,-2.8301,-2.8301,-2.8301,-2.8301,-2.8301,-2.8301,-2.8301,-2.8301,-4.3476,-4.2986,-4.2986,-4.2986,-4.2986,-4.2986,-4.2986,-4.2986,-4.2986,-4.2662,-4.2003,-4.0713,-3.8592,-3.6121,-3.4668,-3.2789,-3.1093,-3.0898,-3.0898,-3.083,-3.041,-2.998,-2.9662,-2.9168,-2.8667,-2.869,-2.946,-3.0078,-3.0599,-3.1976,-3.273,-3.3078,-3.3623,-3.3765,-3.4026,-3.323,-3.3123,-3.3271,-3.2685,-3.2306,-3.2623,-3.2761,-3.3096,-3.4016,-3.4409,-3.5127,-3.5674,-3.5592,-3.5194,-3.4984,-3.4786,-3.4216,-3.3397,-3.3235,-3.3032,-3.256,-3.3025,-3.2883,-3.2245,-3.1429,-3.0575,-2.9447,-2.7672,-2.6357,-2.626,-2.5908,-2.5888,-2.6143,-2.6367,-2.6758,-2.7451,-2.7978,-2.8242,-2.8301,-2.8301,-2.8301,-2.8301,-2.8301,-2.8301,-2.8301,-2.8301,-2.8301,-2.8301,-2.8301,-2.8301,-2.8301,-2.8301,-2.8301,-2.8301,-2.8301,-2.8301,-2.8301,-2.8301,-2.8301,-2.8301,-2.8301,-2.8301,-2.8301,-2.8301,-2.8301,-2.8301,-2.8301,-2.8301,-2.8301,-2.8301,-2.8301,-2.8301,-2.8301,-2.8301,-2.8301,-2.8301,-2.8301,-2.8301,-2.8301,-2.8301,-4.3237,-4.2986,-4.2986,-4.2986,-4.2986,-4.2986,-4.2986,-4.2986,-4.2986,-4.2986,-4.2557,-4.0886,-3.8833,-3.6882,-3.569,-3.3796,-3.1385,-3.0947,-3.1334,-3.1717,-3.1741,-3.1584,-3.1394,-3.0618,-2.9971,-2.9507,-3.0212,-3.1196,-3.2659,-3.3817,-3.4871,-3.5402,-3.5738,-3.5905,-3.6039,-3.5246,-3.4918,-3.4765,-3.4311,-3.3859,-3.3922,-3.411,-3.4462,-3.4738,-3.5466,-3.6081,-3.6304,-3.6094,-3.5956,-3.5918,-3.5859,-3.5488,-3.4588,-3.4378,-3.3983,-3.3613,-3.3105,-3.3613,-3.3002,-3.1906,-3.0849,-3.0643,-2.8207,-2.6962,-2.6357,-2.5986,-2.5977,-2.6309,-2.6621,-2.7031,-2.7842,-2.8105,-2.8281,-2.8301,-2.8301,-2.8301,-2.8301,-2.8301,-2.8301,-2.8301,-2.8301,-2.8301,-2.8301,-2.8301,-2.8301,-2.8301,-2.8301,-2.8301,-2.8301,-2.8301,-2.8301,-2.8301,-2.8301,-2.8301,-2.8301,-2.8301,-2.8301,-2.8301,-2.8301,-2.8301,-2.8301,-2.8301,-2.8301,-2.8301,-2.8301,-2.8301,-2.8301,-2.8301,-2.8301,-2.8301,-2.8301,-2.8301,-2.8301,-2.8301,-2.8301,-4.2986,-4.2986,-4.2986,-4.2986,-4.2986,-4.2986,-4.2986,-4.2986,-4.2986,-4.2986,-4.2731,-4.1115,-3.9611,-3.7805,-3.7486,-3.5089,-3.2676,-3.1835,-3.2597,-3.3339,-3.3364,-3.3153,-3.2912,-3.207,-3.1258,-3.0643,-3.121,-3.2779,-3.4668,-3.6095,-3.6864,-3.7892,-3.8166,-3.7917,-3.7528,-3.681,-3.62,-3.5796,-3.5002,-3.4562,-3.4605,-3.4751,-3.5056,-3.5604,-3.5981,-3.6329,-3.6405,-3.6355,-3.6329,-3.6304,-3.6355,-3.6056,-3.555,-3.5109,-3.4532,-3.4434,-3.3712,-3.3761,-3.3773,-3.2498,-3.1475,-3.1715,-2.9065,-2.722,-2.6604,-2.6113,-2.6084,-2.6514,-2.6963,-2.7529,-2.8193,-2.8281,-2.8291,-2.8301,-2.8301,-2.8301,-2.8301,-2.8301,-2.8301,-2.8301,-2.8301,-2.8301,-2.8301,-2.8301,-2.8301,-2.8301,-2.8301,-2.8301,-2.8301,-2.8301,-2.8301,-2.8301,-2.8301,-2.8301,-2.8301,-2.8301,-2.8301,-2.8301,-2.8301,-2.8301,-2.8301,-2.8301,-2.8301,-2.8301,-2.8301,-2.8301,-2.8301,-2.8301,-2.8301,-2.8301,-2.8301,-2.8301,-2.8301,-2.8301,-2.8301,-4.2986,-4.2986,-4.2986,-4.2986,-4.2986,-4.2986,-4.2986,-4.2986,-4.2986,-4.2986,-4.2893,-4.2557,-4.1047,-3.9736,-3.945,-3.7769,-3.5309,-3.4454,-3.4359,-3.4803,-3.477,-3.446,-3.2995,-3.2757,-3.2055,-3.1816,-3.2347,-3.3891,-3.5824,-3.75,-3.8315,-3.8768,-3.9107,-3.917,-3.8718,-3.7964,-3.7061,-3.6659,-3.5655,-3.5027,-3.4989,-3.5207,-3.5629,-3.6094,-3.6355,-3.6392,-3.6417,-3.6392,-3.6157,-3.5734,-3.6132,-3.6019,-3.5771,-3.5799,-3.5426,-3.4872,-3.4921,-3.486,-3.4483,-3.392,-3.3021,-3.2028,-3.0006,-2.8187,-2.7182,-2.6309,-2.631,-2.6826,-2.7519,-2.8125,-2.8262,-2.8301,-2.8301,-2.8301,-2.8301,-2.8301,-2.8301,-2.8301,-2.8301,-2.8301,-2.8301,-2.8301,-2.8301,-2.8301,-2.8301,-2.8301,-2.8301,-2.8301,-2.8301,-2.8301,-2.8301,-2.8301,-2.8301,-2.8301,-2.8301,-2.8301,-2.8301,-2.8301,-2.8301,-2.8301,-2.8301,-2.8301,-2.8301,-2.8301,-2.8301,-2.8301,-2.8301,-2.8301,-2.8301,-2.8301,-2.8301,-2.8301,-2.8301,-2.8301,-2.8301,-4.2986,-4.2986,-4.2986,-4.2986,-4.2986,-4.2986,-4.2986,-4.2986,-4.2986,-4.2986,-4.265,-4.191,-4.0784,-3.9758,-3.9527,-3.8562,-3.7354,-3.58,-3.5366,-3.5398,-3.5922,-3.5346,-3.3628,-3.3475,-3.3334,-3.3257,-3.3743,-3.471,-3.6451,-3.8358,-3.9182,-3.9346,-3.9597,-3.9685,-3.9496,-3.863,-3.7914,-3.7412,-3.6533,-3.5805,-3.5579,-3.5868,-3.6132,-3.6317,-3.6417,-3.6417,-3.6417,-3.6417,-3.6304,-3.6094,-3.6267,-3.6182,-3.6132,-3.611,-3.6108,-3.5559,-3.5463,-3.5571,-3.5017,-3.4362,-3.3143,-3.3238,-3.1299,-2.9629,-2.8456,-2.7548,-2.695,-2.7137,-2.7764,-2.8301,-2.8301,-2.8301,-2.8301,-2.8301,-2.8301,-2.8301,-2.8301,-2.8301,-2.8301,-2.8301,-2.8301,-2.8301,-2.8301,-2.8301,-2.8301,-2.8301,-2.8301,-2.8301,-2.8301,-2.8301,-2.8301,-2.8301,-2.8301,-2.8301,-2.8301,-2.8301,-2.8301,-2.8301,-2.8301,-2.8301,-2.8301,-2.8301,-2.8301,-2.8301,-2.8301,-2.8301,-2.8301,-2.8301,-2.8301,-2.8301,-2.8301,-2.8301,-2.8301,-2.8301,-2.8301,-4.2986,-4.2986,-4.2986,-4.2986,-4.2986,-4.2986,-4.2986,-4.2986,-4.2986,-4.2986,-4.2787,-4.1359,-4.0381,-3.9804,-3.9515,-3.9135,-3.8605,-3.696,-3.6522,-3.6661,-3.737,-3.6779,-3.5131,-3.4575,-3.4218,-3.3087,-3.4445,-3.5447,-3.6959,-3.8701,-3.9519,-3.9647,-3.9685,-3.9697,-3.9521,-3.907,-3.858,-3.8015,-3.7462,-3.6971,-3.6543,-3.6417,-3.6417,-3.6417,-3.6417,-3.6417,-3.6417,-3.6417,-3.6417,-3.6367,-3.6392,-3.6405,-3.6405,-3.6417,-3.6417,-3.6216,-3.5367,-3.5571,-3.5463,-3.4788,-3.3958,-3.4021,-3.2522,-3.1232,-3.0147,-2.9183,-2.8289,-2.7723,-2.8224,-2.8538,-2.8398,-2.8301,-2.8301,-2.8301,-2.8301,-2.8301,-2.8301,-2.8301,-2.8301,-2.8301,-2.8301,-2.8301,-2.8301,-2.8301,-2.8301,-2.8301,-2.8301,-2.8301,-2.8301,-2.8301,-2.8301,-2.8301,-2.8301,-2.8301,-2.8301,-2.8301,-2.8301,-2.8301,-2.8301,-2.8301,-2.8301,-2.8301,-2.8301,-2.8301,-2.8301,-2.8301,-2.8301,-2.8301,-2.8301,-2.8301,-2.8301,-2.8301,-2.8301,-2.8301,-2.8301,-4.2986,-4.2986,-4.2986,-4.2986,-4.2986,-4.2986,-4.2986,-4.2986,-4.2986,-4.2986,-4.2873,-4.2243,-4.1753,-4.1313,-4.0529,-4.0259,-3.9879,-3.9244,-3.8542,-3.8425,-3.8687,-3.7441,-3.5406,-3.5199,-3.3527,-3.2638,-3.4151,-3.5908,-3.7228,-3.8795,-3.9697,-3.9697,-3.9697,-3.9697,-3.9634,-3.9296,-3.8592,-3.8015,-3.745,-3.6897,-3.6505,-3.6417,-3.6417,-3.6417,-3.6417,-3.6417,-3.6417,-3.6417,-3.6417,-3.6417,-3.6417,-3.6417,-3.6417,-3.6417,-3.6417,-3.6358,-3.6263,-3.6216,-3.6263,-3.575,-3.5102,-3.4727,-3.3719,-3.2748,-3.1656,-3.102,-3.0139,-2.8763,-2.9456,-2.9523,-2.884,-2.8403,-2.832,-2.834,-2.8389,-2.8369,-2.835,-2.8301,-2.8301,-2.8301,-2.8301,-2.8301,-2.8301,-2.8301,-2.8301,-2.8301,-2.8301,-2.8301,-2.8301,-2.8301,-2.8301,-2.8301,-2.8301,-2.8301,-2.8301,-2.8301,-2.8301,-2.8301,-2.8301,-2.8301,-2.8301,-2.8301,-2.8301,-2.8301,-2.8301,-2.8301,-2.8301,-2.8301,-2.8301,-2.8301,-2.8301,-2.8301,-2.8301,-2.8301,-2.8301,-4.2986,-4.2986,-4.2986,-4.2986,-4.2986,-4.2986,-4.2986,-4.2986,-4.2986,-4.2798,-4.2564,-4.2338,-4.1898,-4.1178,-4.0375,-4.0061,-3.9998,-3.9798,-3.9193,-3.8687,-3.836,-3.693,-3.4615,-3.3968,-3.2758,-3.2217,-3.3642,-3.531,-3.6823,-3.8477,-3.9697,-3.9697,-3.9697,-3.9697,-3.9697,-3.9471,-3.8831,-3.804,-3.7211,-3.6669,-3.6468,-3.6417,-3.6417,-3.6417,-3.6417,-3.6417,-3.6417,-3.6417,-3.6417,-3.6417,-3.6417,-3.6417,-3.6417,-3.6417,-3.6417,-3.6417,-3.6417,-3.637,-3.6417,-3.6417,-3.6013,-3.5651,-3.4938,-3.4003,-3.2721,-3.1979,-3.1748,-3.1052,-3.0732,-3.0411,-2.9898,-2.9357,-2.8917,-2.875,-2.876,-2.8613,-2.8555,-2.834,-2.8301,-2.8301,-2.8301,-2.832,-2.832,-2.8301,-2.8301,-2.8301,-2.8301,-2.8301,-2.8301,-2.8301,-2.8301,-2.8301,-2.8301,-2.8301,-2.8301,-2.8301,-2.8301,-2.8301,-2.8301,-2.8301,-2.8301,-2.8301,-2.8301,-2.8301,-2.8301,-2.8301,-2.8301,-2.8301,-2.8301,-2.8301,-2.8301,-2.8301,-2.8301,-2.8301,-2.8301,-4.2986,-4.2986,-4.2986,-4.2986,-4.2986,-4.2986,-4.2942,-4.2773,-4.2803,-4.2459,-4.202,-4.1756,-4.1166,-4.0438,-3.9948,-3.976,-3.9722,-3.9697,-3.9077,-3.836,-3.769,-3.6476,-3.4836,-3.3744,-3.2815,-3.1005,-3.3923,-3.5245,-3.6283,-3.7979,-3.9697,-3.9697,-3.9697,-3.9697,-3.9697,-3.9584,-3.912,-3.8027,-3.7136,-3.6656,-3.6443,-3.6417,-3.6417,-3.6417,-3.6417,-3.6417,-3.6417,-3.6417,-3.6417,-3.6417,-3.6417,-3.6417,-3.6417,-3.6417,-3.6417,-3.6417,-3.6417,-3.6417,-3.6417,-3.6417,-3.6417,-3.6292,-3.6031,-3.508,-3.3938,-3.2991,-3.2594,-3.2902,-3.2851,-3.2339,-3.171,-3.0897,-3.0237,-2.9799,-2.9391,-2.9168,-2.8945,-2.8789,-2.8525,-2.835,-2.8369,-2.8398,-2.8379,-2.832,-2.8301,-2.8301,-2.8301,-2.8301,-2.8301,-2.8301,-2.8301,-2.8301,-2.8301,-2.8301,-2.8301,-2.8301,-2.8301,-2.8301,-2.8301,-2.8301,-2.8301,-2.8301,-2.8301,-2.8301,-2.8301,-2.8301,-2.8301,-2.8301,-2.8301,-2.8301,-2.8301,-2.8301,-2.8301,-2.8301,-2.8301,-4.2986,-4.2986,-4.2961,-4.2936,-4.2949,-4.2986,-4.2672,-4.2275,-4.2263,-4.1907,-4.1367,-4.0877,-4.0375,-3.9885,-3.9785,-3.9697,-3.9697,-3.9697,-3.953,-3.9465,-3.9245,-3.7423,-3.5617,-3.4359,-3.3586,-3.195,-3.3923,-3.5178,-3.6054,-3.8307,-3.9478,-3.9697,-3.9697,-3.9697,-3.9659,-3.9559,-3.912,-3.8203,-3.7437,-3.692,-3.6631,-3.648,-3.6468,-3.6417,-3.6417,-3.6417,-3.6417,-3.6417,-3.6417,-3.6417,-3.6417,-3.6417,-3.6417,-3.6417,-3.6417,-3.6417,-3.6417,-3.6417,-3.6417,-3.6417,-3.6417,-3.6392,-3.6194,-3.5825,-3.5102,-3.6148,-3.5916,-3.4635,-3.4676,-3.4624,-3.369,-3.263,-3.1894,-3.1014,-3.0394,-2.9772,-2.9577,-2.9336,-2.9033,-2.8574,-2.8447,-2.8516,-2.8389,-2.831,-2.8301,-2.8301,-2.8301,-2.8301,-2.8301,-2.8301,-2.8301,-2.8301,-2.8301,-2.8301,-2.8301,-2.8301,-2.8301,-2.8301,-2.8301,-2.8301,-2.8301,-2.8301,-2.8301,-2.8301,-2.8301,-2.8301,-2.8301,-2.8301,-2.8301,-2.8301,-2.8301,-2.8301,-2.8301,-2.8301,-2.8301,-4.1969,-4.1969,-4.1969,-4.217,-4.2527,-4.2527,-4.2158,-4.1706,-4.1643,-4.1342,-4.0749,-4.0262,-3.9898,-3.9735,-3.9697,-3.9697,-3.9697,-3.9697,-3.9697,-3.931,-3.8635,-3.7145,-3.5617,-3.4459,-3.3304,-3.2871,-3.4414,-3.5945,-3.693,-3.8752,-3.9413,-3.9697,-3.9697,-3.9697,-3.9647,-3.9433,-3.8956,-3.8592,-3.7977,-3.7425,-3.7033,-3.6883,-3.6757,-3.6417,-3.6417,-3.6417,-3.6417,-3.6417,-3.6417,-3.6417,-3.6417,-3.6417,-3.6417,-3.6417,-3.6417,-3.6417,-3.6417,-3.6417,-3.6417,-3.6417,-3.6417,-3.6317,-3.6081,-3.5943,-3.6044,-3.6546,-3.6891,-3.6505,-3.6452,-3.618,-3.5736,-3.4654,-3.366,-3.2513,-3.1529,-3.0737,-3.0231,-2.9997,-2.9346,-2.8799,-2.8682,-2.8691,-2.8506,-2.8301,-2.8301,-2.8301,-2.8301,-2.8301,-2.8301,-2.8301,-2.8301,-2.8301,-2.8301,-2.8301,-2.8301,-2.8301,-2.8301,-2.8301,-2.8301,-2.8301,-2.8301,-2.8301,-2.8301,-2.8301,-2.8301,-2.8301,-2.8301,-2.8301,-2.8301,-2.8301,-2.8301,-2.8301,-2.8301,-2.8301,-2.8301,-4.1275,-4.1275,-4.1275,-4.1555,-4.1894,-4.1907,-4.1605,-4.11,-4.1037,-4.0724,-4.0249,-3.986,-3.9697,-3.9697,-3.9697,-3.9697,-3.9697,-3.9697,-3.9697,-3.9413,-3.8699,-3.7317,-3.6054,-3.5112,-3.467,-3.4292,-3.5222,-3.6649,-3.7358,-3.8973,-3.953,-3.9697,-3.9697,-3.9697,-3.9609,-3.9346,-3.9057,-3.8793,-3.8492,-3.7977,-3.75,-3.7224,-3.7061,-3.6669,-3.6543,-3.6417,-3.6417,-3.6417,-3.6417,-3.6417,-3.6417,-3.6417,-3.6417,-3.6417,-3.6417,-3.6417,-3.6417,-3.6417,-3.6417,-3.6417,-3.6493,-3.6631,-3.6169,-3.632,-3.6634,-3.6872,-3.7327,-3.7979,-3.7768,-3.7557,-3.7505,-3.6549,-3.5663,-3.4621,-3.2863,-3.1906,-3.1089,-3.0671,-2.9744,-2.9014,-2.8994,-2.8975,-2.8516,-2.8301,-2.8301,-2.8301,-2.8301,-2.8301,-2.8301,-2.8301,-2.8301,-2.8301,-2.8301,-2.8301,-2.8301,-2.8301,-2.8301,-2.8301,-2.8301,-2.8301,-2.8301,-2.8301,-2.8301,-2.8301,-2.8301,-2.8301,-2.8301,-2.8301,-2.8301,-2.8301,-2.8301,-2.8301,-2.8301,-2.8301,-2.8301,-4.1225,-4.1275,-4.1225,-4.1238,-4.1254,-4.1288,-4.1,-4.0563,-4.0526,-4.0249,-3.9835,-3.9697,-3.9697,-3.9697,-3.9697,-3.9697,-3.9697,-3.9697,-3.9697,-3.9581,-3.9362,-3.8582,-3.769,-3.6811,-3.6042,-3.5781,-3.6433,-3.7198,-3.7743,-3.9025,-3.9633,-3.9697,-3.9697,-3.9697,-3.9697,-3.9685,-3.9396,-3.902,-3.8932,-3.8517,-3.8027,-3.7613,-3.7448,-3.7033,-3.6744,-3.6581,-3.643,-3.6417,-3.6417,-3.6417,-3.6417,-3.6417,-3.6417,-3.6417,-3.6417,-3.6417,-3.6417,-3.6417,-3.6417,-3.6417,-3.6606,-3.6857,-3.6405,-3.6631,-3.7487,-3.7889,-3.7927,-3.8367,-3.8865,-3.9251,-3.9028,-3.8376,-3.7512,-3.6329,-3.4527,-3.3103,-3.2373,-3.1588,-3.0746,-2.9561,-2.9365,-2.9297,-2.8711,-2.831,-2.8301,-2.8301,-2.8301,-2.8301,-2.8301,-2.8301,-2.8301,-2.8301,-2.8301,-2.8301,-2.8301,-2.8301,-2.8301,-2.8301,-2.8301,-2.8301,-2.8301,-2.8301,-2.8301,-2.8301,-2.8301,-2.8301,-2.8301,-2.8301,-2.8301,-2.8301,-2.8301,-2.8301,-2.8301,-2.8301,-2.8301,-4.0249,-4.0249,-4.0249,-4.0023,-3.9835,-4.0513,-4.0475,-4.0036,-3.9961,-3.986,-3.9722,-3.9697,-3.9697,-3.9697,-3.9697,-3.9697,-3.9697,-3.9697,-3.9697,-3.9697,-3.9697,-3.8739,-3.7967,-3.7636,-3.7305,-3.7026,-3.7465,-3.819,-3.9025,-3.953,-3.9645,-3.9697,-3.9697,-3.9697,-3.9697,-3.9697,-3.9546,-3.9459,-3.9371,-3.9145,-3.8617,-3.8329,-3.7964,-3.7322,-3.6985,-3.6757,-3.6455,-3.6417,-3.6417,-3.6417,-3.6417,-3.6417,-3.6417,-3.6417,-3.6417,-3.6417,-3.6417,-3.6417,-3.6417,-3.643,-3.648,-3.6581,-3.6619,-3.6619,-3.6983,-3.7663,-3.8015,-3.8479,-3.9233,-3.9572,-3.9413,-3.9297,-3.861,-3.7494,-3.5974,-3.4659,-3.3695,-3.2874,-3.1948,-3.038,-2.9648,-2.945,-2.898,-2.8496,-2.8408,-2.831,-2.8301,-2.8301,-2.8301,-2.8301,-2.8301,-2.8301,-2.8301,-2.8301,-2.8301,-2.8301,-2.8301,-2.8301,-2.8301,-2.8301,-2.8301,-2.8301,-2.8301,-2.8301,-2.8301,-2.8301,-2.8301,-2.8301,-2.8301,-2.8301,-2.8301,-2.8301,-2.8301,-2.8301,-2.8301,-3.9107,-3.9107,-3.9107,-3.8919,-3.8781,-3.976,-4.0011,-3.9722,-3.9697,-3.9697,-3.9697,-3.9697,-3.9697,-3.9697,-3.9697,-3.9697,-3.9697,-3.9697,-3.9697,-3.9697,-3.9697,-3.9129,-3.857,-3.8243,-3.8413,-3.8243,-3.8348,-3.8856,-3.953,-3.9645,-3.9697,-3.9697,-3.9697,-3.9697,-3.9697,-3.9685,-3.9685,-3.9634,-3.9584,-3.9509,-3.9157,-3.8843,-3.8416,-3.7713,-3.7249,-3.6935,-3.6581,-3.6417,-3.6417,-3.6417,-3.6417,-3.6417,-3.6417,-3.6417,-3.6417,-3.6417,-3.6417,-3.6417,-3.6417,-3.6417,-3.6443,-3.6443,-3.6417,-3.6619,-3.692,-3.7676,-3.809,-3.8567,-3.9182,-3.9509,-3.9685,-3.9685,-3.9297,-3.8178,-3.7346,-3.6019,-3.531,-3.4482,-3.3148,-3.1543,-3.0615,-3.0148,-2.9325,-2.8818,-2.8535,-2.8408,-2.8301,-2.8301,-2.8301,-2.8301,-2.8301,-2.8301,-2.8301,-2.8301,-2.8301,-2.8301,-2.8301,-2.8301,-2.8301,-2.8301,-2.8301,-2.8301,-2.8301,-2.8301,-2.8301,-2.8301,-2.8301,-2.8301,-2.8301,-2.8301,-2.8301,-2.8301,-2.8301,-2.833,-2.8359,-3.8015,-3.8002,-3.8002,-3.8027,-3.8178,-3.9132,-3.9597,-3.9647,-3.9685,-3.9697,-3.9697,-3.9697,-3.9697,-3.9697,-3.9697,-3.9697,-3.9697,-3.9697,-3.9697,-3.9697,-3.9697,-3.9517,-3.953,-3.9413,-3.9297,-3.9478,-3.953,-3.9297,-3.9697,-3.9697,-3.9697,-3.9697,-3.9697,-3.9634,-3.9597,-3.9534,-3.9584,-3.9647,-3.9685,-3.9634,-3.9471,-3.9182,-3.863,-3.8015,-3.7525,-3.6998,-3.6644,-3.6417,-3.6417,-3.6417,-3.6417,-3.6417,-3.6417,-3.6417,-3.6417,-3.6417,-3.6417,-3.6417,-3.6417,-3.6417,-3.6417,-3.6417,-3.6417,-3.6973,-3.74,-3.7638,-3.7977,-3.8504,-3.9107,-3.9421,-3.9672,-3.9685,-3.9645,-3.8908,-3.8348,-3.7571,-3.7026,-3.5939,-3.445,-3.3254,-3.2513,-3.1694,-3.0198,-2.9421,-2.9208,-2.8545,-2.8418,-2.8301,-2.8301,-2.8301,-2.8301,-2.8301,-2.8301,-2.8301,-2.8301,-2.8301,-2.8301,-2.8301,-2.8301,-2.8301,-2.8301,-2.8301,-2.8301,-2.8301,-2.8301,-2.8301,-2.8301,-2.8301,-2.8301,-2.8301,-2.8301,-2.8418,-2.8457,-2.8467,-2.8496,-3.8002,-3.8002,-3.8002,-3.7789,-3.755,-3.8203,-3.8718,-3.912,-3.9496,-3.9697,-3.9697,-3.9697,-3.9697,-3.9697,-3.9697,-3.9697,-3.9697,-3.9697,-3.9697,-3.9697,-3.9697,-3.9697,-3.9697,-3.9697,-3.9697,-3.9697,-3.9697,-3.9697,-3.9697,-3.9697,-3.9697,-3.9697,-3.9609,-3.9459,-3.922,-3.9158,-3.9346,-3.9546,-3.9609,-3.9659,-3.9685,-3.9484,-3.8843,-3.8178,-3.7839,-3.7236,-3.6631,-3.643,-3.6417,-3.6417,-3.6417,-3.6417,-3.6417,-3.6417,-3.6417,-3.6417,-3.6417,-3.6417,-3.6417,-3.6417,-3.6417,-3.6417,-3.6417,-3.6468,-3.6895,-3.7287,-3.7713,-3.8329,-3.8906,-3.9245,-3.9584,-3.9685,-3.9697,-3.9362,-3.8856,-3.8518,-3.8019,-3.7299,-3.5845,-3.4644,-3.3954,-3.3008,-3.1418,-3.0578,-3.0204,-2.9164,-2.8555,-2.8428,-2.831,-2.832,-2.8301,-2.8301,-2.8301,-2.8301,-2.8301,-2.8301,-2.8301,-2.8301,-2.8301,-2.8301,-2.8301,-2.8301,-2.8301,-2.8301,-2.8301,-2.8301,-2.8301,-2.8301,-2.8301,-2.8301,-2.831,-2.8486,-2.8623,-2.8643,-2.8789,-3.7362,-3.7349,-3.7349,-3.7161,-3.6985,-3.7437,-3.7902,-3.8341,-3.9245,-3.9697,-3.9697,-3.9697,-3.9697,-3.9697,-3.9697,-3.9697,-3.9697,-3.9697,-3.9697,-3.9697,-3.9697,-3.9697,-3.9697,-3.9697,-3.9697,-3.9697,-3.9697,-3.9697,-3.9672,-3.9659,-3.9659,-3.9333,-3.9358,-3.9019,-3.8693,-3.8567,-3.8856,-3.9145,-3.9358,-3.9496,-3.9584,-3.9622,-3.8981,-3.8228,-3.799,-3.7349,-3.6581,-3.643,-3.6417,-3.6417,-3.6417,-3.6417,-3.6417,-3.6417,-3.6417,-3.6417,-3.6417,-3.6417,-3.6417,-3.6417,-3.6417,-3.6417,-3.6417,-3.643,-3.6631,-3.7021,-3.7487,-3.804,-3.858,-3.912,-3.9408,-3.9697,-3.9697,-3.9697,-3.9465,-3.9245,-3.8896,-3.8453,-3.734,-3.6017,-3.5083,-3.4247,-3.3236,-3.2308,-3.1322,-3.0391,-2.9376,-2.8691,-2.8525,-2.8389,-2.834,-2.8301,-2.8301,-2.8301,-2.8301,-2.8301,-2.8301,-2.8301,-2.8301,-2.8301,-2.8301,-2.8301,-2.8301,-2.8301,-2.8301,-2.8301,-2.8301,-2.8301,-2.8301,-2.8301,-2.8398,-2.8633,-2.8809,-2.8887,-2.9101,-3.6317,-3.6355,-3.6355,-3.6367,-3.643,-3.6885,-3.7161,-3.7362,-3.8831,-3.9534,-3.9484,-3.9584,-3.9572,-3.9521,-3.9622,-3.9697,-3.9697,-3.9697,-3.9697,-3.9697,-3.9697,-3.9697,-3.9697,-3.9697,-3.9697,-3.9697,-3.9672,-3.9622,-3.9597,-3.9496,-3.9233,-3.8881,-3.8806,-3.8504,-3.804,-3.7952,-3.8178,-3.8454,-3.8668,-3.8881,-3.9358,-3.9421,-3.9069,-3.8115,-3.7764,-3.7425,-3.6707,-3.6417,-3.6417,-3.6417,-3.6417,-3.6417,-3.6417,-3.6417,-3.6417,-3.6417,-3.6417,-3.6417,-3.6417,-3.6417,-3.6417,-3.6417,-3.6417,-3.6417,-3.6581,-3.6744,-3.7161,-3.7701,-3.8241,-3.8806,-3.9195,-3.9572,-3.9697,-3.9697,-3.9581,-3.9517,-3.9349,-3.9077,-3.8561,-3.7503,-3.698,-3.607,-3.5083,-3.4142,-3.2847,-3.179,-3.1086,-3.0073,-2.9149,-2.8952,-2.8691,-2.8549,-2.831,-2.831,-2.8301,-2.8301,-2.8301,-2.8301,-2.8301,-2.8301,-2.8301,-2.8301,-2.8301,-2.8301,-2.8301,-2.8301,-2.8301,-2.8301,-2.8301,-2.832,-2.8476,-2.8789,-2.8984,-2.917,-2.9551,-3.5366,-3.5683,-3.5696,-3.5683,-3.5805,-3.6332,-3.6832,-3.7236,-3.8027,-3.8379,-3.8492,-3.8856,-3.9183,-3.9233,-3.9572,-3.9697,-3.9697,-3.9697,-3.9697,-3.9697,-3.9697,-3.9697,-3.9697,-3.9697,-3.9697,-3.9697,-3.9647,-3.9433,-3.9145,-3.8994,-3.8793,-3.8278,-3.8203,-3.7927,-3.7425,-3.7387,-3.7513,-3.7789,-3.7751,-3.8228,-3.8843,-3.8542,-3.8027,-3.7588,-3.7324,-3.7098,-3.6593,-3.6417,-3.6417,-3.6417,-3.6417,-3.6417,-3.6417,-3.6417,-3.6417,-3.6417,-3.6417,-3.6417,-3.6417,-3.6417,-3.6417,-3.6417,-3.6417,-3.6417,-3.6468,-3.6556,-3.687,-3.7374,-3.7902,-3.8454,-3.8994,-3.9371,-3.9685,-3.9685,-3.9697,-3.9697,-3.9697,-3.9581,-3.9465,-3.9129,-3.8687,-3.7911,-3.6862,-3.5734,-3.4484,-3.3732,-3.3389,-3.2468,-3.0874,-3.0132,-2.9611,-2.9289,-2.8476,-2.832,-2.831,-2.8301,-2.8301,-2.8301,-2.8301,-2.8301,-2.8301,-2.8301,-2.8301,-2.8301,-2.8301,-2.8301,-2.8301,-2.8301,-2.831,-2.8389,-2.8603,-2.8935,-2.9385,-2.9639,-3.0078,-3.4856,-3.5119,-3.5144,-3.5132,-3.5194,-3.5516,-3.5818,-3.6107,-3.642,-3.6847,-3.745,-3.8329,-3.8981,-3.917,-3.9584,-3.9634,-3.9647,-3.9697,-3.9697,-3.9697,-3.9609,-3.9697,-3.9697,-3.9622,-3.9697,-3.9672,-3.9371,-3.9057,-3.858,-3.8442,-3.8216,-3.7739,-3.76,-3.7387,-3.6958,-3.6883,-3.696,-3.7186,-3.696,-3.7349,-3.8153,-3.7939,-3.7676,-3.7349,-3.7098,-3.6835,-3.6606,-3.6417,-3.6417,-3.6417,-3.6417,-3.6417,-3.6417,-3.6417,-3.6417,-3.6417,-3.6417,-3.6417,-3.6417,-3.6417,-3.6417,-3.6417,-3.6417,-3.6417,-3.6417,-3.6531,-3.6757,-3.7247,-3.7387,-3.7889,-3.868,-3.917,-3.9471,-3.9584,-3.9659,-3.9697,-3.9697,-3.9645,-3.9581,-3.9478,-3.9245,-3.9052,-3.8097,-3.7192,-3.607,-3.5539,-3.5214,-3.4294,-3.2782,-3.1485,-3.0897,-3.0073,-2.9267,-2.8501,-2.8301,-2.8301,-2.8301,-2.8301,-2.8301,-2.8301,-2.8301,-2.8301,-2.8301,-2.8301,-2.8301,-2.8301,-2.8301,-2.8389,-2.8506,-2.8633,-2.8848,-2.9101,-2.957,-3.0039,-3.0351,-3.4487,-3.4512,-3.4587,-3.4613,-3.4613,-3.4625,-3.4713,-3.4788,-3.4743,-3.5416,-3.6568,-3.7926,-3.8831,-3.932,-3.9484,-3.9484,-3.9408,-3.9182,-3.932,-3.9346,-3.9333,-3.9195,-3.922,-3.9358,-3.927,-3.9157,-3.8906,-3.8429,-3.7927,-3.7864,-3.7663,-3.7211,-3.6998,-3.6895,-3.6556,-3.6468,-3.6644,-3.6832,-3.6807,-3.6757,-3.7111,-3.7513,-3.7324,-3.7174,-3.7036,-3.6857,-3.6556,-3.6417,-3.6417,-3.6417,-3.6417,-3.6417,-3.6417,-3.6417,-3.6417,-3.6417,-3.6417,-3.6417,-3.6417,-3.6417,-3.6417,-3.6417,-3.6417,-3.6417,-3.6417,-3.6518,-3.6744,-3.6895,-3.7036,-3.7462,-3.8241,-3.8793,-3.9082,-3.9333,-3.9421,-3.9634,-3.9647,-3.9659,-3.9685,-3.9685,-3.9697,-3.9633,-3.9129,-3.8283,-3.7736,-3.7228,-3.6595,-3.555,-3.4486,-3.3345,-3.2432,-3.123,-3.0083,-2.9377,-2.8579,-2.8359,-2.8379,-2.8301,-2.8301,-2.8301,-2.8301,-2.8301,-2.8301,-2.831,-2.831,-2.8457,-2.8535,-2.8643,-2.876,-2.8955,-2.9277,-2.956,-2.9824,-3.0244,-3.0488,-3.3395,-3.342,-3.3859,-3.406,-3.406,-3.406,-3.4299,-3.463,-3.47,-3.5341,-3.6229,-3.6644,-3.7398,-3.8341,-3.8329,-3.8404,-3.8605,-3.8517,-3.8379,-3.8316,-3.8542,-3.8442,-3.8454,-3.8655,-3.8391,-3.8291,-3.8216,-3.7864,-3.7412,-3.7312,-3.7086,-3.6656,-3.6619,-3.6543,-3.6493,-3.6443,-3.648,-3.6593,-3.6593,-3.6531,-3.6518,-3.6732,-3.6656,-3.6581,-3.6556,-3.6493,-3.6417,-3.6417,-3.6417,-3.6417,-3.6417,-3.6417,-3.6417,-3.6417,-3.6417,-3.6417,-3.6417,-3.6417,-3.6417,-3.6417,-3.6417,-3.6417,-3.6417,-3.6417,-3.6417,-3.6417,-3.6568,-3.6619,-3.6832,-3.7098,-3.7713,-3.8052,-3.8354,-3.8567,-3.8705,-3.9195,-3.9471,-3.9546,-3.9609,-3.9647,-3.9697,-3.9697,-3.9581,-3.8961,-3.8622,-3.8352,-3.8509,-3.7426,-3.5875,-3.4951,-3.3835,-3.2509,-3.1071,-2.9842,-2.8965,-2.8584,-2.8496,-2.8389,-2.8359,-2.8476,-2.8476,-2.831,-2.832,-2.8555,-2.8682,-2.8818,-2.8887,-2.8955,-2.9209,-2.9443,-2.9805,-3.0098,-3.0283,-3.043,-3.0654]},{"header":{"parameterUnit":"m.s-1","parameterCategory":1,"la1":31.0,"la2":29.5877,"lo1":-88.7671,"lo2":-86.6584,"dy":0.0162,"dx":0.0185,"nx":115,"ny":88,"refTime":"2024-06-24T18:00:00:Z","depth":0,"parameterNumber":3,"parameterNumberName":"V-component_of_WINDS"},"data":[0.0,0.0,0.0,0.0,0.0,0.0,0.0,0.0,0.0,0.0,0.0,0.0,0.0,0.0,0.0,0.0,0.0,0.0,0.0,0.0,0.0,0.0,0.0,0.0,0.0,0.0,0.0,0.0,0.0,0.0,0.0,0.0,0.0,0.0,0.0,0.0,0.0,0.0,0.0,0.0,0.0,0.0,0.0,0.0,0.0,0.0,0.0,0.0,0.0,0.0,0.0,0.0,0.0,0.0,0.0,0.0,0.0,0.0,0.0,0.0,0.0,0.0,0.0,0.0,0.0,0.0,0.0,0.0,0.0,0.0,0.0,0.0,0.0,0.0,0.0,0.0,0.0,0.0,0.0,0.0,0.0,0.0,0.0,0.0,0.0,0.0,0.0,0.0,0.0,0.0,0.0,0.0,0.0,0.0,0.0,0.0,0.0,0.0,0.0,0.0,0.0,0.0,0.0,0.0,0.0,0.0,0.0,0.0,0.0,0.0,0.0,0.0,0.0,0.0,0.0,0.0,0.0,0.0,0.0,0.0,0.0,0.0,0.0,0.0,0.0,0.0,0.0,0.0,0.0,0.0,0.0,0.0,0.0,0.0,0.0,0.0,0.0,0.0,0.0,0.0,0.0,0.0,0.0,0.0,0.0,0.0,0.0,0.0,0.0,0.0,0.0,0.0,0.0,0.0,0.0,0.0,0.0,0.0,0.0,0.0,0.0,0.0,0.0,0.0,0.0,0.0,0.0,0.0,0.0,0.0,0.0,0.0,0.0,0.0,0.0,0.0,0.0,0.0,0.0,0.0,0.0,0.0,0.0,0.0,0.0,0.0,0.0,0.0,0.0,0.0,0.0,0.0,0.0,0.0,0.0,0.0,0.0,0.0,0.0,0.0,0.0,0.0,0.0,0.0,0.0,0.0,0.0,0.0,0.0,0.0,0.0,0.0,0.0,0.0,0.0,0.0,0.0,0.0,0.0,0.0,0.0,0.0,0.0,0.0,0.0,0.0,0.0,0.0,0.0,0.0,0.0,0.0,0.0,0.0,0.0,0.0,0.0,0.0,0.0,0.0,0.0,0.0,0.0,0.0,0.0,0.0,0.0,0.0,0.0,0.0,0.0,0.0,0.0,0.0,0.0,0.0,0.0,0.0,0.0,0.0,0.0,0.0,0.0,0.0,0.0,0.0,0.0,0.0,0.0,0.0,0.0,0.0,0.0,0.0,0.0,0.0,0.0,0.0,0.0,0.0,0.0,0.0,0.0,0.0,0.0,0.0,0.0,0.0,0.0,0.0,0.0,0.0,0.0,0.0,0.0,0.0,0.0,0.0,0.0,0.0,0.0,0.0,0.0,0.0,0.0,0.0,0.0,0.0,0.0,0.0,0.0,0.0,0.0,0.0,0.0,0.0,0.0,0.0,0.0,0.0,0.0,0.0,0.0,0.0,0.0,0.0,0.0,0.0,0.0,0.0,0.0,0.0,0.0,0.0,0.0,0.0,0.0,0.0,0.0,0.0,0.0,0.0,0.0,0.0,0.0,0.0,0.0,0.0,0.0,0.0,0.0,0.0,0.0,0.0,0.0,0.0,0.0,0.0,0.0,0.0,0.0,0.0,0.0,0.0,0.0,0.0,0.0,0.0,0.0,0.0,0.0,0.0,0.0,0.0,0.0,0.0,0.0,0.0,0.0,0.0,0.0,0.0,0.0,0.0,0.0,0.0,0.0,0.0,0.0,0.0,0.0,0.0,0.0,0.0,0.0,0.0,0.0,0.0,0.0,0.0,0.0,0.0,0.0,0.0,0.0,0.0,0.0,0.0,0.0,0.0,0.0,0.0,0.0,0.0,0.0,0.0,0.0,0.0,0.0,0.0,0.0,0.0,0.0,0.0,0.0,0.0,0.0,0.0,0.0,0.0,0.0,0.0,0.0,0.0,0.0,0.0,0.0,0.0,0.0,0.0,0.0,0.0,0.0,0.0,0.0,0.0,0.0,0.0,0.0,0.0,0.0,0.0,0.0,0.0,0.0,0.0,0.0,0.0,0.0,0.0,0.0,0.0,0.0,0.0,0.0,0.0,0.0,0.0,0.0,0.0,0.0,0.0,0.0,0.0,0.0,0.0,0.0,0.0,0.0,0.0,0.0,0.0,0.0,0.0,0.0,0.0,0.0,0.0,0.0,0.0,0.0,0.0,0.0,0.0,0.0,0.0,0.0,0.0,0.0,0.0,0.0,0.0,0.0,0.0,0.0,0.0,0.0,0.0,0.0,0.0,0.0,0.0,0.0,0.0,0.0,0.0,0.0,0.0,0.0,0.0,0.0,0.0,0.0,0.0,0.0,0.0,0.0,0.0,0.0,0.0,0.0,0.0,0.0,0.0,0.0,0.0,0.0,0.0,0.0,0.0,0.0,0.0,0.0,0.0,0.0,0.0,0.0,0.0,0.0,0.0,0.0,0.0,0.0,0.0,0.0,0.0,0.0,0.0,0.0,0.0,0.0,0.0,0.0,0.0,0.0,0.0,0.0,0.0,0.0,0.0,0.0,0.0,0.0,0.0,0.0,0.0,0.0,0.0,0.0,0.0,0.0,0.0,0.0,0.0,0.0,0.0,0.0,0.0,0.0,0.0,0.0,0.0,0.0,0.0,0.0,0.0,0.0,0.0,0.0,0.0,0.0,0.0,0.0,0.0,0.0,0.0,0.0,0.0,0.0,0.0,0.0,0.0,0.0,0.0,0.0,0.0,0.0,0.0,0.0,0.0,0.0,0.0,0.0,0.0,0.0,0.0,0.0,0.0,0.0,0.0,0.0,0.0,0.0,0.0,0.0,0.0,0.0,0.0,0.0,0.0,0.0,0.0,0.0,0.0,0.0,0.0,0.0,0.0,0.0,0.0,0.0,0.0,0.0,0.0,0.0,0.0,0.0,0.0,0.0,0.0,0.0,0.0,0.0,0.0,0.0,0.0,0.0,0.0,0.0,0.0,0.0,0.0,0.0,0.0,0.0,0.0,0.0,0.0,0.0,0.0,0.0,0.0,0.0,0.0,0.0,0.0,0.0,0.0,0.0,0.0,0.0,0.0,0.0,0.0,0.0,0.0,0.0,0.0,0.0,0.0,0.0,0.0,0.0,0.0,0.0,0.0,0.0,0.0,0.0,0.0,0.0,0.0,0.0,0.0,0.0,0.0,0.0,0.0,0.0,0.0,0.0,0.0,0.0,0.0,0.0,0.0,0.0,0.0,0.0,0.0,0.0,0.0,0.0,0.0,0.0,0.0,0.0,0.0,0.0,0.0,0.0,0.0,0.0,0.0,0.0,0.0,0.0,0.0,0.0,0.0,0.0,0.0,0.0,0.0,0.0,0.0,0.0,0.0,0.0,0.0,0.0,0.0,0.0,0.0,0.0,0.0,0.0,0.0,0.0,0.0,0.0,0.0,0.0,0.0,0.0,0.0,0.0,0.0,0.0,0.0,0.0,0.0,0.0,0.0,0.0,0.0,0.0,0.0,0.0,0.0,0.0,0.0,0.0,0.0,0.0,0.0,0.0,0.0,0.0,0.0,0.0,0.0,0.0,0.0,0.0,0.0,0.0,0.0,0.0,0.0,0.0,0.0,0.0,0.0,0.0,0.0,0.0,0.0,0.0,0.0,0.0,0.0,0.0,0.0,0.0,0.0,0.0,0.0,0.0,0.0,0.0,0.0,0.0,0.0,0.0,0.0,0.0,0.0,0.0,0.0,0.0,0.0,0.0,0.0,0.0,0.0,0.0,0.0,0.0,0.0,0.0,0.0,0.0,0.0,0.0,0.0,0.0,0.0,0.0,0.0,0.0,0.0,0.0,0.0,0.0,0.0,0.0,0.0,0.0,0.0,0.0,0.0,0.0,0.0,0.0,0.0,0.0,0.0,0.0,0.0,0.0,0.0,0.0,0.0,0.0,0.0,0.0,0.0,0.0,0.0,0.0,0.0,0.0,0.0,0.0,0.0,0.0,0.0,0.0,0.0,0.0,0.0,0.0,0.0,0.0,0.0,0.0,0.0,0.0,0.0,0.0,0.0,0.0,0.0,0.0,0.0,0.0,0.0,0.0,0.0,0.0,0.0,0.0,0.0,0.0,0.0,0.0,0.0,0.0,0.0,0.0,0.0,0.0,0.0,0.0,0.0,0.0,0.0,0.0,0.0,0.0,0.0,0.0,0.0,0.0,0.0,0.0,0.0,0.0,0.0,0.0,0.0,0.0,0.0,0.0,0.0,0.0,0.0,0.0,0.0,0.0,0.0,0.0,0.0,0.0,0.0,-1.0673,0.0,0.0,0.0,0.0,0.0,0.0,0.0,0.0,0.0,0.0,0.0,0.0,0.0,0.0,0.0,0.0,0.0,0.0,0.0,0.0,0.0,0.0,0.0,0.0,0.0,0.0,0.0,0.0,0.0,0.0,0.0,0.0,0.0,0.0,0.0,0.0,0.0,0.0,0.0,0.0,0.0,0.0,0.0,0.0,0.0,0.0,0.0,0.0,0.0,0.0,0.0,0.0,0.0,0.0,0.0,0.0,0.0,0.0,0.0,0.0,0.0,0.0,0.0,0.0,0.0,0.0,0.0,0.0,0.0,0.0,0.0,0.0,0.0,0.0,0.0,0.0,0.0,0.0,0.0,0.0,0.0,0.0,0.0,0.0,0.0,0.0,0.0,0.0,0.0,0.0,0.0,0.0,0.0,0.0,0.0,0.0,0.0,0.0,0.0,0.0,0.0,0.0,0.0,0.0,0.0,0.0,0.0,0.0,0.0,0.0,-1.2942,-1.2815,-1.2116,-1.1521,-1.1046,0.0,0.0,0.0,0.0,0.0,0.0,0.0,0.0,0.0,0.0,0.0,0.0,0.0,0.0,0.0,0.0,0.0,0.0,0.0,0.0,0.0,0.0,0.0,0.0,0.0,0.0,0.0,0.0,0.0,0.0,0.0,0.0,0.0,0.0,0.0,0.0,0.0,0.0,0.0,0.0,0.0,0.0,0.0,0.0,0.0,0.0,0.0,0.0,0.0,0.0,0.0,0.0,0.0,0.0,0.0,0.0,0.0,0.0,0.0,0.0,0.0,0.0,0.0,0.0,0.0,0.0,0.0,0.0,0.0,0.0,0.0,0.0,0.0,0.0,0.0,0.0,0.0,0.0,0.0,0.0,0.0,0.0,0.0,0.0,0.0,0.0,0.0,0.0,0.0,0.0,0.0,0.0,0.0,0.0,0.0,0.0,0.0,0.0,0.0,0.0,0.0,0.0,0.0,0.0,0.0,0.0,0.0,0.0,0.0,0.0,0.0,0.0,-1.3097,-1.2606,-1.2046,0.0,0.0,0.0,0.0,0.0,0.0,0.0,0.0,0.0,0.0,0.0,0.0,0.0,0.0,0.0,0.0,0.0,0.0,0.0,0.0,0.0,0.0,0.0,0.0,0.0,0.0,0.0,0.0,0.0,0.0,0.0,0.0,0.0,0.0,0.0,0.0,0.0,0.0,0.0,0.0,0.0,0.0,0.0,0.0,0.0,0.0,0.0,0.0,0.0,0.0,0.0,0.0,0.0,0.0,0.0,0.0,0.0,0.0,0.0,0.0,0.0,0.0,0.0,0.0,0.0,0.0,0.0,0.0,0.0,0.0,0.0,0.0,0.0,0.0,0.0,0.0,0.0,0.0,0.0,0.0,0.0,0.0,0.0,0.0,0.0,0.0,0.0,0.0,0.0,0.0,0.0,0.0,0.0,0.0,0.0,0.0,0.0,0.0,0.0,0.0,0.0,0.0,0.0,0.0,0.0,0.0,0.0,0.0,0.0,0.0,-1.388,-1.4965,-1.4947,0.0,-1.4497,0.0,0.0,0.0,0.0,0.0,0.0,0.0,0.0,0.0,0.0,0.0,0.0,0.0,0.0,0.0,0.0,0.0,0.0,0.0,0.0,0.0,0.0,0.0,0.0,0.0,0.0,0.0,0.0,0.0,0.0,0.0,0.0,0.0,0.0,0.0,0.0,0.0,0.0,0.0,0.0,0.0,0.0,0.0,0.0,0.0,0.0,0.0,0.0,0.0,0.0,0.0,0.0,0.0,0.0,0.0,0.0,0.0,0.0,0.0,0.0,0.0,0.0,0.0,0.0,0.0,0.0,0.0,0.0,0.0,0.0,0.0,0.0,0.0,0.0,0.0,0.0,0.0,0.0,0.0,0.0,0.0,0.0,0.0,0.0,0.0,0.0,0.0,0.0,0.0,0.0,0.0,0.0,0.0,0.0,0.0,0.0,0.0,0.0,0.0,0.0,0.0,0.0,0.0,0.0,0.0,0.0,0.0,0.0,0.0,0.0,0.0,-1.5439,-1.5128,-1.4719,0.0,0.0,0.0,0.0,0.0,0.0,0.0,0.0,0.0,0.0,0.0,0.0,0.0,0.0,0.0,0.0,0.0,0.0,0.0,0.0,0.0,0.0,0.0,0.0,0.0,0.0,0.0,0.0,0.0,0.0,0.0,0.0,0.0,0.0,0.0,0.0,0.0,0.0,0.0,0.0,0.0,0.0,0.0,0.0,0.0,0.0,0.0,0.0,0.0,0.0,0.0,0.0,0.0,0.0,0.0,0.0,0.0,0.0,0.0,0.0,0.0,0.0,0.0,0.0,0.0,0.0,0.0,0.0,0.0,0.0,0.0,0.0,0.0,0.0,0.0,0.0,0.0,0.0,0.0,0.0,0.0,0.0,0.0,0.0,0.0,0.0,0.0,0.0,0.0,0.0,0.0,0.0,0.0,0.0,0.0,0.0,0.0,0.0,0.0,0.0,0.0,0.0,0.0,0.0,0.0,0.0,0.0,0.0,0.0,0.0,-1.508,0.0,-1.6133,-1.572,-1.4989,-1.3968,0.0,0.0,0.0,0.0,0.0,0.0,0.0,0.0,0.0,0.0,0.0,0.0,0.0,0.0,0.0,0.0,0.0,0.0,0.0,0.0,0.0,0.0,0.0,0.0,0.0,0.0,0.0,0.0,0.0,0.0,0.0,0.0,0.0,0.0,0.0,0.0,0.0,0.0,0.0,0.0,0.0,0.0,0.0,0.0,0.0,0.0,0.0,0.0,0.0,0.0,0.0,0.0,0.0,0.0,0.0,0.0,0.0,0.0,0.0,0.0,0.0,0.0,0.0,0.0,0.0,0.0,0.0,0.0,0.0,0.0,0.0,0.0,0.0,0.0,0.0,0.0,0.0,0.0,0.0,0.0,0.0,0.0,0.0,0.0,0.0,0.0,0.0,0.0,0.0,0.0,0.0,0.0,0.0,0.0,0.0,0.0,0.0,0.0,0.0,0.0,0.0,0.0,0.0,0.0,0.0,0.0,0.0,0.0,0.0,-1.5585,-1.5595,-1.7603,-1.728,-1.6264,0.0,0.0,0.0,0.0,0.0,0.0,0.0,0.0,0.0,0.0,0.0,0.0,0.0,0.0,0.0,0.0,0.0,0.0,0.0,0.0,0.0,0.0,0.0,0.0,0.0,0.0,0.0,0.0,0.0,0.0,0.0,0.0,0.0,0.0,0.0,0.0,0.0,0.0,0.0,0.0,0.0,0.0,0.0,0.0,0.0,0.0,0.0,0.0,0.0,0.0,0.0,0.0,0.0,0.0,0.0,0.0,0.0,0.0,0.0,0.0,0.0,0.0,0.0,0.0,0.0,0.0,0.0,0.0,0.0,0.0,0.0,0.0,0.0,0.0,0.0,0.0,0.0,0.0,0.0,0.0,0.0,0.0,0.0,0.0,0.0,0.0,0.0,0.0,0.0,0.0,0.0,0.0,0.0,0.0,0.0,0.0,0.0,0.0,0.0,0.0,0.0,0.0,0.0,0.0,0.0,0.0,0.0,0.0,0.0,-1.4911,-1.5122,-1.6492,0.0,-1.6614,-1.5203,0.0,0.0,0.0,0.0,0.0,0.0,0.0,0.0,0.0,0.0,0.0,0.0,0.0,0.0,0.0,0.0,0.0,0.0,0.0,0.0,0.0,0.0,0.0,0.0,0.0,0.0,0.0,0.0,0.0,0.0,0.0,0.0,0.0,0.0,0.0,0.0,0.0,0.0,0.0,0.0,0.0,0.0,0.0,0.0,0.0,0.0,0.0,0.0,0.0,0.0,0.0,0.0,0.0,0.0,0.0,0.0,0.0,0.0,0.0,0.0,0.0,0.0,0.0,0.0,0.0,0.0,0.0,0.0,0.0,0.0,0.0,0.0,0.0,0.0,0.0,0.0,0.0,0.0,0.0,0.0,0.0,0.0,0.0,0.0,0.0,0.0,0.0,0.0,0.0,0.0,0.0,0.0,0.0,0.0,0.0,0.0,0.0,0.0,0.0,0.0,0.0,0.0,0.0,0.0,0.0,0.0,0.0,0.0,0.0,-1.4463,0.0,-1.7766,0.0,-1.6713,-1.4924,0.0,0.0,0.0,0.0,0.0,0.0,0.0,0.0,0.0,0.0,0.0,0.0,0.0,0.0,0.0,0.0,0.0,0.0,0.0,0.0,0.0,0.0,0.0,0.0,0.0,0.0,0.0,0.0,0.0,0.0,0.0,0.0,0.0,0.0,0.0,0.0,0.0,0.0,0.0,0.0,0.0,0.0,0.0,0.0,0.0,0.0,0.0,0.0,0.0,0.0,0.0,0.0,0.0,0.0,0.0,0.0,0.0,0.0,0.0,0.0,0.0,0.0,0.0,0.0,0.0,0.0,0.0,0.0,0.0,0.0,0.0,0.0,0.0,0.0,0.0,0.0,0.0,0.0,0.0,0.0,0.0,0.0,0.0,0.0,0.0,0.0,0.0,0.0,0.0,0.0,0.0,0.0,0.0,0.0,0.0,0.0,0.0,0.0,0.0,0.0,0.0,0.0,0.0,0.0,0.0,0.0,0.0,0.0,-1.3794,-1.657,-1.8729,-1.9174,-1.7918,-1.7704,-1.5653,0.0,0.0,0.0,0.0,0.0,0.0,0.0,0.0,0.0,0.0,0.0,0.0,0.0,0.0,0.0,0.0,0.0,0.0,0.0,0.0,0.0,0.0,0.0,0.0,0.0,0.0,0.0,0.0,0.0,0.0,0.0,0.0,0.0,0.0,0.0,0.0,0.0,0.0,0.0,0.0,0.0,0.0,0.0,0.0,0.0,0.0,0.0,0.0,0.0,0.0,0.0,0.0,0.0,0.0,0.0,0.0,0.0,0.0,0.0,0.0,0.0,0.0,0.0,0.0,0.0,0.0,0.0,0.0,0.0,0.0,0.0,0.0,0.0,0.0,0.0,0.0,0.0,0.0,0.0,0.0,0.0,0.0,0.0,0.0,0.0,0.0,0.0,0.0,0.0,0.0,0.0,0.0,0.0,0.0,0.0,0.0,0.0,0.0,0.0,0.0,0.0,0.0,0.0,0.0,0.0,0.0,0.0,0.0,0.0,-1.5977,-1.7597,-1.9017,-1.9989,-1.7134,-1.5585,0.0,0.0,0.0,0.0,0.0,0.0,0.0,0.0,0.0,0.0,0.0,0.0,0.0,0.0,0.0,0.0,0.0,0.0,0.0,0.0,0.0,0.0,0.0,0.0,0.0,0.0,0.0,0.0,0.0,0.0,0.0,0.0,0.0,0.0,0.0,0.0,0.0,0.0,0.0,0.0,0.0,0.0,0.0,0.0,0.0,0.0,0.0,0.0,0.0,0.0,0.0,0.0,0.0,0.0,0.0,0.0,0.0,0.0,0.0,0.0,0.0,0.0,0.0,0.0,0.0,0.0,0.0,0.0,0.0,0.0,0.0,0.0,0.0,0.0,0.0,0.0,0.0,0.0,0.0,0.0,0.0,0.0,0.0,0.0,0.0,0.0,0.0,0.0,0.0,0.0,0.0,0.0,0.0,0.0,0.0,0.0,0.0,0.0,0.0,0.0,0.0,0.0,0.0,0.0,0.0,0.0,0.0,0.0,0.0,-1.8968,-1.9807,-2.0703,-2.1597,-1.8606,-1.6836,-1.6515,0.0,0.0,0.0,0.0,0.0,0.0,0.0,0.0,0.0,0.0,0.0,0.0,0.0,0.0,0.0,0.0,0.0,0.0,0.0,0.0,0.0,0.0,0.0,0.0,0.0,0.0,0.0,0.0,0.0,0.0,0.0,0.0,0.0,0.0,0.0,0.0,0.0,0.0,0.0,0.0,0.0,0.0,0.0,0.0,0.0,0.0,0.0,0.0,0.0,0.0,0.0,0.0,0.0,0.0,0.0,0.0,0.0,0.0,0.0,0.0,0.0,0.0,0.0,0.0,0.0,0.0,0.0,0.0,0.0,0.0,0.0,0.0,0.0,0.0,0.0,0.0,0.0,0.0,0.0,0.0,0.0,0.0,0.0,0.0,0.0,0.0,0.0,0.0,0.0,0.0,0.0,0.0,0.0,0.0,0.0,0.0,0.0,0.0,0.0,0.0,0.0,0.0,0.0,0.0,0.0,0.0,0.0,0.0,-2.4757,-2.4913,-2.4289,-2.2852,-2.187,-1.9362,0.0,0.0,0.0,0.0,0.0,0.0,0.0,0.0,0.0,0.0,0.0,0.0,0.0,0.0,0.0,0.0,0.0,0.0,0.0,0.0,0.0,0.0,0.0,0.0,0.0,0.0,0.0,0.0,0.0,0.0,0.0,0.0,0.0,0.0,0.0,0.0,0.0,0.0,0.0,0.0,0.0,0.0,0.0,0.0,0.0,0.0,0.0,0.0,0.0,0.0,0.0,0.0,0.0,0.0,0.0,0.0,0.0,0.0,0.0,0.0,0.0,0.0,0.0,0.0,0.0,0.0,0.0,0.0,0.0,0.0,0.0,0.0,0.0,0.0,0.0,0.0,0.0,0.0,0.0,0.0,0.0,0.0,0.0,0.0,0.0,0.0,0.0,0.0,0.0,0.0,0.0,0.0,0.0,0.0,0.0,0.0,0.0,0.0,0.0,0.0,0.0,0.0,0.0,0.0,0.0,0.0,0.0,0.0,0.0,-2.8029,-3.0036,-3.0108,-2.8095,-2.5202,-2.2674,0.0,0.0,0.0,0.0,0.0,0.0,0.0,0.0,0.0,0.0,0.0,0.0,0.0,0.0,0.0,0.0,0.0,0.0,0.0,0.0,0.0,0.0,0.0,0.0,0.0,0.0,0.0,0.0,0.0,0.0,0.0,0.0,0.0,0.0,0.0,0.0,0.0,0.0,0.0,0.0,0.0,0.0,0.0,0.0,0.0,0.0,0.0,0.0,0.0,0.0,0.0,0.0,0.0,0.0,0.0,0.0,0.0,0.0,0.0,0.0,0.0,0.0,0.0,0.0,0.0,0.0,0.0,0.0,0.0,0.0,0.0,0.0,0.0,0.0,0.0,0.0,0.0,0.0,0.0,0.0,0.0,0.0,0.0,0.0,0.0,0.0,0.0,0.0,0.0,0.0,0.0,0.0,0.0,0.0,0.0,0.0,0.0,0.0,0.0,0.0,0.0,0.0,0.0,0.0,0.0,0.0,0.0,0.0,-2.7525,-3.058,-3.3698,-3.467,-3.3385,-2.9144,-2.5378,0.0,0.0,0.0,0.0,0.0,0.0,0.0,0.0,0.0,0.0,0.0,0.0,0.0,0.0,0.0,0.0,0.0,0.0,0.0,0.0,0.0,0.0,0.0,0.0,0.0,0.0,0.0,0.0,0.0,0.0,0.0,0.0,0.0,0.0,0.0,0.0,0.0,0.0,0.0,0.0,0.0,0.0,0.0,0.0,0.0,0.0,0.0,0.0,0.0,0.0,0.0,0.0,0.0,0.0,0.0,0.0,0.0,0.0,0.0,0.0,0.0,0.0,0.0,0.0,0.0,0.0,0.0,0.0,0.0,0.0,0.0,0.0,0.0,0.0,0.0,0.0,0.0,0.0,0.0,0.0,0.0,0.0,0.0,0.0,0.0,0.0,0.0,0.0,0.0,0.0,0.0,0.0,0.0,0.0,0.0,0.0,0.0,0.0,0.0,0.0,0.0,0.0,0.0,0.0,0.0,0.0,0.0,0.0,-3.0093,-3.2459,-3.6169,-3.8058,-3.7746,-3.2983,-2.7811,0.0,0.0,0.0,0.0,0.0,0.0,0.0,0.0,0.0,0.0,0.0,0.0,0.0,0.0,0.0,0.0,0.0,0.0,0.0,0.0,0.0,0.0,0.0,0.0,0.0,0.0,0.0,0.0,0.0,0.0,0.0,0.0,0.0,0.0,0.0,0.0,0.0,0.0,0.0,0.0,0.0,0.0,0.0,0.0,0.0,0.0,0.0,0.0,0.0,0.0,0.0,0.0,0.0,0.0,0.0,0.0,0.0,0.0,0.0,0.0,0.0,0.0,0.0,0.0,0.0,0.0,0.0,0.0,0.0,0.0,0.0,0.0,0.0,0.0,0.0,0.0,0.0,0.0,0.0,0.0,0.0,0.0,0.0,0.0,0.0,0.0,0.0,0.0,0.0,0.0,0.0,0.0,0.0,0.0,0.0,0.0,0.0,0.0,0.0,0.0,0.0,0.0,0.0,0.0,0.0,0.0,0.0,0.0,-3.1462,-3.3568,-3.7545,-3.9073,-3.7922,-3.3947,-3.0371,0.0,0.0,0.0,0.0,0.0,0.0,0.0,0.0,0.0,0.0,0.0,0.0,0.0,0.0,0.0,0.0,0.0,0.0,0.0,0.0,0.0,0.0,0.0,0.0,0.0,0.0,0.0,0.0,0.0,0.0,0.0,0.0,0.0,0.0,0.0,0.0,0.0,0.0,0.0,0.0,0.0,0.0,0.0,0.0,0.0,0.0,0.0,0.0,-1.7358,0.0,0.0,0.0,0.0,0.0,0.0,0.0,0.0,0.0,0.0,0.0,0.0,0.0,0.0,0.0,0.0,0.0,0.0,0.0,0.0,0.0,0.0,0.0,0.0,0.0,0.0,0.0,0.0,0.0,0.0,0.0,0.0,0.0,0.0,0.0,0.0,0.0,0.0,0.0,0.0,0.0,0.0,0.0,0.0,0.0,0.0,0.0,0.0,0.0,0.0,0.0,0.0,0.0,0.0,0.0,0.0,0.0,0.0,0.0,-3.2557,-3.5232,-3.8431,-3.9571,-3.8362,-3.5098,-3.1781,0.0,0.0,0.0,0.0,0.0,0.0,0.0,0.0,0.0,0.0,0.0,0.0,0.0,0.0,0.0,0.0,0.0,0.0,0.0,0.0,0.0,0.0,0.0,0.0,0.0,0.0,0.0,0.0,0.0,0.0,0.0,0.0,0.0,0.0,0.0,0.0,0.0,0.0,0.0,0.0,0.0,0.0,0.0,0.0,0.0,0.0,0.0,0.0,0.0,0.0,0.0,0.0,0.0,0.0,0.0,0.0,0.0,0.0,0.0,0.0,0.0,0.0,0.0,0.0,0.0,0.0,0.0,0.0,0.0,0.0,0.0,0.0,0.0,0.0,0.0,0.0,0.0,0.0,0.0,0.0,0.0,0.0,0.0,0.0,0.0,0.0,0.0,0.0,0.0,0.0,0.0,0.0,0.0,0.0,0.0,0.0,0.0,0.0,0.0,0.0,0.0,0.0,0.0,0.0,0.0,0.0,0.0,-2.9557,-3.3285,-3.6869,-3.9029,-3.9757,-3.8971,-3.6084,-3.2567,-2.851,0.0,0.0,0.0,0.0,0.0,0.0,0.0,0.0,0.0,0.0,0.0,0.0,0.0,0.0,0.0,0.0,0.0,0.0,0.0,0.0,0.0,0.0,0.0,0.0,0.0,0.0,0.0,0.0,0.0,0.0,0.0,0.0,0.0,0.0,0.0,0.0,0.0,0.0,-1.5976,-1.8099,0.0,0.0,0.0,0.0,0.0,0.0,0.0,0.0,-2.0068,0.0,0.0,0.0,0.0,0.0,0.0,0.0,0.0,0.0,0.0,0.0,0.0,0.0,0.0,0.0,0.0,0.0,0.0,0.0,0.0,0.0,0.0,0.0,0.0,0.0,0.0,0.0,0.0,0.0,0.0,0.0,0.0,0.0,0.0,0.0,0.0,0.0,0.0,0.0,0.0,0.0,0.0,0.0,0.0,0.0,0.0,0.0,0.0,0.0,0.0,0.0,0.0,0.0,0.0,0.0,0.0,-2.8032,-2.9833,-3.2977,-3.7625,-3.9259,-3.9757,-3.8954,-3.6062,-3.2805,-2.9162,0.0,0.0,0.0,0.0,0.0,0.0,0.0,0.0,0.0,0.0,0.0,0.0,0.0,0.0,0.0,0.0,0.0,0.0,0.0,0.0,0.0,0.0,0.0,0.0,0.0,0.0,0.0,0.0,0.0,0.0,0.0,0.0,0.0,0.0,0.0,0.0,0.0,0.0,0.0,-2.0645,-2.1336,0.0,0.0,0.0,0.0,0.0,0.0,0.0,0.0,-2.1983,0.0,0.0,0.0,0.0,0.0,0.0,0.0,0.0,0.0,0.0,0.0,0.0,0.0,0.0,0.0,0.0,0.0,0.0,0.0,0.0,0.0,0.0,0.0,0.0,0.0,0.0,0.0,0.0,0.0,0.0,0.0,0.0,0.0,0.0,0.0,0.0,0.0,0.0,0.0,0.0,0.0,0.0,0.0,0.0,0.0,0.0,0.0,0.0,0.0,0.0,0.0,0.0,0.0,0.0,0.0,-2.8705,-3.0979,-3.4291,-3.886,-3.974,-3.9571,-3.8396,-3.5154,-3.1986,0.0,0.0,0.0,0.0,0.0,0.0,0.0,0.0,0.0,0.0,0.0,0.0,0.0,0.0,0.0,0.0,0.0,0.0,0.0,0.0,0.0,0.0,0.0,0.0,0.0,0.0,0.0,0.0,0.0,0.0,0.0,0.0,0.0,0.0,0.0,0.0,0.0,0.0,0.0,0.0,-2.2275,-2.2997,-2.3601,0.0,0.0,0.0,0.0,0.0,0.0,-2.3106,-2.2829,0.0,0.0,0.0,0.0,0.0,0.0,0.0,0.0,0.0,0.0,0.0,0.0,0.0,0.0,0.0,0.0,0.0,0.0,0.0,0.0,0.0,0.0,0.0,0.0,0.0,0.0,0.0,0.0,0.0,0.0,0.0,0.0,0.0,0.0,0.0,0.0,0.0,0.0,0.0,0.0,0.0,0.0,0.0,0.0,0.0,0.0,0.0,0.0,0.0,0.0,0.0,0.0,0.0,0.0,0.0,-2.9145,-3.1854,-3.5419,-3.9859,-3.996,-3.9225,-3.7905,-3.4257,-3.1092,0.0,0.0,0.0,0.0,0.0,0.0,0.0,0.0,0.0,0.0,0.0,0.0,0.0,0.0,0.0,0.0,0.0,0.0,0.0,0.0,0.0,0.0,0.0,0.0,0.0,0.0,0.0,0.0,0.0,0.0,0.0,0.0,0.0,0.0,0.0,0.0,0.0,0.0,0.0,0.0,0.0,-2.4833,-2.4825,-2.4574,0.0,0.0,0.0,0.0,-2.4213,-2.4729,0.0,0.0,0.0,0.0,0.0,0.0,0.0,0.0,0.0,0.0,0.0,0.0,0.0,0.0,0.0,0.0,0.0,0.0,0.0,0.0,0.0,0.0,0.0,0.0,0.0,0.0,0.0,0.0,0.0,0.0,0.0,0.0,0.0,0.0,0.0,0.0,0.0,0.0,0.0,0.0,0.0,0.0,0.0,0.0,0.0,0.0,0.0,0.0,0.0,0.0,0.0,0.0,0.0,0.0,0.0,0.0,-2.9076,-3.1363,-3.4934,-3.9757,-3.9486,-3.8717,-3.7889,-3.4273,-3.0834,0.0,0.0,0.0,0.0,0.0,0.0,0.0,0.0,0.0,0.0,0.0,0.0,0.0,0.0,0.0,0.0,0.0,0.0,0.0,0.0,0.0,0.0,0.0,0.0,0.0,0.0,0.0,0.0,0.0,0.0,0.0,0.0,0.0,0.0,0.0,0.0,0.0,0.0,0.0,0.0,0.0,-2.671,-2.6081,-2.6158,-2.6268,0.0,0.0,0.0,-2.8708,-3.0114,0.0,0.0,0.0,0.0,0.0,0.0,0.0,0.0,0.0,0.0,0.0,0.0,0.0,0.0,0.0,0.0,0.0,0.0,0.0,0.0,0.0,0.0,0.0,0.0,0.0,0.0,0.0,0.0,0.0,0.0,0.0,0.0,0.0,0.0,0.0,0.0,0.0,0.0,0.0,0.0,0.0,0.0,0.0,0.0,0.0,0.0,0.0,0.0,0.0,0.0,0.0,0.0,0.0,0.0,0.0,-2.3548,-2.8372,-3.2215,-3.5893,-3.9317,-3.9157,-3.865,-3.7922,-3.3055,-2.9447,0.0,0.0,0.0,0.0,0.0,0.0,0.0,0.0,0.0,0.0,0.0,0.0,0.0,0.0,0.0,0.0,0.0,0.0,0.0,0.0,0.0,0.0,0.0,0.0,0.0,0.0,0.0,0.0,0.0,0.0,0.0,0.0,0.0,0.0,0.0,0.0,0.0,0.0,0.0,0.0,0.0,0.0,-2.7933,-2.8102,0.0,0.0,0.0,-3.003,-2.9715,0.0,0.0,0.0,0.0,0.0,0.0,0.0,0.0,0.0,0.0,0.0,0.0,0.0,0.0,0.0,0.0,0.0,0.0,0.0,0.0,0.0,0.0,0.0,0.0,0.0,0.0,0.0,0.0,0.0,0.0,0.0,0.0,0.0,0.0,0.0,0.0,0.0,0.0,0.0,0.0,0.0,0.0,0.0,0.0,0.0,0.0,0.0,0.0,0.0,0.0,0.0,0.0,0.0,0.0,0.0,0.0,0.0,-2.7807,-3.276,-3.6434,-3.8616,-3.8531,-3.8176,-3.755,-3.2357,0.0,0.0,0.0,0.0,0.0,0.0,0.0,0.0,0.0,0.0,0.0,0.0,0.0,0.0,0.0,0.0,0.0,0.0,0.0,0.0,0.0,0.0,0.0,0.0,0.0,0.0,0.0,-0.9867,0.0,0.0,0.0,0.0,0.0,0.0,0.0,0.0,0.0,0.0,0.0,0.0,0.0,0.0,-2.9759,-3.0036,-3.0317,-3.0915,0.0,0.0,-3.1905,-3.1429,-3.2964,-3.2802,0.0,0.0,0.0,0.0,0.0,0.0,0.0,0.0,0.0,0.0,0.0,0.0,0.0,0.0,0.0,0.0,0.0,0.0,0.0,0.0,0.0,0.0,0.0,0.0,0.0,0.0,0.0,0.0,0.0,0.0,0.0,0.0,0.0,0.0,0.0,0.0,0.0,0.0,0.0,0.0,0.0,0.0,0.0,0.0,0.0,0.0,0.0,0.0,0.0,0.0,0.0,0.0,0.0,0.0,0.0,-2.7807,-3.2273,-3.569,-3.7872,-3.728,-3.6931,-3.6829,-3.3106,-2.9799,0.0,0.0,0.0,0.0,0.0,0.0,0.0,0.0,0.0,0.0,0.0,0.0,0.0,0.0,0.0,0.0,0.0,0.0,0.0,0.0,0.0,0.0,0.0,0.0,0.0,0.0,0.0,0.0,0.0,0.0,0.0,0.0,0.0,0.0,0.0,0.0,0.0,0.0,0.0,0.0,0.0,-3.2087,-3.2417,-3.284,-3.3916,0.0,0.0,-3.4138,-3.5614,-3.7213,-3.641,-3.0888,0.0,0.0,0.0,0.0,0.0,0.0,0.0,0.0,0.0,0.0,0.0,0.0,0.0,0.0,0.0,0.0,0.0,0.0,0.0,0.0,0.0,0.0,0.0,0.0,0.0,0.0,0.0,0.0,0.0,0.0,0.0,0.0,0.0,0.0,0.0,0.0,0.0,0.0,0.0,0.0,0.0,0.0,0.0,0.0,0.0,0.0,0.0,0.0,0.0,0.0,0.0,0.0,0.0,-2.4196,-2.779,-3.2658,-3.6079,-3.7804,-3.7618,-3.7466,-3.7483,-3.3389,-3.0046,0.0,0.0,0.0,0.0,0.0,0.0,0.0,0.0,0.0,0.0,0.0,0.0,0.0,0.0,0.0,0.0,0.0,0.0,0.0,0.0,0.0,0.0,0.0,0.0,0.0,0.0,0.0,0.0,-1.5578,-1.6397,-1.6069,0.0,0.0,0.0,0.0,0.0,0.0,0.0,0.0,0.0,0.0,-3.2686,-3.4858,-3.5457,0.0,0.0,-3.8047,-3.7606,-3.7753,-3.7863,-3.6523,-3.2357,-3.0705,0.0,0.0,0.0,0.0,0.0,0.0,0.0,0.0,0.0,0.0,0.0,0.0,0.0,0.0,0.0,0.0,0.0,0.0,0.0,0.0,0.0,0.0,0.0,0.0,0.0,0.0,0.0,0.0,0.0,0.0,0.0,0.0,0.0,0.0,0.0,0.0,0.0,0.0,0.0,0.0,0.0,0.0,0.0,0.0,0.0,0.0,0.0,0.0,0.0,0.0,0.0,0.0,-2.4581,-2.8163,-3.3081,-3.6366,-3.7872,-3.7686,-3.7567,-3.7466,-3.3863,-3.0801,0.0,0.0,0.0,0.0,0.0,0.0,0.0,0.0,0.0,0.0,0.0,0.0,0.0,0.0,0.0,0.0,0.0,0.0,0.0,0.0,0.0,0.0,0.0,0.0,0.0,0.0,0.0,0.0,-1.6898,-1.7286,-1.6805,0.0,0.0,0.0,0.0,0.0,0.0,0.0,0.0,0.0,0.0,-3.4019,-3.6965,-3.7542,-3.8222,-3.9788,-3.9326,-3.8703,-3.8336,-3.7854,-3.6421,-3.3273,0.0,0.0,0.0,0.0,0.0,0.0,0.0,0.0,0.0,0.0,0.0,0.0,0.0,0.0,0.0,0.0,0.0,0.0,0.0,0.0,0.0,0.0,0.0,0.0,0.0,0.0,0.0,0.0,0.0,0.0,-1.343,0.0,0.0,0.0,0.0,0.0,0.0,0.0,0.0,0.0,0.0,0.0,0.0,0.0,0.0,0.0,0.0,0.0,0.0,0.0,0.0,0.0,0.0,0.0,-2.8959,-3.3389,-3.636,-3.7838,-3.7195,-3.6897,-3.6812,-3.4573,-3.2307,-3.0021,0.0,0.0,0.0,0.0,0.0,0.0,0.0,0.0,0.0,0.0,0.0,0.0,0.0,0.0,0.0,0.0,0.0,0.0,0.0,0.0,0.0,0.0,0.0,0.0,0.0,0.0,-1.4682,-1.5893,-1.6668,0.0,0.0,0.0,0.0,0.0,0.0,0.0,0.0,0.0,0.0,-3.3336,-3.6556,-3.86,-3.8959,-3.9284,-4.0221,-3.8184,-3.6708,-3.7417,-3.7484,-3.6512,0.0,0.0,0.0,0.0,0.0,0.0,0.0,0.0,0.0,0.0,0.0,0.0,0.0,0.0,0.0,0.0,0.0,0.0,0.0,0.0,0.0,0.0,0.0,0.0,0.0,0.0,0.0,-1.9875,-1.8927,0.0,0.0,0.0,0.0,0.0,0.0,0.0,0.0,0.0,0.0,0.0,-2.9348,-3.0406,0.0,0.0,0.0,0.0,0.0,0.0,0.0,0.0,0.0,0.0,0.0,0.0,-2.6299,-2.9738,-3.4134,-3.7127,-3.8565,-3.8396,-3.8024,-3.7533,-3.5808,-3.2878,-2.8686,0.0,0.0,0.0,0.0,0.0,0.0,0.0,0.0,0.0,0.0,0.0,0.0,0.0,0.0,0.0,0.0,0.0,0.0,0.0,0.0,0.0,0.0,0.0,0.0,0.0,-1.6224,0.0,0.0,0.0,0.0,0.0,0.0,0.0,0.0,0.0,0.0,0.0,-2.9162,-3.2615,-3.4168,-3.6024,-3.8938,-3.9466,-4.0268,0.0,0.0,0.0,0.0,0.0,0.0,0.0,0.0,0.0,0.0,0.0,0.0,0.0,0.0,-3.7422,-3.2344,-3.1164,-3.1072,-3.1329,0.0,0.0,0.0,0.0,0.0,0.0,0.0,0.0,0.0,0.0,0.0,0.0,0.0,0.0,-2.4881,0.0,-2.2736,0.0,0.0,0.0,0.0,0.0,0.0,0.0,0.0,-3.105,-3.3123,-3.4252,-3.4996,-3.4945,0.0,-3.2784,-2.9281,0.0,0.0,0.0,0.0,0.0,0.0,0.0,0.0,-2.7738,-3.0888,-3.5289,-3.8166,-3.9292,-3.9148,-3.865,-3.7905,-3.6163,-3.3487,-2.9869,-2.7165,-2.4814,0.0,0.0,0.0,0.0,0.0,0.0,0.0,0.0,0.0,0.0,0.0,0.0,0.0,0.0,0.0,0.0,0.0,0.0,0.0,0.0,0.0,0.0,0.0,-1.7741,0.0,0.0,0.0,0.0,0.0,0.0,0.0,0.0,0.0,-2.7806,-2.9656,-3.2284,-3.5591,-3.6634,-3.7833,-3.9884,0.0,0.0,0.0,0.0,0.0,0.0,0.0,-3.8569,-3.8946,-3.8465,-3.8524,-4.0102,-4.1901,-4.269,-4.1334,0.0,0.0,-3.7312,-3.6138,-3.6009,-3.6285,-3.678,-3.7055,-3.6762,-3.779,-3.8597,0.0,0.0,0.0,0.0,0.0,0.0,0.0,0.0,-3.0751,-3.0801,0.0,-2.7588,0.0,0.0,0.0,0.0,0.0,0.0,0.0,0.0,-3.6984,-3.8667,-3.8142,-3.8785,-3.8751,-3.8067,-3.7956,-3.64,-3.3355,-2.7791,0.0,0.0,0.0,0.0,0.0,0.0,-2.9903,-3.2466,-3.6745,-3.9343,-4.0045,-3.9394,-3.8684,-3.7905,-3.5757,-3.4218,-3.3389,-3.1275,-2.8787,-2.5829,-2.2178,0.0,0.0,0.0,0.0,0.0,0.0,0.0,0.0,0.0,0.0,0.0,0.0,0.0,0.0,0.0,0.0,0.0,0.0,0.0,0.0,-1.8104,0.0,0.0,0.0,0.0,0.0,0.0,0.0,0.0,0.0,0.0,-3.0058,-3.2808,-3.5969,-3.8404,0.0,0.0,0.0,0.0,-4.1882,-4.0033,-3.8969,-3.8198,-3.7456,-3.8977,-4.0219,-3.9909,0.0,0.0,-4.3864,-4.4305,-4.4176,-4.1829,-4.337,-4.4562,-4.3699,-4.1552,-4.0359,-4.0985,-4.0104,-3.935,-3.9992,-4.0983,-4.1499,-3.9039,0.0,0.0,0.0,0.0,-3.4675,-3.6,-3.8294,-3.7543,-3.7036,-3.6586,-3.3909,0.0,0.0,0.0,0.0,0.0,0.0,-3.4563,-3.6761,-3.8819,-4.0493,-4.182,-4.2049,-4.2023,-4.1786,-4.0764,-3.9834,-3.887,-3.618,-3.1414,-2.4856,0.0,0.0,0.0,0.0,-3.2036,-3.4663,-3.7516,-3.9343,-4.0096,-3.9893,-3.9174,-3.7939,-3.6755,-3.5504,-3.4218,-3.3068,-3.1343,-2.8872,-2.5728,0.0,0.0,0.0,0.0,0.0,0.0,0.0,0.0,0.0,0.0,0.0,0.0,0.0,0.0,0.0,0.0,0.0,0.0,0.0,-1.811,-1.98,-2.1037,0.0,0.0,0.0,0.0,0.0,0.0,0.0,0.0,0.0,-3.6738,-3.6744,-3.7546,0.0,0.0,-3.9505,-4.0668,-4.0841,-4.1325,-4.2652,0.0,0.0,0.0,-4.3249,-4.2903,-4.3925,-4.6046,-4.726,-4.6232,-4.7241,-4.7774,-4.6415,-4.6801,-4.7205,-4.6893,-4.5443,-4.4323,-4.447,-4.458,-4.4746,-4.5021,-4.5663,-4.6177,-4.5889,-4.1567,-3.9259,-3.8971,-4.002,-3.9614,-4.0933,-4.3352,-4.232,-4.2117,-4.2337,-3.9512,-3.7516,-3.6118,-3.3458,0.0,0.0,0.0,-3.8201,-4.0804,-4.1222,-4.2286,-4.3826,-4.3876,-4.3893,-4.3826,-4.2658,-4.2083,-4.2049,-4.0595,-3.6797,-3.0882,0.0,0.0,-2.8801,-3.1824,-3.4264,-3.6084,-3.8294,-3.9673,-4.0096,-3.9825,-3.9089,-3.7956,-3.7178,-3.622,-3.4996,-3.4235,-3.2949,-3.1021,-2.8399,-2.5372,0.0,0.0,0.0,0.0,0.0,0.0,0.0,0.0,0.0,0.0,0.0,-1.3563,0.0,0.0,0.0,0.0,-1.7659,-1.9469,-2.138,-2.2825,0.0,0.0,0.0,0.0,0.0,0.0,0.0,-3.4665,-3.7263,-3.9448,-4.0662,-3.9963,-4.0199,-4.2512,-4.1895,-4.1512,-4.2237,0.0,-4.2562,-4.367,-4.3576,-4.3786,-4.4983,-4.4667,-4.492,-4.702,-4.8122,-4.8636,-4.8233,-4.8948,-4.926,-4.8563,-4.8324,-4.8324,-4.8324,-4.7498,-4.6856,-4.6874,-4.7223,-4.7553,-4.7571,-4.7957,-4.8324,-5.1234,-5.0712,-4.528,-4.3403,-4.4001,-4.395,-4.5128,-4.6904,-4.5534,-4.6075,-4.7652,-4.4231,-4.2574,-4.2269,-3.9012,0.0,0.0,-4.0553,-4.2025,-4.4666,-4.3876,-4.3893,-4.4598,-4.4598,-4.4598,-4.4581,-4.3842,-4.3477,-4.3409,-4.2134,-4.0375,-3.8244,-3.6488,-3.4741,-3.3321,-3.5252,-3.662,-3.7168,-3.9114,-4.0096,-4.0096,-3.9428,-3.87,-3.7922,-3.7202,-3.6406,-3.5532,-3.4793,-3.3766,-3.2327,-3.0245,-2.774,-2.4762,0.0,0.0,0.0,0.0,0.0,0.0,0.0,0.0,0.0,0.0,0.0,0.0,0.0,0.0,0.0,-2.2482,0.0,-2.5812,-2.6691,0.0,0.0,0.0,-3.1395,-3.3533,-3.6361,-3.854,-3.9609,0.0,0.0,0.0,0.0,-4.3388,-4.5878,-4.6089,-4.5705,-4.4967,-4.4876,-4.4689,-4.3523,-4.2929,-4.2632,-4.3254,-4.4447,-4.6298,-4.8718,-4.95,-4.939,-4.9335,-4.937,-4.9133,-4.8453,-4.8324,-4.8324,-4.8324,-4.8251,-4.8324,-4.8233,-4.8269,-4.8288,-4.8269,-4.8288,-4.8324,-5.1234,-5.1082,-4.9678,-4.9204,-4.9292,-4.8748,-4.8815,-4.9204,-4.8359,-4.8257,-4.8595,-4.6616,-4.5111,-4.4039,-4.3724,-4.3876,-4.4367,-4.4367,-4.4756,-4.5382,-4.4654,-4.4429,-4.4598,-4.4598,-4.4598,-4.4598,-4.4384,-4.4316,-4.4282,-4.3988,-4.2929,-4.1314,-4.0798,-3.8982,-3.6033,-3.7488,-3.8933,-4.0138,-4.0104,-4.0113,-4.0113,-3.9926,-3.9233,-3.7956,-3.7202,-3.6169,-3.481,-3.4049,-3.3237,-3.231,-3.0717,-2.8738,-2.6268,-2.251,0.0,0.0,0.0,0.0,0.0,0.0,0.0,0.0,0.0,-1.9118,-1.4825,0.0,-2.1992,0.0,-2.6201,-2.8653,-2.9008,-3.0421,0.0,0.0,-3.4444,-3.5672,-3.8155,-3.9611,-4.0527,-4.0798,-4.217,-4.3331,-4.3829,-4.3889,-4.4501,-4.6093,-4.4582,-4.3341,-4.3557,-4.3757,-4.395,-4.4102,-4.4406,-4.4888,-4.5303,-4.6232,-4.7265,-4.841,-4.8636,-4.8618,-4.8618,-4.86,-4.8526,-4.8343,-4.8324,-4.8324,-4.8361,-4.8324,-4.8343,-4.8324,-4.8324,-4.8324,-4.8324,-4.8324,-4.8324,-5.2199,-5.2232,-5.2232,-5.1827,-5.1183,-5.0777,-5.0591,-5.0557,-5.0152,-4.9982,-4.9915,-4.8781,-4.7614,-4.6583,-4.6989,-4.7175,-4.7158,-4.6836,-4.6515,-4.616,-4.5415,-4.4908,-4.4598,-4.4598,-4.4598,-4.4598,-4.4598,-4.4598,-4.4598,-4.4598,-4.4175,-4.3345,-4.3328,-4.21,-3.9834,-3.9563,-3.9901,-4.0696,-4.0316,-4.0265,-4.0561,-4.0265,-3.9233,-3.7483,-3.7032,-3.5763,-3.3592,-3.3119,-3.2256,-3.0888,-3.0059,-2.8721,-2.6776,-2.3848,-2.163,0.0,0.0,0.0,0.0,0.0,0.0,0.0,0.0,0.0,0.0,0.0,-2.571,0.0,-3.0345,0.0,-3.3051,-3.4563,-3.6236,-3.7905,-3.8547,-3.9581,-4.1399,-4.254,-4.32,-4.3217,-4.3927,-4.4676,-4.5343,-4.5157,-4.536,-4.6421,-4.5255,-4.4286,-4.4234,-4.4302,-4.4401,-4.4498,-4.507,-4.5833,-4.6687,-4.715,-4.7759,-4.8648,-4.8875,-4.8985,-4.9352,-4.9426,-4.9407,-4.9407,-4.9407,-4.9426,-4.9426,-4.9407,-4.9426,-4.9407,-4.9407,-4.915,-4.8471,-4.8324,-4.8324,-5.3518,-5.3518,-5.3518,-5.2739,-5.1522,-5.1472,-5.1219,-5.0762,-5.0693,-5.0728,-5.0864,-5.0439,-4.983,-4.9154,-4.9137,-4.9103,-4.8951,-4.821,-4.7513,-4.6769,-4.6041,-4.5314,-4.4615,-4.4598,-4.4598,-4.4598,-4.4598,-4.4598,-4.4598,-4.4598,-4.4547,-4.4479,-4.4462,-4.4028,-4.3217,-4.1339,-4.0333,-4.0265,-4.0333,-4.0595,-4.1035,-4.0324,-3.8911,-3.6778,-3.6474,-3.5052,-3.2327,-3.2073,-3.1142,-2.9281,-2.9128,-2.8536,-2.7182,-2.5118,-2.3917,0.0,-2.2006,0.0,0.0,0.0,0.0,0.0,0.0,0.0,0.0,-2.8824,-3.0516,-3.1799,-3.4585,-3.662,-3.728,-3.8684,-4.007,-4.1339,-4.2134,-4.2844,-4.3511,-4.4756,-4.5568,-4.5551,-4.5652,-4.5957,-4.6443,-4.616,-4.6092,-4.6636,-4.6641,-4.6289,-4.5817,-4.5648,-4.5459,-4.4925,-4.5343,-4.6194,-4.7306,-4.7611,-4.8124,-4.9395,-4.9757,-4.9994,-5.06,-5.0729,-5.0765,-5.0765,-5.0692,-5.0729,-5.0802,-5.0765,-5.0765,-5.0692,-5.0674,-5.0251,-4.9114,-4.8783,-4.8618,-5.3518,-5.3518,-5.3518,-5.3331,-5.3061,-5.3061,-5.1336,-4.848,-4.7902,-4.8308,-4.9475,-5.0541,-5.0574,-4.9898,-4.9898,-4.956,-4.8968,-4.8257,-4.7513,-4.6769,-4.6058,-4.5297,-4.4632,-4.4598,-4.4598,-4.4598,-4.4598,-4.4598,-4.4598,-4.4598,-4.4265,-4.3612,-4.3639,-4.325,-4.254,0.0,0.0,0.0,-4.1602,-4.1373,-4.0333,-3.9588,-3.8142,-3.5887,-3.4675,0.0,-3.1515,-3.0835,-3.0328,-2.9922,-2.9888,0.0,0.0,0.0,0.0,0.0,0.0,0.0,0.0,0.0,0.0,0.0,-3.1546,-3.0531,-2.8874,-3.2716,-3.5441,-3.5797,-3.843,-4.0206,-4.0375,-4.1694,-4.2665,-4.2953,-4.369,-4.4225,-4.4395,-4.4637,-4.4818,-4.4818,-4.5331,-4.5754,-4.5974,-4.6278,-4.6633,-4.6836,-4.6786,-4.6726,-4.66,-4.6555,-4.6486,-4.6421,-4.6459,-4.7048,-4.8342,-4.8514,-4.8959,-5.0203,-5.0582,-5.0655,-5.0839,-5.0875,-5.0839,-5.0875,-5.082,-5.0857,-5.0857,-5.082,-5.0912,-5.082,-5.0839,-5.071,-5.0398,-5.0325,-5.0325,-5.3326,0.0,-5.3518,-5.3078,0.0,-5.2367,-5.0879,-4.8528,-4.9644,-5.0304,-5.0676,-5.142,-5.1336,-5.0591,-4.9881,-4.9357,-4.8951,-4.7851,-4.6972,-4.6227,-4.5872,-4.5314,-4.4598,-4.4598,-4.4598,-4.4598,-4.4598,-4.4598,-4.4598,-4.4598,-4.4412,-4.3978,-4.3995,-4.3809,-4.3436,-4.3447,-4.3047,-4.2303,-4.2303,-4.21,-4.1711,-4.0646,-3.9191,-3.733,0.0,0.0,0.0,0.0,0.0,0.0,0.0,0.0,0.0,0.0,0.0,-3.0497,-3.0548,-3.0869,-3.161,-3.2374,-3.3626,-3.547,-3.6637,-3.6315,-3.4121,-3.7026,-3.9276,-4.0003,-4.1457,-4.2455,-4.2861,-4.3555,-4.3995,-4.4012,-4.4378,-4.4598,-4.4598,-4.4598,-4.475,-4.5094,-4.5466,-4.5957,-4.6718,-4.709,-4.7496,-4.7817,-4.7885,-4.7851,-4.78,-4.7242,-4.6886,-4.7182,-4.7267,-4.7589,-4.8516,-4.9061,-4.9566,-5.0584,-5.1167,-5.1552,-5.194,-5.1977,-5.1995,-5.1995,-5.1995,-5.1995,-5.1995,-5.1995,-5.1995,-5.1995,-5.1995,-5.1995,-5.1958,-5.1371,-5.082,-5.3213,-5.3518,-5.3518,-5.2773,-5.1623,-5.1591,-5.093,-4.9949,0.0,0.0,0.0,-5.2384,-5.2097,-5.1336,-5.0118,-4.9509,-4.9306,-4.7986,-4.6972,-4.6278,-4.6007,-4.55,-4.4818,-4.4682,-4.4598,-4.4598,-4.4598,-4.4598,-4.4598,-4.4598,-4.4598,-4.4598,-4.4598,-4.4598,-4.4598,-4.4598,-4.4265,-4.3623,-4.2878,-4.2726,-4.3166,-4.1897,-4.0426,-3.8836,-3.7506,-3.5797,-3.3694,-3.3,-3.2121,-3.097,-3.1002,-3.134,-3.1935,-3.2104,-3.3004,-3.4747,-3.5013,-3.547,-3.6326,-3.7009,-3.7828,-3.8802,-4.0561,-4.1085,-3.9851,-4.0899,-4.2151,-4.3521,-4.3595,-4.3876,-4.4547,-4.4598,-4.4598,-4.4598,-4.4598,-4.4598,-4.4615,-4.475,-4.5043,-4.5602,-4.5957,-4.6503,-4.7652,-4.7973,-4.8277,-4.8832,-4.8883,-4.9018,-4.8866,-4.7986,-4.7471,-4.7883,-4.7992,-4.8183,-4.8853,-4.9535,-5.0209,-5.1025,-5.1763,-5.2433,-5.3004,-5.3185,-5.3185,-5.3057,-5.3185,-5.313,-5.3148,-5.3075,-5.3185,-5.3185,-5.3185,-5.3185,-5.3075,-5.2158,-5.1353,-5.345,-5.3518,-5.3518,-5.3382,-5.3179,-5.3179,-5.3061,-5.2807,-5.1944,-5.1471,-5.1422,-5.2773,-5.2892,-5.2147,-5.1928,-5.1488,-5.0862,-5.0016,-4.9238,0.0,-4.7242,-4.6261,-4.5517,-4.4874,-4.4598,-4.4598,-4.4598,-4.4598,-4.4598,-4.4598,-4.4598,-4.4598,-4.4598,-4.4598,-4.4598,-4.4598,-4.4547,-4.4401,-4.3656,-4.2997,-4.2455,-4.1627,-4.0189,-3.8159,-3.7303,-3.6051,-3.4404,-3.4269,-3.41,-3.3897,-3.4506,-3.4873,-3.4991,-3.5605,-3.6152,-3.6491,-3.706,-3.8007,-3.9351,-3.9588,-4.0493,-4.2395,-4.2919,-4.2987,-4.2828,-4.2953,-4.347,-4.4316,-4.4384,-4.4479,-4.4598,-4.4598,-4.4598,-4.4598,-4.4598,-4.4598,-4.4666,-4.5179,-4.5618,-4.5805,-4.6824,-4.7551,-4.7906,-4.8413,-4.8832,-4.8968,-4.9018,-4.9018,-4.8968,-4.8849,-4.8728,-4.8802,-4.8816,-4.9095,-4.9632,-5.0418,-5.1069,-5.182,-5.2488,-5.2965,-5.3148,-5.3185,-5.3185,-5.3185,-5.3185,-5.3185,-5.3185,-5.3185,-5.3185,-5.3185,-5.3185,-5.3185,-5.3185,-5.2892,-5.2747,-5.3114,-5.3467,-5.3518,-5.3518,-5.3518,-5.3518,-5.3518,-5.345,-5.2756,-5.2469,-5.2536,-5.3196,-5.3298,-5.2892,-5.2097,-5.1539,-5.1134,-5.0033,-4.912,-4.8392,-4.7716,-4.7005,-4.6261,-4.5534,-4.5179,-4.5162,-4.4784,-4.4598,-4.4598,-4.4598,-4.4598,-4.4598,-4.4598,-4.4598,-4.4598,-4.4598,-4.4598,-4.4598,-4.4231,-4.3876,-4.3521,-4.2794,-4.1888,-4.0874,-3.9411,-3.8285,-3.7567,-3.6772,-3.6349,-3.6349,-3.6688,-3.7019,-3.7432,-3.7787,-3.8328,-3.9123,-3.9512,-4.0172,-4.123,-4.166,-4.2337,-4.3308,-4.3809,-4.4045,-4.4045,-4.4045,-4.4198,-4.4564,-4.4598,-4.4598,-4.4598,-4.4598,-4.4598,-4.4598,-4.4953,-4.5179,-4.5263,-4.5855,-4.643,-4.687,-4.7466,-4.8054,-4.846,-4.8798,-4.9001,-4.9018,-4.9018,-4.9018,-4.9018,-4.9018,-4.9018,-4.9001,-4.9001,-4.9269,-4.9907,-5.0608,-5.1317,-5.1994,-5.2725,-5.3124,-5.3185,-5.3185,-5.3185,-5.3185,-5.3185,-5.3185,-5.3185,-5.3185,-5.3185,-5.3185,-5.3185,-5.3185,-5.3185,-5.3185,-5.3185,-5.2906,-5.3484,-5.3518,-5.3518,-5.3518,-5.3518,-5.3518,-5.3518,-5.3501,-5.3518,-5.3518,-5.3518,-5.3518,-5.3382,-5.2249,-5.1742,-5.1555,-5.0355,-4.9373,-4.8649,-4.8277,-4.7767,-4.7022,-4.6295,-4.5872,-4.5669,-4.5111,-4.4739,-4.4615,-4.4598,-4.4598,-4.4598,-4.4598,-4.4598,-4.4598,-4.4598,-4.4598,-4.4598,-4.4598,-4.4598,-4.4581,-4.3995,-4.3606,-4.3274,-4.1745,-4.0764,-4.0561,-3.9512,-3.8886,-3.8903,-3.8886,-3.9157,-3.9681,-3.9732,-4.0257,-4.1305,-4.1441,-4.1779,-4.2506,-4.325,-4.3673,-4.369,-4.4231,-4.4598,-4.4598,-4.4598,-4.4598,-4.4598,-4.4598,-4.4598,-4.4598,-4.4598,-4.4598,-4.4632,-4.5263,-4.5635,-4.5771,-4.6498,-4.7242,-4.7804,-4.8024,-4.8409,-4.8849,-4.9018,-4.9018,-4.9018,-4.9018,-4.9018,-4.9018,-4.9018,-4.9018,-4.9018,-4.9018,-4.9256,-4.9907,-5.0608,-5.1317,-5.2,-5.2707,-5.3103,-5.3185,-5.3185,-5.3185,-5.3185,-5.3185,-5.3185,-5.3185,-5.3185,-5.3185,-5.3185,-5.3185,-5.3185,-5.3185,-5.3185,-5.3185,-5.3415,-5.3484,-5.3518,-5.3518,-5.3518,-5.3518,-5.3518,-5.3518,-5.3518,-5.3518,-5.3518,-5.3518,-5.3518,-5.3484,-5.3315,-5.3213,-5.3162,-5.2384,-5.1555,-5.0744,-4.9526,-4.8511,-4.7804,-4.7056,-4.6346,-4.5821,-4.5635,-4.5213,-4.4699,-4.4615,-4.4598,-4.4598,-4.4598,-4.4598,-4.4598,-4.4598,-4.4598,-4.4598,-4.4598,-4.4598,-4.4598,-4.453,-4.413,-4.3392,-4.3189,-4.2777,-4.2083,-4.1965,-4.188,-4.1897,-4.1796,-4.188,-4.1931,-4.1965,-4.2033,-4.2185,-4.2202,-4.2523,-4.324,-4.4028,-4.4462,-4.4513,-4.453,-4.4598,-4.4598,-4.4598,-4.4598,-4.4598,-4.4598,-4.4598,-4.4598,-4.4598,-4.4632,-4.4733,-4.5331,-4.5703,-4.5957,-4.6925,-4.7851,-4.7872,-4.8477,-4.8934,-4.8984,-4.9018,-4.9018,-4.9018,-4.9018,-4.9018,-4.9018,-4.9018,-4.9018,-4.9018,-4.9018,-4.9286,-4.9907,-5.0608,-5.1266,-5.197,-5.2684,-5.3082,-5.3143,-5.3185,-5.3185,-5.3185,-5.3185,-5.3185,-5.3185,-5.3185,-5.3185,-5.3185,-5.3185,-5.3185,-5.3185,-5.3185,-5.3185,-5.329,-5.3484,-5.3518,-5.3518,-5.3518,-5.3518,-5.3518,-5.3518,-5.3518,-5.3518,-5.3518,-5.3518,-5.3518,-5.3518,-5.3518,-5.3518,-5.3484,-5.3145,-5.2587,-5.186,-5.12,-5.0338,-4.9204,-4.846,-4.7716,-4.6955,-4.6143,-4.5551,-4.5229,-4.4835,-4.4598,-4.4598,-4.4598,-4.4598,-4.4598,-4.4598,-4.4598,-4.4598,-4.4598,-4.4598,-4.4598,-4.4598,-4.4462,-4.4096,-4.3673,-4.3257,-4.2946,-4.254,-4.2303,-4.2303,-4.2303,-4.2303,-4.2303,-4.2303,-4.2489,-4.2929,-4.3386,-4.3775,-4.4096,-4.4429,-4.4598,-4.4598,-4.4598,-4.4598,-4.4598,-4.4598,-4.4598,-4.4598,-4.4598,-4.4598,-4.4598,-4.4598,-4.4767,-4.5213,-4.5906,-4.6498,-4.6976,-4.7919,-4.8562,-4.8578,-4.8815,-4.9018,-4.9018,-4.9018,-4.9018,-4.9018,-4.9018,-4.9018,-4.9018,-4.9018,-4.9018,-4.9018,-4.9018,-4.9286,-4.9861,-5.0213,-5.0911,-5.1808,-5.2335,-5.2617,-5.306,-5.3185,-5.3185,-5.3185,-5.3185,-5.3185,-5.3185,-5.3185,-5.3185,-5.3185,-5.3185,-5.3185,-5.3185,-5.3185,-5.306,-5.3072,-5.3344,-5.3433,-5.3518,-5.3518,-5.3518,-5.3518,-5.3518,-5.3518,-5.3518,-5.3518,-5.3518,-5.3518,-5.3518,-5.3518,-5.3518,-5.3518,-5.3518,-5.3078,-5.235,-5.2097,-5.1302,-5.0101,-4.934,-4.8612,-4.7851,-4.6853,-4.6126,-4.5686,-4.4942,-4.4598,-4.4598,-4.4598,-4.4598,-4.4598,-4.4598,-4.4598,-4.4598,-4.4598,-4.4598,-4.4598,-4.4598,-4.4598,-4.4547,-4.4028,-4.3724,-4.3707,-4.3217,-4.2939,-4.2929,-4.2912,-4.2929,-4.2912,-4.2912,-4.3166,-4.369,-4.4248,-4.4598,-4.4598,-4.4598,-4.4598,-4.4598,-4.4598,-4.4598,-4.4598,-4.4598,-4.4598,-4.4598,-4.4598,-4.4598,-4.4598,-4.4598,-4.4908,-4.5635,-4.6363,-4.709,-4.777,-4.8562,-4.8984,-4.9018,-4.8984,-4.9018,-4.9018,-4.9018,-4.9018,-4.9018,-4.9018,-4.9018,-4.9018,-4.9018,-4.9018,-4.9018,-4.9018,-4.9286,-4.9833,-5.0044,-5.0635,-5.13,-5.1814,-5.1994,-5.2572,-5.268,-5.2893,-5.2702,-5.2977,-5.3203,-5.3185,-5.3185,-5.3103,-5.3124,-5.3042,-5.2875,-5.2791,-5.2769,-5.2417,-5.2902,-5.3007,-5.3361,-5.3518,-5.3518,-5.3518,-5.3484,-5.3467,-5.3484,-5.3518,-5.3484,-5.3518,-5.3518,-5.3518,-5.3518,-5.3518,-5.3518,-5.3518,-5.3112,-5.235,-5.1674,-5.0879,-5.0084,-4.934,-4.8646,-4.8054,-4.7736,-4.6942,-4.5737,-4.4976,-4.4598,-4.4598,-4.4598,-4.4598,-4.4598,-4.4598,-4.4598,-4.4598,-4.4598,-4.4598,-4.4598,-4.4598,-4.4598,-4.4581,-4.4547,-4.4496,-4.4513,-4.4496,-4.4462,-4.4479,-4.4395,-4.4429,-4.4445,-4.4429,-4.4445,-4.4513,-4.4564,-4.4598,-4.4598,-4.4598,-4.4598,-4.4598,-4.4598,-4.4598,-4.4598,-4.4598,-4.4598,-4.4598,-4.4598,-4.4598,-4.4615,-4.4699,-4.5021,-4.572,-4.6397,-4.7141,-4.7855,-4.8612,-4.8968,-4.9018,-4.9018,-4.9018,-4.9018,-4.9018,-4.9018,-4.9018,-4.9018,-4.9018,-4.9018,-4.9018,-4.9018,-4.9018,-4.9063,-4.9243,-4.9821,-4.985,-5.0213,-5.0832,-5.112,-5.1215,-5.1393,-5.1636,-5.1946,-5.2266,-5.2595,-5.2831,-5.3082,-5.3103,-5.2977,-5.2809,-5.2399,-5.2224,-5.2177,-5.1611,-5.1292,-5.3414,-5.329,-5.3416,-5.3518,-5.3518,-5.3518,-5.3328,-5.3138,-5.3397,-5.3344,-5.3194,-5.3363,-5.3518,-5.3518,-5.3518,-5.3518,-5.3518,-5.3518,-5.3348,-5.2993,-5.2283,-5.1522,-5.0794,-5.005,-4.9323,-4.8646,-4.8091,-4.7128,-4.5838,-4.5415,-4.5043,-4.4666,-4.4598,-4.4598,-4.4598,-4.4598,-4.4598,-4.4598,-4.4598,-4.4598,-4.4598,-4.4598,-4.4598,-4.4598,-4.4598,-4.4598,-4.4598,-4.4598,-4.4598,-4.4598,-4.4598,-4.4598,-4.4598,-4.4598,-4.4598,-4.4598,-4.4598,-4.4598,-4.4598,-4.4598,-4.4598,-4.4598,-4.4598,-4.4598,-4.4598,-4.4598,-4.4598,-4.4598,-4.4598,-4.4598,-4.4716,-4.501,-4.5602,-4.6329,-4.7056,-4.7767,-4.8443,-4.8866,-4.9018,-4.9018,-4.9018,-4.9018,-4.9018,-4.9018,-4.9018,-4.9018,-4.9018,-4.9018,-4.9018,-4.9018,-4.9018,-4.9018,-4.9001,-4.9077,-4.9256,-4.9346,-4.958,-5.009,-5.0435,-5.0716,-5.0955,-5.1138,-5.1444,-5.1469,-5.1874,-5.2036,-5.2125,-5.2125,-5.2125,-5.1988,-5.1611,-5.1494,-5.1487,-5.1008,-5.0716,-5.346,-5.332,-5.3308,-5.338,-5.345,-5.3362,-5.3138,-5.2922,-5.3053,-5.2997,-5.2966,-5.3194,-5.338,-5.3501,-5.3518,-5.3518,-5.3518,-5.3518,-5.3518,-5.3416,-5.2435,-5.1691,-5.1116,-5.0202,-4.9475,-4.8951,-4.8274,-4.7331,-4.6464,-4.5923,-4.5432,-4.4976,-4.4767,-4.4598,-4.4598,-4.4598,-4.4598,-4.4598,-4.4598,-4.4598,-4.4598,-4.4598,-4.4598,-4.4598,-4.4598,-4.4598,-4.4598,-4.4598,-4.4598,-4.4598,-4.4598,-4.4598,-4.4598,-4.4598,-4.4598,-4.4598,-4.4598,-4.4598,-4.4598,-4.4598,-4.4598,-4.4598,-4.4598,-4.4598,-4.4598,-4.4598,-4.4598,-4.4598,-4.4615,-4.4666,-4.5043,-4.5618,-4.6244,-4.6786,-4.7462,-4.8176,-4.8883,-4.9001,-4.9018,-4.9018,-4.9018,-4.9018,-4.9018,-4.9018,-4.9018,-4.9018,-4.9018,-4.9018,-4.9018,-4.9018,-4.9018,-4.9018,-4.9018,-4.9001,-4.9107,-4.9138,-4.9138,-4.958,-4.978,-5.009,-5.038,-5.0581,-5.0743,-5.0796,-5.0876,-5.1034,-5.1086,-5.106,-5.106,-5.1008,-5.0876,-5.0743,-5.0635,-5.049,-5.0174,-5.2857,-5.2885,-5.2881,-5.3094,-5.3326,-5.3033,-5.2914,-5.2774,-5.2488,-5.2569,-5.2805,-5.2902,-5.3157,-5.3416,-5.3518,-5.3518,-5.3518,-5.3518,-5.3518,-5.3382,-5.2046,-5.1352,-5.11,-4.9864,-4.9171,-4.8984,-4.8291,-4.7936,-4.7652,-4.6549,-4.5855,-4.5568,-4.4976,-4.4699,-4.4598,-4.4598,-4.4598,-4.4598,-4.4598,-4.4598,-4.4598,-4.4598,-4.4598,-4.457,-4.4542,-4.4468,-4.4497,-4.457,-4.4598,-4.4598,-4.4598,-4.4598,-4.4598,-4.4598,-4.4598,-4.4598,-4.4598,-4.4598,-4.4598,-4.4598,-4.4598,-4.4598,-4.4598,-4.4598,-4.4598,-4.4598,-4.4598,-4.4598,-4.4632,-4.4869,-4.5568,-4.6261,-4.6752,-4.6887,-4.7597,-4.8325,-4.8815,-4.9018,-4.9018,-4.9018,-4.9018,-4.9018,-4.9018,-4.9018,-4.9018,-4.9018,-4.9018,-4.9018,-4.9018,-4.9018,-4.9018,-4.9018,-4.9018,-4.9018,-4.9018,-4.9001,-4.9001,-4.9094,-4.9168,-4.9346,-4.9551,-4.9768,-4.9993,-5.0061,-5.0269,-5.0407,-5.0407,-5.0435,-5.0544,-5.049,-5.0269,-5.0033,-4.9936,-4.978,-4.9509,-5.2879,-5.2474,-5.2481,-5.2563,-5.2671,-5.254,-5.2341,-5.2175,-5.2257,-5.2381,-5.2534,-5.2779,-5.3133,-5.3433,-5.3518,-5.3518,-5.3518,-5.3518,-5.3518,-5.3331,-5.2418,-5.1657,-5.1099,-5.0202,-4.9475,-4.9052,-4.8781,-4.8362,-4.7919,-4.7398,-4.6769,-4.5838,-4.55,-4.5077,-4.4649,-4.4598,-4.4598,-4.4598,-4.4598,-4.4598,-4.4598,-4.4598,-4.4598,-4.4542,-4.4035,-4.371,-4.371,-4.4281,-4.457,-4.4542,-4.4598,-4.4598,-4.4598,-4.4598,-4.4598,-4.4598,-4.4598,-4.4598,-4.4598,-4.4598,-4.4598,-4.4598,-4.4598,-4.4598,-4.4598,-4.4598,-4.4598,-4.4598,-4.4615,-4.4919,-4.5635,-4.6346,-4.6972,-4.7513,-4.8223,-4.8697,-4.8934,-4.9018,-4.9018,-4.9018,-4.9018,-4.9018,-4.9018,-4.9018,-4.9018,-4.9018,-4.9018,-4.9018,-4.9018,-4.9018,-4.9018,-4.9018,-4.9018,-4.9018,-4.9018,-4.9018,-4.9018,-4.9018,-4.9018,-4.9018,-4.9107,-4.9199,-4.9346,-4.9492,-4.9693,-4.978,-4.978,-4.9809,-4.9953,-4.9826,-4.9521,-4.9389,-4.9316,-4.9182,-4.9063,-5.2817,-5.2155,-5.2124,-5.2197,-5.2292,-5.2188,-5.1998,-5.1834,-5.1864,-5.2036,-5.2308,-5.2547,-5.3007,-5.3432,-5.3518,-5.3518,-5.3518,-5.3518,-5.3518,-5.3382,-5.2672,-5.1911,-5.1133,-5.0135,-4.9475,-4.9086,-4.9001,-4.8765,-4.8294,-4.7973,-4.7415,-4.6633,-4.5991,-4.55,-4.5021,-4.4733,-4.4598,-4.4598,-4.4598,-4.4457,-4.427,-4.4429,-4.4281,-4.371,-4.3426,-4.3139,-4.2909,-4.335,-4.3634,-4.3759,-4.4165,-4.4656,-4.4936,-4.5246,-4.5267,-4.4951,-4.4928,-4.4879,-4.4582,-4.4569,-4.4598,-4.4598,-4.4598,-4.4598,-4.4598,-4.4598,-4.4598,-4.4598,-4.4598,-4.4993,-4.5957,-4.6481,-4.7208,-4.824,-4.8697,-4.9001,-4.9018,-4.9018,-4.9018,-4.9018,-4.9018,-4.9018,-4.9018,-4.9018,-4.9018,-4.9018,-4.9018,-4.9018,-4.9018,-4.9018,-4.9018,-4.9018,-4.9018,-4.9018,-4.9018,-4.9018,-4.9018,-4.9018,-4.9018,-4.9018,-4.9063,-4.9063,-4.9168,-4.9168,-4.9316,-4.9376,-4.9376,-4.9273,-4.9303,-4.9032,-4.9018,-4.9063,-4.9138,-4.9107,-4.9018,-5.2637,-5.1817,-5.1768,-5.1927,-5.2144,-5.1864,-5.1739,-5.1671,-5.1425,-5.1656,-5.2163,-5.2317,-5.2753,-5.3327,-5.345,-5.3518,-5.3518,-5.3518,-5.3518,-5.3331,-5.2773,-5.2063,-5.1133,-4.9796,-4.9103,-4.9018,-4.9018,-4.8984,-4.8849,-4.8359,-4.7922,-4.7618,-4.6583,-4.5696,-4.5373,-4.4874,-4.4485,-4.4224,-4.4281,-4.3902,-4.329,-4.3902,-4.3693,-4.2269,-4.2743,-4.276,-4.2238,-4.2077,-4.2013,-4.2222,-4.3513,-4.4553,-4.5475,-4.6321,-4.6106,-4.539,-4.557,-4.5167,-4.4616,-4.4482,-4.4637,-4.4773,-4.4682,-4.4598,-4.4598,-4.4598,-4.4598,-4.4598,-4.4598,-4.519,-4.6346,-4.6769,-4.7445,-4.868,-4.8968,-4.9018,-4.9018,-4.9018,-4.9018,-4.9018,-4.9018,-4.9018,-4.9018,-4.9018,-4.9018,-4.9018,-4.9018,-4.9018,-4.9018,-4.9018,-4.9018,-4.9018,-4.9018,-4.9018,-4.9018,-4.9018,-4.9018,-4.9018,-4.9018,-4.9018,-4.9018,-4.9018,-4.9018,-4.9018,-4.9018,-4.9018,-4.9018,-4.9018,-4.9018,-4.9018,-4.9018,-4.9018,-4.9018,-4.9018,-4.9018,-5.2482,-5.1392,-5.1347,-5.141,-5.1455,-5.1363,-5.1378,-5.1362,-5.1249,-5.1485,-5.1931,-5.2166,-5.2586,-5.3036,-5.338,-5.3518,-5.3518,-5.3518,-5.3518,-5.3484,-5.3315,-5.2401,-5.1133,-4.9729,-4.9018,-4.9018,-4.9018,-4.9018,-4.8984,-4.8703,-4.8365,-4.7889,-4.7329,-4.631,-4.5,-4.453,-4.3784,-4.2834,-4.2691,-4.2629,-4.2458,-4.2583,-4.2489,-4.2142,-4.2116,-4.2053,-4.1707,-4.1146,-4.1255,-4.2013,-4.2832,-4.3796,-4.4771,-4.5509,-4.58,-4.5545,-4.5458,-4.5402,-4.5098,-4.4663,-4.4723,-4.5291,-4.4925,-4.4598,-4.4598,-4.4598,-4.4598,-4.4598,-4.4615,-4.5224,-4.643,-4.6836,-4.7547,-4.868,-4.9018,-4.9018,-4.9018,-4.9018,-4.9018,-4.9018,-4.9018,-4.9018,-4.9018,-4.9018,-4.9018,-4.9018,-4.9018,-4.9018,-4.9018,-4.9018,-4.9018,-4.9018,-4.9018,-4.9018,-4.9018,-4.9018,-4.9018,-4.9018,-4.9018,-4.9018,-4.9018,-4.9018,-4.9018,-4.9018,-4.9018,-4.9018,-4.9018,-4.9018,-4.9018,-4.9018,-4.9018,-4.9018,-4.9018,-4.9018,-4.9018,-5.2157,-5.1229,-5.1229,-5.1229,-5.1229,-5.1229,-5.1229,-5.1229,-5.1214,-5.144,-5.1794,-5.1972,-5.2389,-5.2881,-5.3154,-5.3344,-5.3467,-5.3518,-5.3518,-5.3433,-5.3112,-5.2283,-5.1065,-4.9729,-4.9018,-4.9018,-4.9001,-4.875,-4.8465,-4.8401,-4.7975,-4.7207,-4.6844,-4.5846,-4.4414,-4.3894,-4.3265,-4.2254,-4.1981,-4.1869,-4.1511,-4.1836,-4.1666,-4.1554,-4.1504,-4.1661,-4.1525,-4.1083,-4.1279,-4.2163,-4.2758,-4.3446,-4.4626,-4.5781,-4.6126,-4.5815,-4.5816,-4.5716,-4.5294,-4.4932,-4.4861,-4.5096,-4.4954,-4.4925,-4.4699,-4.4598,-4.4598,-4.4598,-4.4857,-4.5618,-4.6583,-4.731,-4.8071,-4.8832,-4.9018,-4.9018,-4.9018,-4.9018,-4.9018,-4.9018,-4.9018,-4.9018,-4.9018,-4.9018,-4.9018,-4.9018,-4.9018,-4.9018,-4.9018,-4.9018,-4.9018,-4.9018,-4.9018,-4.9018,-4.9018,-4.9018,-4.9018,-4.9018,-4.9018,-4.9018,-4.9018,-4.9018,-4.9018,-4.9018,-4.9018,-4.9018,-4.9018,-4.9018,-4.9018,-4.9018,-4.9018,-4.9018,-4.9018,-4.9018,-4.9018,-5.1813,-5.1229,-5.1229,-5.1229,-5.1229,-5.1229,-5.1229,-5.1229,-5.1229,-5.1379,-5.1673,-5.1781,-5.2194,-5.2847,-5.2922,-5.3152,-5.3484,-5.3518,-5.3518,-5.3281,-5.2773,-5.1961,-5.1117,-4.9898,-4.9187,-4.9004,-4.894,-4.8401,-4.7885,-4.7655,-4.7183,-4.6724,-4.5996,-4.516,-4.4485,-4.3653,-4.2744,-4.2002,-4.1522,-4.1145,-4.082,-4.1218,-4.1258,-4.0857,-4.1515,-4.1849,-4.1761,-4.1625,-4.185,-4.2607,-4.2716,-4.345,-4.4859,-4.6445,-4.6838,-4.626,-4.6065,-4.5774,-4.5389,-4.5309,-4.5158,-4.4964,-4.5429,-4.5449,-4.4908,-4.4733,-4.4666,-4.484,-4.5331,-4.6024,-4.6972,-4.8139,-4.8765,-4.9018,-4.9018,-4.9018,-4.9018,-4.9018,-4.9018,-4.9018,-4.9018,-4.9018,-4.9018,-4.9018,-4.9018,-4.9018,-4.9018,-4.9018,-4.9018,-4.9018,-4.9018,-4.9018,-4.9018,-4.9018,-4.9018,-4.9018,-4.9018,-4.9018,-4.9018,-4.9018,-4.9018,-4.9018,-4.9018,-4.9018,-4.9018,-4.9018,-4.9018,-4.9018,-4.9018,-4.9018,-4.9018,-4.9018,-4.9018,-4.9018,-4.9018,-5.1813,-5.1229,-5.1229,-5.1229,-5.1229,-5.1229,-5.1229,-5.1229,-5.1229,-5.1296,-5.1409,-5.1644,-5.2036,-5.2434,-5.2753,-5.3116,-5.345,-5.3518,-5.3518,-5.3399,-5.2672,-5.1928,-5.1119,-5.0141,-4.9528,-4.895,-4.8193,-4.7787,-4.7571,-4.7295,-4.718,-4.6913,-4.6813,-4.6687,-4.5257,-4.3998,-4.2875,-4.1641,-4.0634,-4.0162,-4.0107,-4.0547,-4.0779,-4.0628,-4.1648,-4.2423,-4.2704,-4.2417,-4.2316,-4.2439,-4.2576,-4.3111,-4.4019,-4.5018,-4.5674,-4.5964,-4.5559,-4.5468,-4.5732,-4.5516,-4.5436,-4.5781,-4.5714,-4.5652,-4.5483,-4.4874,-4.4953,-4.528,-4.5669,-4.6346,-4.7547,-4.846,-4.8917,-4.9018,-4.9018,-4.9018,-4.9018,-4.9018,-4.9018,-4.9018,-4.9018,-4.9018,-4.9018,-4.9018,-4.9018,-4.9018,-4.9018,-4.9018,-4.9018,-4.9018,-4.9018,-4.9018,-4.9018,-4.9018,-4.9018,-4.9018,-4.9018,-4.9018,-4.9018,-4.9018,-4.9018,-4.9018,-4.9018,-4.9018,-4.9018,-4.9018,-4.9018,-4.9018,-4.9018,-4.9018,-4.9018,-4.9018,-4.9018,-4.9018,-4.9018,-5.1528,-5.1229,-5.1229,-5.1229,-5.1229,-5.1229,-5.1229,-5.1229,-5.1229,-5.1229,-5.1282,-5.1631,-5.2003,-5.2308,-5.254,-5.2922,-5.3415,-5.3467,-5.3195,-5.2786,-5.2178,-5.1289,-5.012,-4.9843,-4.9391,-4.8507,-4.8233,-4.7696,-4.6968,-4.6866,-4.6698,-4.6346,-4.6679,-4.5957,-4.5105,-4.4113,-4.3024,-4.1987,-4.0891,-4.0352,-4.0427,-4.0651,-4.107,-4.1399,-4.2267,-4.3,-4.317,-4.3015,-4.2851,-4.2806,-4.283,-4.2859,-4.3289,-4.4201,-4.4995,-4.5322,-4.567,-4.5322,-4.5527,-4.5993,-4.6169,-4.5861,-4.6029,-4.6001,-4.5652,-4.501,-4.4993,-4.5568,-4.6109,-4.6819,-4.8223,-4.868,-4.8984,-4.9018,-4.9018,-4.9018,-4.9018,-4.9018,-4.9018,-4.9018,-4.9018,-4.9018,-4.9018,-4.9018,-4.9018,-4.9018,-4.9018,-4.9018,-4.9018,-4.9018,-4.9018,-4.9018,-4.9018,-4.9018,-4.9018,-4.9018,-4.9018,-4.9018,-4.9018,-4.9018,-4.9018,-4.9018,-4.9018,-4.9018,-4.9018,-4.9018,-4.9018,-4.9018,-4.9018,-4.9018,-4.9018,-4.9018,-4.9018,-4.9018,-4.9018,-5.1229,-5.1229,-5.1229,-5.1229,-5.1229,-5.1229,-5.1229,-5.1229,-5.1229,-5.1229,-5.1264,-5.1574,-5.1856,-5.2153,-5.2191,-5.2638,-5.2933,-5.2852,-5.2293,-5.1707,-5.1622,-5.0687,-4.9606,-4.962,-4.9421,-4.81,-4.806,-4.7361,-4.6532,-4.6304,-4.6345,-4.5661,-4.5687,-4.5793,-4.4922,-4.3868,-4.3334,-4.2755,-4.1713,-4.119,-4.1332,-4.1414,-4.1871,-4.2432,-4.288,-4.32,-4.329,-4.323,-4.32,-4.317,-4.323,-4.297,-4.2934,-4.3647,-4.4699,-4.4774,-4.5248,-4.5211,-4.5227,-4.5984,-4.6336,-4.5293,-4.5955,-4.6325,-4.5848,-4.5229,-4.5179,-4.5923,-4.6701,-4.7682,-4.8832,-4.8984,-4.9001,-4.9018,-4.9018,-4.9018,-4.9018,-4.9018,-4.9018,-4.9018,-4.9018,-4.9018,-4.9018,-4.9018,-4.9018,-4.9018,-4.9018,-4.9018,-4.9018,-4.9018,-4.9018,-4.9018,-4.9018,-4.9018,-4.9018,-4.9018,-4.9018,-4.9018,-4.9018,-4.9018,-4.9018,-4.9018,-4.9018,-4.9018,-4.9018,-4.9018,-4.9018,-4.9018,-4.9018,-4.9018,-4.9018,-4.9018,-4.9018,-4.9018,-4.9018,-5.1229,-5.1229,-5.1229,-5.1229,-5.1229,-5.1229,-5.1229,-5.1229,-5.1229,-5.1229,-5.1231,-5.1282,-5.1603,-5.1785,-5.188,-5.1865,-5.1736,-5.1442,-5.1059,-5.0757,-5.0709,-5.014,-5.0206,-5.0082,-4.9955,-4.9227,-4.841,-4.7294,-4.6687,-4.6412,-4.6376,-4.6304,-4.6606,-4.6681,-4.6142,-4.5143,-4.4167,-4.3688,-4.2491,-4.1743,-4.1698,-4.2051,-4.2462,-4.3015,-4.323,-4.3275,-4.3305,-4.3275,-4.309,-4.268,-4.306,-4.2925,-4.2725,-4.3235,-4.3944,-4.4434,-4.4396,-4.4419,-4.4737,-4.5116,-4.5658,-4.5741,-4.5767,-4.611,-4.603,-4.5454,-4.5228,-4.6464,-4.7665,-4.8714,-4.8951,-4.9018,-4.9018,-4.9018,-4.9018,-4.9018,-4.9018,-4.9018,-4.9018,-4.9018,-4.9018,-4.9018,-4.9018,-4.9018,-4.9018,-4.9018,-4.9018,-4.9018,-4.9018,-4.9018,-4.9018,-4.9018,-4.9018,-4.9018,-4.9018,-4.9018,-4.9018,-4.9018,-4.9018,-4.9018,-4.9018,-4.9018,-4.9018,-4.9018,-4.9018,-4.9018,-4.9018,-4.9018,-4.9018,-4.9018,-4.9018,-4.9018,-4.9018,-4.9018,-4.9018,-5.1229,-5.1229,-5.1229,-5.1229,-5.1229,-5.1229,-5.1229,-5.1229,-5.1229,-5.1229,-5.1281,-5.141,-5.1388,-5.1348,-5.128,-5.1058,-5.0596,-5.0538,-5.039,-5.032,-4.9899,-4.9783,-5.0091,-5.0099,-4.9888,-4.9422,-4.8641,-4.7884,-4.7289,-4.6947,-4.6798,-4.689,-4.7189,-4.7294,-4.707,-4.6037,-4.5185,-4.4586,-4.3539,-4.2671,-4.2402,-4.2746,-4.306,-4.3185,-4.3305,-4.3305,-4.3305,-4.3305,-4.317,-4.3015,-4.3125,-4.312,-4.306,-4.3129,-4.3512,-4.3912,-4.3989,-4.3927,-4.432,-4.4781,-4.5618,-4.5331,-4.5012,-4.5407,-4.5761,-4.5287,-4.4964,-4.6532,-4.8088,-4.9018,-4.9018,-4.9018,-4.9018,-4.9018,-4.9018,-4.9018,-4.9018,-4.9018,-4.9018,-4.9018,-4.9018,-4.9018,-4.9018,-4.9018,-4.9018,-4.9018,-4.9018,-4.9018,-4.9018,-4.9018,-4.9018,-4.9018,-4.9018,-4.9018,-4.9018,-4.9018,-4.9018,-4.9018,-4.9018,-4.9018,-4.9018,-4.9018,-4.9018,-4.9018,-4.9018,-4.9018,-4.9018,-4.9018,-4.9018,-4.9018,-4.9018,-4.9018,-4.9018,-4.9018,-4.9018,-5.1229,-5.1229,-5.1229,-5.1229,-5.1229,-5.1229,-5.1229,-5.1229,-5.1229,-5.1229,-5.1218,-5.1303,-5.1109,-5.0718,-5.035,-4.9977,-4.9524,-4.9721,-4.9583,-4.9432,-4.8922,-4.8807,-4.948,-4.9609,-4.9903,-5.0707,-4.9652,-4.9013,-4.8057,-4.7474,-4.7306,-4.7249,-4.7294,-4.7309,-4.71,-4.6459,-4.5978,-4.5304,-4.4646,-4.3962,-4.3454,-4.3305,-4.3305,-4.3305,-4.3305,-4.3305,-4.3305,-4.3305,-4.3305,-4.3245,-4.3275,-4.329,-4.329,-4.3305,-4.3305,-4.3448,-4.4066,-4.3927,-4.3989,-4.4426,-4.5064,-4.4943,-4.4354,-4.4916,-4.544,-4.5045,-4.462,-4.6368,-4.7796,-4.8813,-4.894,-4.9018,-4.9018,-4.9018,-4.9018,-4.9018,-4.9018,-4.9018,-4.9018,-4.9018,-4.9018,-4.9018,-4.9018,-4.9018,-4.9018,-4.9018,-4.9018,-4.9018,-4.9018,-4.9018,-4.9018,-4.9018,-4.9018,-4.9018,-4.9018,-4.9018,-4.9018,-4.9018,-4.9018,-4.9018,-4.9018,-4.9018,-4.9018,-4.9018,-4.9018,-4.9018,-4.9018,-4.9018,-4.9018,-4.9018,-4.9018,-4.9018,-4.9018,-4.9018,-4.9018,-5.1229,-5.1229,-5.1229,-5.1229,-5.1229,-5.1229,-5.1229,-5.1229,-5.1229,-5.1229,-5.1094,-5.0679,-5.0426,-5.0005,-4.9056,-4.8621,-4.8377,-4.814,-4.813,-4.8198,-4.7988,-4.8794,-5.0099,-5.0269,-5.1259,-5.1853,-5.0869,-4.9765,-4.8736,-4.7801,-4.7309,-4.7309,-4.7309,-4.7309,-4.7234,-4.6728,-4.5992,-4.5304,-4.4631,-4.3973,-4.3409,-4.3305,-4.3305,-4.3305,-4.3305,-4.3305,-4.3305,-4.3305,-4.3305,-4.3305,-4.3305,-4.3305,-4.3305,-4.3305,-4.3305,-4.3329,-4.3409,-4.3448,-4.3409,-4.3756,-4.4228,-4.4349,-4.4043,-4.4358,-4.4689,-4.5134,-4.5,-4.5476,-4.7025,-4.8177,-4.8839,-4.9072,-4.9052,-4.9086,-4.9171,-4.9137,-4.9103,-4.9018,-4.9018,-4.9018,-4.9018,-4.9018,-4.9018,-4.9018,-4.9018,-4.9018,-4.9018,-4.9018,-4.9018,-4.9018,-4.9018,-4.9018,-4.9018,-4.9018,-4.9018,-4.9018,-4.9018,-4.9018,-4.9018,-4.9018,-4.9018,-4.9018,-4.9018,-4.9018,-4.9018,-4.9018,-4.9018,-4.9018,-4.9018,-4.9018,-4.9018,-4.9018,-4.9018,-4.9018,-4.9018,-5.1229,-5.1229,-5.1229,-5.1229,-5.1229,-5.1229,-5.1229,-5.1229,-5.1229,-5.1005,-5.0614,-5.0345,-4.9822,-4.9075,-4.8117,-4.7743,-4.7668,-4.7429,-4.7651,-4.7988,-4.8225,-4.9231,-5.0838,-5.132,-5.217,-5.2574,-5.1557,-5.031,-4.9311,-4.8157,-4.7309,-4.7309,-4.7309,-4.7309,-4.7309,-4.704,-4.6277,-4.5334,-4.4347,-4.3604,-4.3364,-4.3305,-4.3305,-4.3305,-4.3305,-4.3305,-4.3305,-4.3305,-4.3305,-4.3305,-4.3305,-4.3305,-4.3305,-4.3305,-4.3305,-4.3305,-4.3305,-4.3344,-4.3305,-4.3305,-4.3591,-4.3635,-4.3434,-4.3229,-4.3818,-4.4627,-4.5341,-4.5821,-4.7323,-4.8316,-4.8909,-4.9714,-4.9835,-4.9796,-4.9565,-4.956,-4.9458,-4.9086,-4.9018,-4.9018,-4.9018,-4.9052,-4.9052,-4.9018,-4.9018,-4.9018,-4.9018,-4.9018,-4.9018,-4.9018,-4.9018,-4.9018,-4.9018,-4.9018,-4.9018,-4.9018,-4.9018,-4.9018,-4.9018,-4.9018,-4.9018,-4.9018,-4.9018,-4.9018,-4.9018,-4.9018,-4.9018,-4.9018,-4.9018,-4.9018,-4.9018,-4.9018,-4.9018,-4.9018,-4.9018,-5.1229,-5.1229,-5.1229,-5.1229,-5.1229,-5.1229,-5.1063,-5.0975,-5.0898,-5.0601,-5.0077,-4.9763,-4.906,-4.8192,-4.7608,-4.7384,-4.7339,-4.7309,-4.7722,-4.8225,-4.8677,-4.952,-5.0687,-5.1467,-5.2134,-5.3433,-5.1373,-5.0451,-4.971,-4.8501,-4.7309,-4.7309,-4.7309,-4.7309,-4.7309,-4.7174,-4.6621,-4.5319,-4.4257,-4.3589,-4.3334,-4.3305,-4.3305,-4.3305,-4.3305,-4.3305,-4.3305,-4.3305,-4.3305,-4.3305,-4.3305,-4.3305,-4.3305,-4.3305,-4.3305,-4.3305,-4.3305,-4.3305,-4.3305,-4.3305,-4.3305,-4.3155,-4.294,-4.2841,-4.2858,-4.408,-4.5172,-4.5599,-4.7025,-4.7945,-4.8713,-4.9808,-5.0075,-5.0087,-5.0146,-5.0141,-5.0135,-4.9864,-4.9407,-4.9103,-4.9137,-4.9187,-4.9154,-4.9052,-4.9018,-4.9018,-4.9018,-4.9018,-4.9018,-4.9018,-4.9018,-4.9018,-4.9018,-4.9018,-4.9018,-4.9018,-4.9018,-4.9018,-4.9018,-4.9018,-4.9018,-4.9018,-4.9018,-4.9018,-4.9018,-4.9018,-4.9018,-4.9018,-4.9018,-4.9018,-4.9018,-4.9018,-4.9018,-4.9018,-4.9018,-5.1229,-5.1229,-5.1199,-5.1169,-5.1184,-5.1229,-5.0855,-5.027,-5.0255,-4.9942,-4.9299,-4.8716,-4.8117,-4.7534,-4.7414,-4.7309,-4.7309,-4.7309,-4.7424,-4.7452,-4.7609,-4.8882,-5.0165,-5.1059,-5.1594,-5.2782,-5.1373,-5.0474,-4.9852,-4.8267,-4.7467,-4.7309,-4.7309,-4.7309,-4.7264,-4.7145,-4.6621,-4.5529,-4.4616,-4.3902,-4.3559,-4.3379,-4.3364,-4.3305,-4.3305,-4.3305,-4.3305,-4.3305,-4.3305,-4.3305,-4.3305,-4.3305,-4.3305,-4.3305,-4.3305,-4.3305,-4.3305,-4.3305,-4.3305,-4.3305,-4.3305,-4.3275,-4.3135,-4.2884,-4.2772,-4.3657,-4.4452,-4.5137,-4.6649,-4.7438,-4.8226,-4.9066,-4.9943,-5.0241,-5.0459,-5.067,-5.0716,-5.0811,-5.0287,-4.9492,-4.9272,-4.939,-4.9171,-4.9035,-4.9018,-4.9018,-4.9018,-4.9018,-4.9018,-4.9018,-4.9018,-4.9018,-4.9018,-4.9018,-4.9018,-4.9018,-4.9018,-4.9018,-4.9018,-4.9018,-4.9018,-4.9018,-4.9018,-4.9018,-4.9018,-4.9018,-4.9018,-4.9018,-4.9018,-4.9018,-4.9018,-4.9018,-4.9018,-4.9018,-4.9018,-5.0017,-5.0017,-5.0017,-5.0257,-5.0569,-5.0569,-5.0242,-4.9703,-4.9628,-4.9269,-4.867,-4.7982,-4.7549,-4.7354,-4.7309,-4.7309,-4.7309,-4.7309,-4.7309,-4.7581,-4.803,-4.9069,-5.0165,-5.0968,-5.1776,-5.2098,-5.1021,-4.9931,-4.9231,-4.7961,-4.7495,-4.7309,-4.7309,-4.7309,-4.7249,-4.6995,-4.6426,-4.5992,-4.5259,-4.4601,-4.4037,-4.3858,-4.3708,-4.3305,-4.3305,-4.3305,-4.3305,-4.3305,-4.3305,-4.3305,-4.3305,-4.3305,-4.3305,-4.3305,-4.3305,-4.3305,-4.3305,-4.3305,-4.3305,-4.3305,-4.3305,-4.3185,-4.3,-4.2836,-4.2955,-4.3554,-4.4258,-4.5181,-4.6447,-4.7472,-4.7856,-4.9148,-5.0257,-5.0427,-5.0703,-5.1028,-5.1193,-5.1308,-5.0828,-4.9881,-4.9678,-4.9695,-4.9373,-4.9018,-4.9018,-4.9018,-4.9018,-4.9018,-4.9018,-4.9018,-4.9018,-4.9018,-4.9018,-4.9018,-4.9018,-4.9018,-4.9018,-4.9018,-4.9018,-4.9018,-4.9018,-4.9018,-4.9018,-4.9018,-4.9018,-4.9018,-4.9018,-4.9018,-4.9018,-4.9018,-4.9018,-4.9018,-4.9018,-4.9018,-4.9018,-4.9299,-4.9299,-4.9299,-4.9523,-4.9927,-4.9942,-4.9583,-4.909,-4.9015,-4.864,-4.7967,-4.7504,-4.7309,-4.7309,-4.7309,-4.7309,-4.7309,-4.7309,-4.7309,-4.7495,-4.8003,-4.8963,-4.9852,-5.0496,-5.0801,-5.108,-5.0419,-4.9416,-4.8907,-4.7807,-4.7424,-4.7309,-4.7309,-4.7309,-4.7204,-4.689,-4.6546,-4.6232,-4.5873,-4.5259,-4.4691,-4.4362,-4.4167,-4.3604,-4.3454,-4.3305,-4.3305,-4.3305,-4.3305,-4.3305,-4.3305,-4.3305,-4.3305,-4.3305,-4.3305,-4.3305,-4.3305,-4.3305,-4.3305,-4.3305,-4.3394,-4.3559,-4.3105,-4.3284,-4.3658,-4.3943,-4.4683,-4.5563,-4.6848,-4.764,-4.7681,-4.8833,-4.9653,-4.9791,-5.0968,-5.1435,-5.1614,-5.1682,-5.1003,-5.0253,-5.0219,-5.0185,-4.939,-4.9018,-4.9018,-4.9018,-4.9018,-4.9018,-4.9018,-4.9018,-4.9018,-4.9018,-4.9018,-4.9018,-4.9018,-4.9018,-4.9018,-4.9018,-4.9018,-4.9018,-4.9018,-4.9018,-4.9018,-4.9018,-4.9018,-4.9018,-4.9018,-4.9018,-4.9018,-4.9018,-4.9018,-4.9018,-4.9018,-4.9018,-4.9018,-4.9239,-4.9299,-4.9239,-4.9254,-4.9164,-4.9314,-4.897,-4.8341,-4.8297,-4.7967,-4.7474,-4.7309,-4.7309,-4.7309,-4.7309,-4.7309,-4.7309,-4.7309,-4.7309,-4.7381,-4.7538,-4.8072,-4.8677,-4.9296,-4.9836,-5.0048,-4.9575,-4.9029,-4.8636,-4.7764,-4.7337,-4.7309,-4.7309,-4.7309,-4.7309,-4.7294,-4.695,-4.6399,-4.6294,-4.5903,-4.5319,-4.4825,-4.453,-4.4037,-4.3693,-4.3499,-4.3319,-4.3305,-4.3305,-4.3305,-4.3305,-4.3305,-4.3305,-4.3305,-4.3305,-4.3305,-4.3305,-4.3305,-4.3305,-4.3305,-4.3529,-4.3828,-4.329,-4.3559,-4.4676,-4.5155,-4.52,-4.5825,-4.6834,-4.7299,-4.7661,-4.8137,-4.8666,-4.9434,-5.0591,-5.1464,-5.1558,-5.1928,-5.1296,-5.0816,-5.0862,-5.0744,-4.9729,-4.9035,-4.9018,-4.9018,-4.9018,-4.9018,-4.9018,-4.9018,-4.9018,-4.9018,-4.9018,-4.9018,-4.9018,-4.9018,-4.9018,-4.9018,-4.9018,-4.9018,-4.9018,-4.9018,-4.9018,-4.9018,-4.9018,-4.9018,-4.9018,-4.9018,-4.9018,-4.9018,-4.9018,-4.9018,-4.9018,-4.9018,-4.9018,-4.7967,-4.7967,-4.7967,-4.7698,-4.7474,-4.8282,-4.8237,-4.7713,-4.7623,-4.7504,-4.7339,-4.7309,-4.7309,-4.7309,-4.7309,-4.7309,-4.7309,-4.7309,-4.7309,-4.7309,-4.7309,-4.7946,-4.8486,-4.8718,-4.8948,-4.9135,-4.8825,-4.8335,-4.7764,-4.7424,-4.7352,-4.7309,-4.7309,-4.7309,-4.7309,-4.7309,-4.713,-4.7025,-4.692,-4.6651,-4.6022,-4.5678,-4.5143,-4.4381,-4.4077,-4.3708,-4.3349,-4.3305,-4.3305,-4.3305,-4.3305,-4.3305,-4.3305,-4.3305,-4.3305,-4.3305,-4.3305,-4.3305,-4.3305,-4.3319,-4.3379,-4.3499,-4.3544,-4.3544,-4.3977,-4.4885,-4.5304,-4.5858,-4.6756,-4.716,-4.7495,-4.7566,-4.8,-4.8753,-4.9741,-5.0666,-5.1149,-5.1726,-5.1753,-5.1446,-5.1352,-5.0881,-5.0069,-4.9357,-4.9204,-4.9035,-4.9018,-4.9018,-4.9018,-4.9018,-4.9018,-4.9018,-4.9018,-4.9018,-4.9018,-4.9018,-4.9018,-4.9018,-4.9018,-4.9018,-4.9018,-4.9018,-4.9018,-4.9018,-4.9018,-4.9018,-4.9018,-4.9018,-4.9018,-4.9018,-4.9018,-4.9018,-4.9018,-4.9018,-4.9018,-4.6606,-4.6606,-4.6606,-4.6381,-4.6217,-4.7384,-4.7683,-4.7339,-4.7309,-4.7309,-4.7309,-4.7309,-4.7309,-4.7309,-4.7309,-4.7309,-4.7309,-4.7309,-4.7309,-4.7309,-4.7309,-4.7679,-4.8057,-4.8293,-4.8183,-4.8293,-4.821,-4.7876,-4.7424,-4.7352,-4.7309,-4.7309,-4.7309,-4.7309,-4.7309,-4.7294,-4.7294,-4.7234,-4.7174,-4.7085,-4.6666,-4.6292,-4.5681,-4.4945,-4.4392,-4.4018,-4.3499,-4.3305,-4.3305,-4.3305,-4.3305,-4.3305,-4.3305,-4.3305,-4.3305,-4.3305,-4.3305,-4.3305,-4.3305,-4.3305,-4.3334,-4.3334,-4.3305,-4.3544,-4.3902,-4.49,-4.5394,-4.5963,-4.6696,-4.7085,-4.7294,-4.7294,-4.7566,-4.832,-4.8891,-4.9805,-5.031,-5.0881,-5.1412,-5.1223,-5.1078,-5.0675,-5.0411,-4.9915,-4.9424,-4.9204,-4.9018,-4.9018,-4.9018,-4.9018,-4.9018,-4.9018,-4.9018,-4.9018,-4.9018,-4.9018,-4.9018,-4.9018,-4.9018,-4.9018,-4.9018,-4.9018,-4.9018,-4.9018,-4.9018,-4.9018,-4.9018,-4.9018,-4.9018,-4.9018,-4.9018,-4.9018,-4.9018,-4.9069,-4.912,-4.5304,-4.5289,-4.5289,-4.5319,-4.5499,-4.6636,-4.7189,-4.7249,-4.7294,-4.7309,-4.7309,-4.7309,-4.7309,-4.7309,-4.7309,-4.7309,-4.7309,-4.7309,-4.7309,-4.7309,-4.7309,-4.7409,-4.7424,-4.7495,-4.7566,-4.7467,-4.7424,-4.7566,-4.7309,-4.7309,-4.7309,-4.7309,-4.7309,-4.7234,-4.7189,-4.7115,-4.7174,-4.7249,-4.7294,-4.7234,-4.704,-4.6696,-4.6037,-4.5304,-4.4721,-4.4092,-4.3574,-4.3305,-4.3305,-4.3305,-4.3305,-4.3305,-4.3305,-4.3305,-4.3305,-4.3305,-4.3305,-4.3305,-4.3305,-4.3305,-4.3305,-4.3305,-4.3305,-4.4062,-4.4571,-4.4855,-4.5259,-4.5888,-4.6606,-4.698,-4.7279,-4.7294,-4.7352,-4.7834,-4.821,-4.8743,-4.9135,-4.9694,-5.036,-5.048,-5.0427,-5.0231,-5.0258,-4.9947,-4.9461,-4.9441,-4.9221,-4.9018,-4.9018,-4.9018,-4.9018,-4.9018,-4.9018,-4.9018,-4.9018,-4.9018,-4.9018,-4.9018,-4.9018,-4.9018,-4.9018,-4.9018,-4.9018,-4.9018,-4.9018,-4.9018,-4.9018,-4.9018,-4.9018,-4.9018,-4.9018,-4.9221,-4.9289,-4.9306,-4.9357,-4.5289,-4.5289,-4.5289,-4.5035,-4.4751,-4.5529,-4.6142,-4.6621,-4.707,-4.7309,-4.7309,-4.7309,-4.7309,-4.7309,-4.7309,-4.7309,-4.7309,-4.7309,-4.7309,-4.7309,-4.7309,-4.7309,-4.7309,-4.7309,-4.7309,-4.7309,-4.7309,-4.7309,-4.7309,-4.7309,-4.7309,-4.7309,-4.7204,-4.7025,-4.6741,-4.6563,-4.689,-4.713,-4.7204,-4.7264,-4.7294,-4.7055,-4.6292,-4.5499,-4.5095,-4.4377,-4.3559,-4.3319,-4.3305,-4.3305,-4.3305,-4.3305,-4.3305,-4.3305,-4.3305,-4.3305,-4.3305,-4.3305,-4.3305,-4.3305,-4.3305,-4.3305,-4.3305,-4.3364,-4.3873,-4.4436,-4.4945,-4.5678,-4.6367,-4.677,-4.7174,-4.7294,-4.7309,-4.7538,-4.7876,-4.8099,-4.8444,-4.8829,-4.9449,-4.9823,-4.9752,-4.9988,-5.0036,-4.9776,-4.9409,-4.951,-4.9458,-4.9238,-4.9035,-4.9052,-4.9018,-4.9018,-4.9018,-4.9018,-4.9018,-4.9018,-4.9018,-4.9018,-4.9018,-4.9018,-4.9018,-4.9018,-4.9018,-4.9018,-4.9018,-4.9018,-4.9018,-4.9018,-4.9018,-4.9018,-4.9035,-4.934,-4.9576,-4.961,-4.9864,-4.4526,-4.4511,-4.4511,-4.4287,-4.4077,-4.4616,-4.517,-4.5693,-4.677,-4.7309,-4.7309,-4.7309,-4.7309,-4.7309,-4.7309,-4.7309,-4.7309,-4.7309,-4.7309,-4.7309,-4.7309,-4.7309,-4.7309,-4.7309,-4.7309,-4.7309,-4.7309,-4.7309,-4.7279,-4.7264,-4.7264,-4.6875,-4.6905,-4.6501,-4.6112,-4.5963,-4.6307,-4.6651,-4.6905,-4.707,-4.7174,-4.7219,-4.6456,-4.5559,-4.5274,-4.4511,-4.3499,-4.3319,-4.3305,-4.3305,-4.3305,-4.3305,-4.3305,-4.3305,-4.3305,-4.3305,-4.3305,-4.3305,-4.3305,-4.3305,-4.3305,-4.3305,-4.3305,-4.3319,-4.3559,-4.4022,-4.4676,-4.5334,-4.5978,-4.6518,-4.6965,-4.7309,-4.7309,-4.7309,-4.7452,-4.7609,-4.7819,-4.8126,-4.8552,-4.9009,-4.9299,-4.9598,-4.9624,-4.9396,-4.9403,-4.9593,-4.9747,-4.9695,-4.9407,-4.9171,-4.9086,-4.9018,-4.9018,-4.9018,-4.9018,-4.9018,-4.9018,-4.9018,-4.9018,-4.9018,-4.9018,-4.9018,-4.9018,-4.9018,-4.9018,-4.9018,-4.9018,-4.9018,-4.9018,-4.9018,-4.9187,-4.9593,-4.9898,-5.0033,-5.0405,-4.3185,-4.323,-4.323,-4.3245,-4.3319,-4.3958,-4.4287,-4.4526,-4.6277,-4.7115,-4.7055,-4.7174,-4.716,-4.71,-4.7219,-4.7309,-4.7309,-4.7309,-4.7309,-4.7309,-4.7309,-4.7309,-4.7309,-4.7309,-4.7309,-4.7309,-4.7279,-4.7219,-4.7189,-4.707,-4.6756,-4.6234,-4.6247,-4.5888,-4.5334,-4.5229,-4.5499,-4.5828,-4.6082,-4.6234,-4.6905,-4.698,-4.6561,-4.5424,-4.5005,-4.4601,-4.3648,-4.3305,-4.3305,-4.3305,-4.3305,-4.3305,-4.3305,-4.3305,-4.3305,-4.3305,-4.3305,-4.3305,-4.3305,-4.3305,-4.3305,-4.3305,-4.3305,-4.3305,-4.3499,-4.3693,-4.4287,-4.493,-4.5574,-4.6247,-4.6711,-4.716,-4.7309,-4.7309,-4.7381,-4.7409,-4.7523,-4.7722,-4.7939,-4.8327,-4.8631,-4.897,-4.9299,-4.9101,-4.9391,-4.9661,-4.9507,-4.9558,-4.9858,-4.9521,-4.9198,-4.9077,-4.9035,-4.9035,-4.9018,-4.9018,-4.9018,-4.9018,-4.9018,-4.9018,-4.9018,-4.9018,-4.9018,-4.9018,-4.9018,-4.9018,-4.9018,-4.9018,-4.9018,-4.9052,-4.9323,-4.9864,-5.0202,-5.0524,-5.1183,-4.2147,-4.262,-4.2635,-4.262,-4.2671,-4.3299,-4.3798,-4.4377,-4.5319,-4.5738,-4.5873,-4.6307,-4.6593,-4.6756,-4.716,-4.7309,-4.7309,-4.7309,-4.7309,-4.7309,-4.7309,-4.7309,-4.7309,-4.7309,-4.7309,-4.7309,-4.7249,-4.6995,-4.6651,-4.6471,-4.6232,-4.5618,-4.5529,-4.52,-4.4601,-4.4556,-4.4706,-4.5035,-4.499,-4.5457,-4.6292,-4.5933,-4.5319,-4.4796,-4.4481,-4.4212,-4.3514,-4.3305,-4.3305,-4.3305,-4.3305,-4.3305,-4.3305,-4.3305,-4.3305,-4.3305,-4.3305,-4.3305,-4.3305,-4.3305,-4.3305,-4.3305,-4.3305,-4.3305,-4.3364,-4.3469,-4.3843,-4.4541,-4.517,-4.5828,-4.6471,-4.692,-4.7294,-4.7294,-4.7309,-4.7309,-4.7309,-4.7381,-4.7452,-4.7679,-4.7988,-4.8306,-4.8696,-4.9071,-4.9363,-4.9195,-4.8695,-4.8822,-4.9892,-5.0024,-4.9403,-4.9231,-4.9075,-4.9052,-4.9035,-4.9018,-4.9018,-4.9018,-4.9018,-4.9018,-4.9018,-4.9018,-4.9018,-4.9018,-4.9018,-4.9018,-4.9018,-4.9018,-4.9035,-4.9171,-4.9543,-5.0118,-5.0896,-5.1336,-5.2097,-4.1632,-4.1946,-4.1976,-4.1961,-4.2036,-4.2327,-4.2686,-4.303,-4.3404,-4.3913,-4.4631,-4.5678,-4.6456,-4.6681,-4.7174,-4.7234,-4.7249,-4.7309,-4.7309,-4.7309,-4.7204,-4.7309,-4.7309,-4.7219,-4.7309,-4.7279,-4.692,-4.6546,-4.5978,-4.5813,-4.5544,-4.4975,-4.4811,-4.4556,-4.3947,-4.3858,-4.4047,-4.4317,-4.4047,-4.4511,-4.5469,-4.5214,-4.49,-4.4511,-4.4212,-4.3898,-4.3529,-4.3305,-4.3305,-4.3305,-4.3305,-4.3305,-4.3305,-4.3305,-4.3305,-4.3305,-4.3305,-4.3305,-4.3305,-4.3305,-4.3305,-4.3305,-4.3305,-4.3305,-4.3305,-4.3439,-4.3708,-4.4291,-4.4556,-4.5155,-4.6097,-4.6681,-4.704,-4.7174,-4.7264,-4.7309,-4.7309,-4.7352,-4.7381,-4.7467,-4.7609,-4.7691,-4.811,-4.869,-4.897,-4.914,-4.8579,-4.8637,-4.9645,-5.0386,-4.9808,-4.9558,-4.9562,-4.9241,-4.9018,-4.9018,-4.9018,-4.9018,-4.9018,-4.9018,-4.9018,-4.9018,-4.9018,-4.9018,-4.9018,-4.9018,-4.9018,-4.9171,-4.9373,-4.9593,-4.9965,-5.0405,-5.1217,-5.2029,-5.257,-4.11,-4.113,-4.122,-4.125,-4.125,-4.1265,-4.1369,-4.1459,-4.1497,-4.2207,-4.3484,-4.5098,-4.6277,-4.686,-4.7055,-4.7055,-4.6965,-4.6696,-4.686,-4.689,-4.6875,-4.6711,-4.6741,-4.6905,-4.68,-4.6666,-4.6367,-4.5798,-4.52,-4.5125,-4.4885,-4.4347,-4.4092,-4.3873,-4.3469,-4.3364,-4.3574,-4.3798,-4.3768,-4.3708,-4.4227,-4.4706,-4.4481,-4.4302,-4.4137,-4.3828,-4.3469,-4.3305,-4.3305,-4.3305,-4.3305,-4.3305,-4.3305,-4.3305,-4.3305,-4.3305,-4.3305,-4.3305,-4.3305,-4.3305,-4.3305,-4.3305,-4.3305,-4.3305,-4.3305,-4.3424,-4.3693,-4.3873,-4.4137,-4.4646,-4.5574,-4.6232,-4.6576,-4.6875,-4.698,-4.7234,-4.7249,-4.7264,-4.7294,-4.7294,-4.7309,-4.7337,-4.7679,-4.8236,-4.8517,-4.8736,-4.8896,-4.9156,-4.948,-5.0022,-5.0061,-5.0222,-5.044,-4.9996,-4.9376,-4.912,-4.9154,-4.9018,-4.9018,-4.9018,-4.9018,-4.9018,-4.9018,-4.9035,-4.9035,-4.9289,-4.9424,-4.961,-4.9813,-5.0152,-5.071,-5.12,-5.1657,-5.2384,-5.2807,-3.9798,-3.9828,-4.0352,-4.0591,-4.0591,-4.0591,-4.0876,-4.1362,-4.1354,-4.2117,-4.308,-4.3574,-4.4471,-4.5693,-4.5678,-4.5768,-4.6007,-4.5903,-4.5738,-4.5663,-4.5933,-4.5813,-4.5828,-4.6067,-4.5753,-4.5633,-4.5544,-4.5125,-4.4586,-4.4466,-4.4197,-4.3589,-4.3544,-4.3454,-4.3394,-4.3334,-4.3379,-4.3514,-4.3514,-4.3439,-4.3424,-4.3678,-4.3589,-4.3499,-4.3469,-4.3394,-4.3305,-4.3305,-4.3305,-4.3305,-4.3305,-4.3305,-4.3305,-4.3305,-4.3305,-4.3305,-4.3305,-4.3305,-4.3305,-4.3305,-4.3305,-4.3305,-4.3305,-4.3305,-4.3305,-4.3305,-4.3484,-4.3544,-4.3798,-4.4212,-4.4945,-4.5349,-4.5708,-4.5963,-4.6127,-4.6711,-4.704,-4.713,-4.7204,-4.7249,-4.7309,-4.7309,-4.7381,-4.7792,-4.8015,-4.8107,-4.7981,-4.8337,-4.9378,-4.9799,-5.0281,-5.0662,-5.1077,-5.0788,-5.0168,-4.9509,-4.9357,-4.9171,-4.912,-4.9323,-4.9323,-4.9035,-4.9052,-4.9458,-4.9678,-4.9915,-5.0033,-5.0152,-5.0591,-5.0997,-5.1623,-5.2131,-5.2452,-5.2706,-5.3095]}]]